GFSMW_700_spd_000.txt.gz
Wind_Speed
18 16 16 13 12 12 13 15 17 18 20 17 18 18 18 17 18 24 25 30 31 35 36 38 41 45 47 50 53 55 53 50 51 49 47 46 46 47 49 48 46 47 49
17 16 14 14 13 13 11 13 15 16 14 16 15 15 19 23 25 26 29 34 33 36 40 44 47 49 52 55 54 51 51 50 50 50 51 53 53 53 50 48 45 44 47
2 4 6 6 8 12 14 15 15 18 19 18 20 21 21 21 24 29 33 37 40 42 46 51 51 54 51 50 48 50 51 50 52 53 52 51 52 51 48 45 43 43 45
1 5 4 5 12 17 15 16 19 18 17 16 21 23 25 29 32 37 43 47 50 51 53 55 53 49 48 48 52 55 58 55 45 42 42 43 46 49 51 49 44 45 48
2 5 5 13 18 12 8 13 13 14 20 23 29 31 34 38 42 46 48 50 52 54 53 51 50 51 53 55 54 50 48 47 46 44 43 42 43 45 47 48 50 55 55
7 8 3 9 7 11 13 13 14 19 23 30 35 38 40 42 46 50 48 52 51 50 49 49 49 47 47 47 43 47 50 37 41 42 44 45 45 47 50 51 49 44 40
7 10 15 18 10 15 16 19 23 25 30 36 38 41 43 45 46 48 50 50 50 49 48 48 48 50 50 46 43 48 42 44 42 41 44 45 42 42 42 42 44 43 38
14 18 14 16 17 19 19 21 25 28 33 39 45 45 45 46 48 49 49 49 49 48 49 51 51 49 45 39 48 48 45 44 36 36 39 39 36 32 34 37 41 45 43
22 19 19 21 22 23 23 23 23 28 35 43 45 44 46 47 48 49 48 46 47 48 48 48 45 33 41 37 39 31 36 36 36 37 34 30 31 33 35 36 37 40 48
20 20 22 24 25 27 25 27 28 32 37 42 44 44 43 44 45 44 44 44 44 44 45 44 34 37 36 34 33 35 32 32 33 34 32 33 35 36 38 40 42 43 44
21 23 26 26 29 28 28 31 34 36 41 42 42 42 43 43 43 42 43 43 44 43 43 42 39 39 39 39 33 27 31 34 34 33 33 34 36 39 42 44 44 43 42
24 26 29 30 28 29 30 32 37 41 39 39 40 42 44 45 45 45 46 46 44 42 39 38 35 32 27 30 27 30 31 32 32 33 35 35 39 42 45 45 45 43 39
25 26 28 26 29 31 35 37 39 33 36 39 42 44 45 46 47 48 48 46 43 40 36 33 30 26 25 25 29 31 33 32 31 31 35 40 43 45 45 45 42 38 35
26 25 26 27 30 37 39 32 31 35 38 41 43 45 46 48 49 49 47 44 41 38 34 30 25 22 26 25 30 31 32 30 31 34 39 41 43 44 45 42 39 38 36
26 26 27 32 39 40 34 34 35 37 40 41 44 46 47 48 49 48 45 43 39 34 30 26 21 19 25 27 30 32 33 33 35 38 39 41 43 44 41 40 39 38 36
27 27 33 38 39 34 36 34 36 38 40 43 45 46 48 49 48 46 44 41 36 32 27 25 21 25 26 29 31 34 35 35 38 40 39 41 44 40 37 37 36 34 31
27 31 37 37 34 35 33 34 37 39 41 44 46 49 49 48 46 44 42 37 33 28 26 21 24 27 30 29 34 36 34 36 37 39 41 43 41 36 36 34 31 29 26
29 33 34 34 35 32 33 35 38 41 44 46 48 49 48 46 44 41 38 34 30 27 22 22 25 28 30 33 35 32 34 34 35 37 41 42 36 33 32 30 28 25 22
31 35 34 33 30 31 34 36 39 43 45 47 48 47 45 44 42 37 35 32 29 26 24 25 27 29 31 30 31 34 33 32 34 37 40 38 31 30 29 28 26 24 21
33 35 33 29 29 31 34 37 41 44 46 48 46 43 43 44 40 36 32 30 27 25 24 24 24 26 28 30 33 33 31 32 34 36 37 32 27 27 26 25 25 25 21
32 31 29 27 29 32 35 40 43 45 47 46 42 41 43 43 39 35 29 27 25 23 24 26 27 29 30 31 32 30 30 32 34 36 34 27 24 24 22 25 24 24 21
31 27 25 27 30 34 39 42 44 46 46 43 39 40 42 39 35 31 26 25 24 24 25 27 29 30 30 31 29 28 30 32 33 33 32 26 21 21 21 24 23 22 19
26 24 24 27 32 37 41 43 45 46 43 40 38 40 40 34 32 26 24 26 26 26 25 28 29 29 29 27 25 27 28 29 30 30 30 25 21 20 21 23 23 22 20
24 21 25 30 35 40 41 44 45 44 41 39 37 39 36 33 29 24 26 30 27 25 26 28 28 27 25 23 24 26 26 26 27 27 28 25 22 22 22 21 23 22 21
21 21 29 35 38 39 41 43 43 42 39 37 36 37 34 30 26 22 24 30 26 25 26 27 25 23 22 22 24 25 25 24 24 24 25 24 22 19 20 20 21 22 21
19 27 34 38 37 39 40 41 41 39 36 35 35 34 31 28 25 22 26 27 25 24 26 25 22 21 20 22 24 25 24 23 22 22 22 23 22 21 19 18 18 20 20

GFSMW_700_spd_003.txt.gz
Wind_Speed
12 12 12 11 11 10 11 13 11 14 15 10 13 13 12 15 17 20 23 25 27 30 32 35 39 43 47 49 50 50 48 49 50 52 54 55 54 53 53 53 52 51 49
11 8 6 7 10 9 8 11 12 10 10 14 18 19 15 14 17 20 25 30 34 38 41 43 46 48 49 49 48 48 49 51 54 55 58 60 57 56 52 53 51 51 47
7 6 3 5 6 7 6 6 9 15 18 16 15 17 21 22 25 28 32 36 40 43 44 45 47 46 47 49 50 52 53 54 56 56 56 53 54 54 49 45 45 44 45
9 5 6 6 6 7 8 11 13 12 11 11 15 21 25 29 32 35 38 41 43 44 45 45 45 46 48 49 48 48 49 50 49 47 46 36 37 41 45 42 41 40 41
9 8 6 4 10 17 11 10 8 7 11 17 21 25 30 34 37 38 41 43 44 44 43 43 43 43 44 44 44 44 42 41 40 39 37 41 39 40 44 47 46 44 42
10 7 5 8 12 11 10 14 14 13 16 18 25 30 35 38 39 41 43 43 43 42 43 43 43 43 43 43 42 40 36 43 46 43 46 38 37 40 45 44 42 41 43
12 9 5 9 10 9 12 16 17 18 19 23 29 34 38 41 43 44 44 44 43 42 42 44 44 44 43 42 41 40 46 43 41 37 36 36 37 38 39 37 34 35 36
11 9 10 6 11 15 18 19 21 23 23 27 33 38 43 45 44 44 44 43 43 43 43 42 43 43 42 40 35 45 38 36 36 36 33 31 32 31 31 33 36 40 41
12 11 13 13 18 18 20 23 25 27 28 34 37 43 44 42 43 41 41 41 41 41 41 41 41 40 37 35 37 39 35 33 31 29 33 33 30 30 32 35 38 42 47
16 15 15 19 22 23 24 28 32 28 33 39 42 39 39 39 39 40 41 41 41 42 41 39 37 35 34 31 30 28 31 30 31 32 33 31 30 31 33 38 41 43 46
18 18 20 24 27 29 29 35 35 34 38 40 39 37 37 39 42 42 43 44 44 43 40 38 34 31 29 28 28 30 30 31 31 32 31 30 32 34 37 40 43 44 44
22 23 26 29 32 31 35 37 36 39 42 35 35 37 40 42 44 45 46 45 44 43 40 35 31 27 26 23 25 28 32 32 33 32 32 32 33 37 39 41 42 44 42
26 27 27 28 31 31 33 36 38 42 32 34 36 39 42 44 45 46 47 46 44 41 38 34 30 25 22 22 25 28 33 32 33 33 32 33 36 38 39 41 44 42 39
28 29 28 28 27 30 34 36 40 35 33 35 37 40 43 44 47 47 47 45 43 41 37 32 26 23 22 21 28 30 31 34 34 33 33 35 37 38 40 42 41 39 38
27 28 26 24 28 32 38 36 37 34 33 34 38 41 43 45 47 46 44 43 41 39 34 29 24 24 20 26 29 31 33 33 33 33 34 35 35 38 40 40 35 36 35
27 26 24 26 28 35 34 34 35 32 33 35 39 42 45 46 47 45 43 41 39 37 32 28 25 22 25 24 32 33 34 35 33 34 34 35 36 38 38 33 32 32 31
23 23 22 24 29 33 34 34 31 31 34 37 40 43 46 47 46 43 42 40 37 34 31 27 25 24 28 29 31 33 33 32 33 33 34 35 36 37 34 31 30 29 27
20 22 24 28 32 34 34 30 29 32 35 39 42 45 47 47 44 41 41 38 35 32 29 27 26 26 26 27 28 29 30 32 31 31 34 34 34 34 30 30 28 27 25
21 24 27 30 32 32 29 28 30 34 38 41 43 46 46 44 41 40 39 37 34 29 26 25 24 24 26 27 29 30 31 30 28 30 32 33 33 29 27 27 27 26 23
23 25 28 31 28 28 25 28 33 37 40 42 44 46 44 41 39 39 37 36 31 26 24 25 25 26 28 30 31 31 29 26 27 28 30 31 30 25 24 24 26 25 23
23 29 37 24 25 23 25 30 35 39 40 43 45 43 40 38 37 38 35 33 27 24 25 26 27 27 30 31 30 29 25 26 26 27 28 29 28 23 21 22 24 25 24
27 30 36 26 23 20 26 32 37 39 41 43 42 40 37 35 36 36 34 30 24 25 28 27 26 28 30 29 27 23 24 25 26 26 27 28 26 22 21 21 22 24 24
33 32 28 23 15 21 28 34 37 39 41 41 40 37 35 34 35 34 32 28 25 27 30 27 26 28 29 25 21 21 23 24 24 25 25 26 26 23 21 21 21 22 23
34 36 24 14 18 24 31 34 37 39 39 38 35 34 34 33 33 31 29 25 23 25 28 27 27 27 24 20 19 20 22 23 23 23 23 23 25 25 24 22 21 21 22
38 23 14 18 21 27 30 33 36 37 36 34 35 34 31 30 30 27 25 23 21 25 26 26 26 24 20 17 18 21 22 22 21 20 21 20 21 22 22 23 21 20 20
26 13 17 19 23 27 29 32 35 34 33 35 34 31 29 28 26 23 22 19 20 22 24 26 23 20 17 15 18 20 22 20 18 19 19 19 20 21 21 22 21 20 18

GFSMW_700_spd_006.txt.gz
Wind_Speed
14 14 13 14 15 14 14 13 8 9 6 3 5 2 4 9 13 15 17 19 23 28 31 35 38 38 42 43 45 44 44 47 50 48 49 49 48 41 51 49 50 51 55
16 16 17 17 17 16 11 6 8 5 3 4 4 7 12 15 17 19 22 25 29 33 36 38 40 42 42 44 45 45 45 45 52 52 51 52 46 29 31 48 54 54 56
13 14 13 13 13 10 4 4 3 0 2 6 9 12 14 17 21 25 29 32 34 36 38 40 41 42 43 43 44 46 46 46 47 54 53 52 49 52 49 40 44 44 44
15 15 12 15 12 5 7 4 7 6 8 11 12 14 18 23 26 30 33 36 38 39 39 40 40 41 40 41 43 44 44 47 45 47 46 47 46 47 47 37 35 41 40
15 12 18 11 2 4 3 7 11 12 10 10 13 19 24 27 30 33 36 36 37 39 40 40 41 40 40 41 41 44 45 44 44 40 42 40 42 37 33 36 30 31 29
19 21 15 7 2 4 5 8 10 11 13 17 21 24 28 30 34 40 39 39 40 39 39 40 39 40 40 41 41 41 39 35 38 46 39 41 35 34 29 30 33 33 29
20 17 12 7 4 5 8 10 11 14 19 23 26 28 30 34 39 39 40 40 40 39 38 37 38 38 39 39 39 34 37 37 40 42 38 34 26 24 25 24 27 30 31
19 15 13 9 8 10 13 16 17 20 26 28 28 29 35 39 40 40 39 38 39 39 38 38 38 38 38 38 31 31 43 37 36 32 32 26 22 22 22 23 26 33 36
19 17 16 13 12 15 18 21 24 27 32 35 32 36 39 40 38 37 37 38 39 40 40 38 37 37 35 31 30 37 33 31 29 27 23 23 23 23 25 23 23 29 43
23 21 19 15 17 21 23 26 29 31 36 37 36 41 42 37 35 36 38 40 41 41 40 39 38 36 30 30 32 29 27 27 25 21 25 27 28 27 26 23 27 30 36
24 23 21 20 21 26 28 29 31 37 40 39 39 40 35 34 36 38 40 41 42 41 39 38 37 32 30 28 26 27 23 23 22 25 26 28 30 27 28 31 32 31 31
26 25 24 25 27 30 31 33 37 40 38 39 36 32 34 36 38 40 42 42 42 41 39 38 36 32 28 24 23 23 20 24 29 29 32 33 32 32 33 34 33 34 35
28 28 28 30 33 33 33 34 37 37 37 35 34 34 35 37 39 41 42 43 42 41 40 38 35 30 25 23 22 22 25 31 32 35 36 36 34 35 35 36 39 41 43
32 32 32 33 35 33 32 34 35 35 33 36 34 34 36 38 39 41 44 44 42 41 39 38 35 28 25 23 23 26 30 31 34 35 36 35 35 34 35 37 39 41 38
30 30 31 34 32 30 32 34 32 32 35 34 32 35 37 38 40 43 44 42 40 40 38 35 32 27 24 22 23 31 30 35 35 35 35 35 34 33 35 36 37 35 33
26 27 29 31 31 29 32 31 32 35 34 31 32 35 37 38 42 44 43 41 40 38 35 32 24 27 26 25 26 28 30 31 33 34 35 33 34 35 36 34 32 30 31
20 24 28 29 29 30 33 30 33 34 30 29 32 35 37 39 43 44 42 40 38 35 33 28 26 24 25 24 24 24 27 30 32 33 32 31 33 33 32 32 28 28 27
20 22 26 29 30 33 31 31 33 29 27 30 34 36 38 42 44 44 40 38 36 33 32 28 26 25 24 24 25 27 29 30 31 30 29 30 30 31 31 28 25 25 26
20 22 26 30 33 33 37 33 27 24 27 31 34 36 39 42 43 42 38 34 34 32 30 27 25 24 27 26 27 29 30 28 28 27 28 27 27 28 28 25 24 24 25
20 22 26 29 34 38 42 31 24 23 28 31 34 36 39 41 42 39 34 33 33 32 28 24 25 25 27 27 29 30 29 26 25 25 25 25 25 27 26 24 24 25 25
23 24 27 31 33 40 35 24 20 24 28 32 34 37 38 40 38 35 32 32 32 31 28 26 27 27 25 27 29 28 25 23 24 24 23 23 25 25 24 22 22 24 25
28 28 32 34 37 38 20 18 20 24 29 32 34 35 36 37 35 32 30 31 30 29 26 24 25 26 25 26 27 25 21 22 23 23 22 21 22 23 23 22 21 22 24
33 34 35 38 36 34 21 16 18 26 29 31 32 33 35 35 32 30 29 29 28 26 24 22 24 25 27 26 23 21 20 22 23 22 20 20 21 21 22 23 23 21 22
34 36 39 42 42 29 13 13 22 27 28 29 30 32 33 32 30 28 27 26 25 23 21 21 23 25 25 23 20 18 20 21 21 20 19 19 19 20 21 22 24 22 20
36 40 43 34 26 14 12 19 23 25 26 28 30 31 30 29 27 25 25 25 21 20 19 21 24 25 23 20 17 17 19 20 20 18 18 18 19 19 20 21 22 22 21
41 39 25 16 9 10 16 21 23 23 25 28 28 28 28 26 25 25 24 23 20 19 18 20 23 23 20 17 15 16 17 18 17 16 17 17 18 19 20 20 20 20 20

GFSMW_700_spd_009.txt.gz
Wind_Speed
19 17 17 18 18 17 18 17 16 14 13 10 7 6 6 7 8 10 14 17 21 24 26 31 35 38 40 42 44 46 47 43 43 47 49 49 45 31 28 24 26 32 38
20 20 19 19 19 19 18 16 13 12 10 8 7 7 8 10 11 15 18 23 25 30 33 36 37 39 40 41 43 44 45 43 43 44 49 50 48 40 31 37 40 42 37
20 21 22 22 23 22 19 14 11 11 10 7 7 9 12 12 15 21 26 29 30 34 36 37 38 39 40 41 42 43 45 43 44 42 45 45 42 47 44 44 44 41 38
19 20 20 20 18 17 14 10 10 9 7 9 12 14 10 14 22 25 29 33 38 37 36 37 38 39 39 40 40 40 45 44 45 46 43 44 45 44 50 35 28 25 30
18 16 17 19 17 15 10 10 8 7 10 13 15 18 19 23 28 31 34 38 38 37 37 38 38 39 39 39 41 43 40 43 44 45 44 44 42 38 31 34 28 26 25
17 20 21 21 18 12 9 11 12 12 12 15 19 22 25 28 28 36 38 39 37 37 38 38 38 38 38 37 37 39 40 42 38 38 39 35 26 26 28 28 28 26 25
22 25 26 22 18 13 12 15 16 16 17 20 23 27 30 30 31 34 38 37 38 38 38 38 38 37 36 37 37 37 36 34 35 36 42 23 24 26 25 25 27 28 25
24 26 25 23 20 16 17 18 20 21 23 26 30 34 33 37 36 38 37 37 37 38 40 40 39 38 36 37 36 26 25 30 27 37 27 25 22 22 23 26 26 31 29
25 26 26 26 24 19 19 21 24 25 27 31 33 36 37 38 40 39 36 36 38 39 40 40 40 39 37 30 24 33 29 28 31 27 23 24 26 27 24 25 23 28 36
24 26 27 28 25 22 22 26 28 30 31 33 38 41 41 39 36 36 36 37 39 41 41 39 37 39 37 31 28 24 28 23 25 29 23 27 29 29 28 24 25 29 33
25 26 29 28 27 27 26 27 32 35 35 36 40 43 41 36 35 36 36 38 40 41 40 38 37 36 34 25 25 25 22 21 27 25 22 26 31 30 29 27 29 30 31
24 25 30 30 30 30 30 33 36 38 37 39 43 41 37 35 35 36 38 40 40 41 40 40 40 37 30 26 25 19 19 22 23 26 31 33 30 31 29 28 29 31 32
26 27 33 33 33 34 35 39 40 40 39 42 41 38 36 35 35 37 39 40 41 40 41 41 39 33 31 25 19 19 21 22 26 30 34 36 34 33 33 34 35 36 39
28 29 35 35 36 37 39 41 41 41 40 41 36 35 36 35 36 38 39 40 41 41 42 42 37 35 25 21 18 20 23 27 29 31 38 37 36 36 35 34 35 38 40
30 34 38 40 41 42 43 40 42 39 39 37 33 36 36 34 36 38 38 40 41 41 41 39 32 26 25 28 25 24 26 28 31 32 34 35 37 35 32 33 33 36 37
27 30 32 36 39 41 40 40 39 36 40 38 33 35 32 34 36 35 38 39 41 41 38 30 27 22 22 28 26 25 24 26 29 33 33 33 33 33 34 34 32 32 31
24 27 29 31 33 37 38 38 37 39 44 35 37 29 31 35 34 36 38 39 39 39 32 25 24 23 23 22 26 26 26 27 30 32 31 29 30 31 30 32 32 30 28
21 22 26 30 35 37 39 37 39 42 43 43 37 29 31 34 34 36 38 38 35 30 27 24 24 24 27 25 27 26 27 29 31 30 28 28 28 30 28 29 29 26 25
24 26 26 29 33 36 38 39 42 46 44 43 25 28 32 33 35 36 37 35 33 28 25 23 24 25 28 26 26 26 27 30 29 28 26 27 26 27 27 28 27 25 24
26 23 23 25 30 34 38 42 47 47 47 30 25 27 33 35 35 36 35 34 32 30 26 26 28 26 26 27 26 26 27 28 27 25 27 28 24 24 24 26 26 25 24
27 28 27 29 31 38 40 45 45 41 30 23 22 27 33 34 35 35 34 31 30 30 30 29 27 25 24 27 25 25 26 25 23 24 26 26 24 22 22 24 25 25 24
30 33 33 33 35 41 46 50 51 38 23 19 18 26 30 33 34 33 31 30 30 30 28 27 23 24 25 24 22 24 23 22 22 24 25 23 21 21 21 21 22 23 23
31 34 38 41 42 42 48 49 42 22 18 16 20 25 30 32 31 30 29 28 28 28 27 24 23 22 23 26 25 21 21 19 22 24 23 20 19 19 20 21 21 21 22
36 38 39 39 41 44 46 34 21 15 13 18 21 26 30 30 28 27 27 26 25 25 24 23 22 21 21 24 28 22 19 19 21 22 19 17 18 18 19 19 21 22 22
35 38 38 39 40 42 33 21 14 13 15 19 24 27 29 29 28 25 23 23 23 24 23 22 22 22 21 24 21 21 20 20 22 21 18 17 17 18 19 19 20 20 20
36 34 39 38 30 26 22 16 14 15 19 23 25 27 28 27 27 26 24 23 23 23 23 22 22 22 22 22 19 19 18 18 20 19 17 17 17 18 18 19 19 20 20

GFSMW_700_spd_012.txt.gz
Wind_Speed
19 16 13 14 15 12 13 15 16 13 14 16 13 12 10 10 9 10 10 12 17 21 24 26 32 35 36 37 38 39 41 42 42 43 43 43 45 42 36 42 40 39 37
17 18 17 18 19 20 18 18 18 15 13 15 14 14 11 11 13 13 16 18 23 27 31 35 34 35 37 37 38 39 41 42 42 42 43 46 47 46 46 40 37 37 40
26 23 23 24 24 23 22 21 19 13 16 12 11 13 14 18 19 18 19 25 27 30 34 36 37 36 35 36 37 38 41 43 42 41 43 46 48 51 48 47 45 46 48
28 26 24 26 28 27 24 21 20 17 11 17 14 14 19 22 20 23 25 28 32 33 35 35 34 34 36 37 38 38 39 40 42 42 43 44 47 50 51 47 48 41 38
28 25 21 21 24 24 20 25 23 16 16 15 15 18 18 23 25 26 28 29 31 35 34 33 33 35 36 37 37 38 39 39 39 42 44 45 44 43 42 51 46 39 32
27 24 23 18 23 23 26 24 20 18 17 18 18 18 22 28 28 31 33 34 37 35 33 33 36 37 37 37 36 37 39 41 42 41 42 38 39 39 40 39 38 33 31
21 18 20 18 25 27 22 20 21 20 19 19 19 22 25 30 32 34 37 42 38 35 35 36 38 39 38 37 37 38 41 36 33 34 35 39 36 41 33 30 31 34 36
23 26 29 32 28 24 22 21 23 22 23 22 23 26 29 32 36 36 39 42 38 35 36 39 40 41 39 40 39 40 37 33 29 28 30 36 34 26 29 31 34 36 36
21 22 26 27 27 27 25 24 25 28 26 27 29 31 31 35 38 40 42 37 35 35 38 40 40 40 42 43 42 38 33 30 27 32 32 23 36 30 31 31 32 35 40
20 23 28 29 29 29 29 28 28 32 31 31 34 35 36 37 39 42 38 37 34 36 39 40 40 38 39 42 40 37 31 31 28 23 21 31 36 27 26 40 38 33 33
20 23 27 30 32 33 32 30 32 35 34 34 36 39 39 41 42 39 39 35 34 37 39 40 39 38 38 37 33 31 28 25 21 23 28 32 30 35 41 40 35 36 35
24 24 26 28 34 35 33 32 34 38 38 38 39 41 42 45 40 40 37 35 36 39 39 38 38 39 39 37 31 27 26 21 26 26 27 32 37 39 42 42 38 38 37
24 25 29 31 37 37 36 36 35 39 41 41 42 43 45 45 42 34 34 34 38 38 38 37 39 38 34 33 28 25 25 23 26 27 32 36 34 40 42 38 37 36 36
25 27 30 35 41 43 39 38 39 40 42 44 40 45 48 45 38 35 31 33 37 38 38 38 38 36 32 28 27 24 25 25 28 30 32 33 37 36 37 35 34 34 36
25 25 31 35 40 46 45 42 41 42 42 40 39 42 43 44 35 32 33 32 35 37 37 38 36 35 32 23 25 26 28 29 29 30 31 32 35 35 32 30 31 31 33
16 26 31 35 41 47 45 39 39 41 41 37 40 45 45 44 40 37 31 30 34 36 38 37 34 33 33 23 25 25 28 29 30 30 31 31 32 33 31 31 32 32 33
21 21 28 32 34 35 36 36 38 40 41 37 42 44 50 46 32 27 27 30 34 37 38 36 34 34 33 29 24 23 27 29 30 30 31 30 28 29 28 29 30 30 30
20 21 22 23 28 31 35 36 37 41 42 40 41 51 49 39 36 26 28 31 34 34 33 33 32 36 34 33 28 26 29 29 30 30 30 28 28 28 29 29 27 28 28
21 21 25 28 26 26 30 33 36 40 42 45 47 48 35 28 20 24 25 30 34 34 33 31 32 35 33 32 29 28 29 30 29 29 28 26 26 28 28 26 25 25 26
20 20 22 24 26 27 28 34 39 43 45 39 37 40 25 19 19 22 28 32 35 34 31 32 32 35 34 32 29 26 29 29 27 26 25 26 27 27 25 24 24 24 25
23 25 23 24 25 30 34 37 42 44 50 50 53 34 25 19 20 26 30 34 34 30 28 30 28 29 32 29 25 26 26 26 23 22 23 28 27 24 23 23 23 24 25
25 23 29 33 34 37 40 45 47 52 52 50 35 25 19 17 22 26 32 33 29 28 29 29 28 28 27 26 22 20 22 23 21 20 22 25 24 22 22 22 22 23 23
32 34 34 34 35 38 42 45 50 53 41 35 25 18 17 19 24 30 31 29 28 27 27 27 26 26 25 25 23 24 23 20 20 20 22 22 21 21 21 22 22 21 21
36 36 33 32 32 33 38 43 47 38 29 19 17 17 17 23 28 29 27 27 27 28 27 26 26 24 22 21 24 27 26 21 18 19 20 18 18 19 20 19 19 21 22
31 32 34 36 35 33 32 29 25 21 17 18 15 19 24 26 28 30 28 25 26 28 27 25 25 24 22 24 25 27 27 24 19 18 19 18 18 18 18 18 19 21 22
27 30 29 30 26 22 20 19 17 18 15 17 22 25 27 28 29 30 28 28 27 27 27 27 26 24 23 25 25 24 24 24 22 19 19 18 17 17 16 16 17 20 22

GFSMW_700_spd_015.txt.gz
Wind_Speed
6 7 9 6 6 7 7 10 11 11 13 13 15 14 13 9 9 10 11 11 13 16 20 24 25 28 31 32 31 31 32 33 33 34 35 35 37 39 41 42 42 40 38
13 14 15 12 9 9 10 14 14 16 18 21 15 13 11 11 14 13 11 11 16 20 21 21 28 30 29 28 29 32 33 34 35 36 37 40 40 41 43 44 42 45 44
14 16 18 19 16 15 18 19 19 19 23 22 16 17 15 15 14 15 15 18 21 24 26 32 32 31 29 29 31 32 34 35 35 38 40 43 46 47 48 47 47 45 41
20 25 19 24 25 25 25 24 21 22 21 18 17 18 18 19 19 22 20 24 28 29 35 37 37 33 30 32 33 34 35 35 36 38 40 42 44 47 50 49 46 42 42
27 29 25 29 30 30 26 25 25 27 18 19 18 17 19 19 21 24 26 28 31 33 39 35 37 31 31 32 34 35 34 35 37 40 42 42 43 42 43 46 44 44 41
28 29 31 32 28 29 27 29 31 26 18 20 18 18 20 20 23 26 29 32 34 37 40 36 35 32 32 33 34 35 36 38 39 40 39 41 43 40 40 40 40 41 36
32 34 36 37 29 25 31 33 31 22 19 21 20 21 22 24 25 29 32 34 36 41 39 35 35 32 32 35 34 35 37 40 38 38 37 39 38 37 37 38 42 36 33
37 39 37 31 30 25 20 21 24 21 21 22 24 25 27 30 32 33 36 36 37 41 37 38 36 35 36 37 36 36 37 38 36 34 35 36 35 36 33 36 35 32 39
29 30 28 31 30 25 23 23 25 25 23 24 27 29 32 34 37 38 40 42 44 36 34 35 35 34 37 38 38 37 38 36 36 35 34 34 31 30 31 34 35 33 43
21 23 27 30 30 27 26 30 32 31 28 26 30 33 36 37 40 43 44 45 50 39 34 35 33 32 35 37 38 38 37 34 34 35 32 29 28 27 34 35 37 40 43
20 17 20 23 25 27 28 31 37 37 34 31 32 35 38 39 42 45 46 47 46 42 35 34 33 34 34 35 33 32 31 31 31 29 28 25 31 34 35 39 44 42 45
23 24 24 24 24 26 26 26 31 35 36 37 38 40 41 41 44 48 49 49 42 37 35 33 33 34 35 35 34 31 28 29 26 26 26 28 32 33 38 43 42 41 40
23 25 28 31 30 29 31 33 33 35 39 42 43 44 43 43 46 47 50 47 39 38 36 33 31 33 34 31 33 30 29 28 26 27 28 30 33 35 36 37 37 36 33
18 24 28 31 33 35 36 38 39 42 45 45 44 44 42 44 47 49 45 42 36 38 27 27 30 33 37 35 31 28 28 29 28 31 32 32 34 35 37 36 33 31 32
8 17 28 30 32 35 38 38 40 43 46 45 42 41 42 45 47 42 42 40 38 26 25 27 29 33 37 37 28 26 28 28 27 31 31 33 34 36 35 31 29 31 31
15 19 18 25 30 33 36 40 41 42 43 41 39 39 43 46 47 47 47 41 37 21 24 25 29 34 37 36 31 28 29 28 29 30 32 32 33 34 30 28 29 31 33
17 17 18 25 31 35 37 37 37 38 39 40 40 42 44 47 53 54 45 34 33 24 23 28 33 35 38 36 32 30 32 31 31 32 33 33 33 30 27 28 29 27 27
20 22 22 20 26 29 31 31 31 34 39 42 44 47 49 51 54 53 35 34 21 22 26 31 33 37 38 35 33 34 36 34 32 32 33 33 31 25 26 27 26 24 25
23 23 22 26 25 27 28 29 31 35 39 44 47 51 51 55 55 41 34 26 21 23 28 34 36 35 34 33 32 34 36 33 32 32 32 31 26 24 27 24 23 22 23
27 27 28 30 28 30 30 30 35 39 41 45 49 53 55 57 41 26 25 19 22 26 32 34 32 30 27 28 30 32 31 30 30 31 30 25 23 25 25 23 22 21 22
24 23 24 26 27 29 33 34 37 39 44 52 54 57 56 41 31 23 15 17 23 32 32 30 27 25 25 27 30 29 27 27 29 28 24 22 22 23 22 21 22 22 23
29 28 28 28 25 26 31 35 40 44 50 51 55 51 37 36 23 17 15 25 31 31 28 28 26 25 25 27 28 27 23 25 25 24 21 20 23 22 21 21 21 21 21
31 30 27 25 21 23 27 31 35 40 42 49 40 36 32 21 19 18 25 28 29 30 28 28 27 26 27 29 27 23 23 24 23 23 20 19 21 20 19 19 19 18 19
28 27 26 26 24 26 27 28 34 36 38 37 32 25 22 14 20 26 28 29 26 28 29 29 29 29 29 29 28 26 27 25 25 23 20 18 19 18 17 17 17 17 19
30 32 31 26 30 28 25 24 22 21 21 21 22 18 19 24 26 27 29 30 29 27 28 30 31 31 31 30 29 27 27 27 26 24 20 18 18 17 15 16 16 16 18
28 26 25 25 21 18 18 18 17 19 21 20 20 24 26 27 28 30 30 30 32 32 30 29 30 30 31 31 30 28 26 29 26 24 20 18 18 17 15 15 15 15 17

GFSMW_700_spd_018.txt.gz
Wind_Speed
8 7 6 11 13 12 11 10 10 10 10 9 10 9 8 11 12 10 12 13 14 16 15 20 18 20 25 30 28 27 26 28 29 28 28 27 30 32 34 35 36 38 37
11 12 10 10 13 11 12 14 15 15 14 14 15 12 12 14 12 11 11 12 16 18 18 22 24 30 31 31 30 27 28 29 30 30 30 31 33 34 36 38 39 39 38
13 13 10 10 14 16 17 17 15 15 19 22 20 15 17 14 12 12 13 13 15 16 21 25 31 32 31 34 32 30 30 31 33 32 33 36 38 40 41 43 44 44 43
17 18 16 14 16 15 18 19 19 20 22 25 23 17 16 14 11 12 13 17 19 22 26 29 34 34 33 33 34 35 33 33 34 35 36 39 42 43 45 45 46 44 43
21 21 20 20 20 20 22 24 27 23 25 23 20 17 17 15 15 15 18 21 24 26 29 32 37 37 35 33 34 37 37 36 37 38 39 40 41 42 44 47 45 44 40
24 24 23 23 24 23 23 23 29 25 27 27 17 20 18 18 19 21 25 29 31 33 35 37 39 41 38 37 35 37 37 38 38 39 41 41 41 41 42 44 42 41 35
27 27 28 28 28 26 25 31 30 27 29 29 20 21 22 24 27 30 33 35 36 39 40 42 45 50 39 38 36 40 38 36 37 39 40 40 38 39 41 41 38 37 34
23 24 25 29 28 27 28 35 24 27 28 29 22 25 28 30 33 35 37 39 41 43 47 47 44 54 38 41 40 39 37 37 37 38 38 35 35 35 36 34 33 35 35
22 25 25 31 31 32 33 23 23 25 25 25 26 28 32 36 37 38 42 42 45 45 48 52 49 43 39 41 39 37 36 36 36 34 32 32 33 32 29 28 30 38 42
20 20 22 25 27 27 29 28 28 24 24 27 30 32 36 39 41 43 45 45 47 49 52 52 53 42 39 35 40 34 36 36 33 33 34 31 29 28 28 30 33 38 42
14 14 13 11 13 19 25 25 26 24 27 30 32 35 39 41 44 45 48 49 49 51 56 54 50 43 41 32 30 31 30 31 31 32 31 30 29 30 30 35 38 41 44
12 14 17 17 16 17 19 21 21 20 20 20 23 29 34 37 39 43 47 49 51 52 56 55 48 43 28 25 26 29 35 33 30 30 29 29 30 32 33 34 36 38 40
15 19 21 21 23 24 24 27 28 28 28 30 31 33 38 40 37 40 44 47 49 53 54 54 46 41 35 31 33 29 30 32 31 31 32 31 34 35 34 35 37 38 38
17 22 23 24 26 28 29 30 31 33 33 35 35 38 39 37 39 42 43 46 50 51 51 49 39 39 33 26 26 27 27 29 30 31 33 32 33 34 35 35 37 37 36
14 16 21 25 28 32 34 34 37 38 37 37 37 36 36 38 41 45 47 52 54 53 52 42 40 30 22 27 29 30 29 29 31 32 32 32 33 33 34 35 36 35 36
12 11 17 21 22 25 34 34 36 35 32 32 34 33 36 39 45 50 53 58 60 58 42 37 32 23 27 30 33 34 32 30 33 34 37 34 33 34 34 34 33 34 36
15 16 19 24 27 26 22 23 27 26 29 31 33 35 40 44 47 52 56 62 58 43 37 33 22 24 28 32 35 35 34 31 34 35 40 34 34 34 33 31 32 33 32
16 18 21 22 24 26 25 26 28 29 32 34 37 40 45 48 50 55 59 61 41 35 31 19 21 25 30 33 32 33 32 33 33 35 33 32 33 33 29 29 30 28 27
19 22 24 24 24 24 24 26 30 34 37 38 40 44 50 51 53 61 57 41 34 31 16 18 24 32 30 28 29 30 30 31 35 32 32 32 33 29 27 28 26 23 23
21 21 19 17 18 20 22 25 29 32 37 41 44 47 54 48 54 51 40 38 35 19 18 23 30 28 26 26 27 28 29 31 30 29 30 32 30 27 26 26 23 22 22
19 20 22 24 26 24 22 20 26 32 38 44 43 51 48 54 46 42 41 27 19 20 25 29 28 26 25 26 27 27 28 28 28 27 29 30 27 25 25 24 21 20 19
22 24 27 29 30 28 25 20 23 28 33 35 38 42 47 41 37 41 29 21 22 27 29 30 28 27 26 27 28 28 28 28 26 26 27 28 26 23 23 21 20 19 19
26 29 31 29 28 26 26 26 28 33 35 34 36 39 40 42 40 28 23 25 28 30 31 31 29 29 28 28 29 30 30 29 28 28 27 26 25 24 22 21 19 17 17
31 30 28 27 28 26 27 28 31 32 33 34 32 30 31 31 30 27 28 31 31 31 31 31 31 31 31 30 29 31 32 31 30 28 26 24 23 24 22 20 19 17 16
27 27 28 27 24 23 23 23 22 22 24 25 26 27 28 30 29 31 32 33 33 34 34 32 32 32 31 30 32 33 32 32 32 31 27 23 23 24 22 20 19 17 16
26 25 23 21 20 19 19 20 21 21 23 24 27 29 31 31 32 34 35 34 35 37 36 35 36 34 32 32 34 34 34 33 33 33 29 23 23 24 22 21 19 19 17

GFSMW_700_spd_021.txt.gz
Wind_Speed
12 12 11 10 11 12 11 8 7 5 5 5 4 4 5 8 11 11 11 12 13 14 16 16 19 25 27 28 30 31 33 33 33 34 35 36 37 36 37 37 38 38 39
8 8 11 12 11 10 10 10 11 10 9 10 11 11 11 13 14 12 12 11 12 15 16 19 24 27 28 30 28 29 32 33 33 33 36 36 36 37 39 40 41 40 39
6 3 4 6 11 13 13 11 11 12 13 15 19 18 16 16 12 11 12 15 15 16 19 21 24 28 30 31 34 37 33 35 34 34 36 37 38 39 42 43 45 45 43
15 16 11 10 7 5 13 14 15 15 16 18 20 19 21 17 14 13 14 15 18 20 22 25 30 35 35 36 36 41 38 38 37 38 38 38 40 41 44 44 44 43 42
21 21 16 12 11 10 12 14 15 18 19 22 21 20 17 19 19 18 18 21 24 27 30 33 37 40 40 41 38 42 42 37 39 41 42 41 41 42 43 44 42 42 39
25 25 20 19 17 19 18 19 20 20 20 24 22 18 16 19 23 21 23 27 31 34 37 41 43 44 47 43 47 48 40 39 42 42 43 43 42 41 41 42 41 40 37
27 31 23 22 19 21 21 20 22 24 24 25 21 26 23 21 25 28 30 33 36 38 42 44 46 49 46 50 48 52 46 41 41 41 42 41 40 39 38 38 39 39 36
25 24 24 22 20 19 20 20 23 21 25 24 24 28 30 26 28 31 35 39 41 43 44 46 50 48 51 55 47 46 46 44 42 41 38 37 36 36 36 35 35 36 35
21 19 17 23 21 19 20 19 22 24 24 24 27 27 30 29 31 34 37 41 44 46 49 52 58 54 51 54 57 47 44 40 40 39 35 34 34 34 33 33 32 32 37
18 18 14 13 14 17 19 19 20 21 24 26 26 25 28 29 31 35 38 39 46 49 53 53 51 52 51 55 53 48 40 40 38 33 35 33 32 32 30 29 32 34 37
14 14 13 7 5 7 7 10 14 17 20 22 22 21 19 22 26 31 33 38 42 46 47 48 52 52 53 54 51 42 38 37 39 35 31 31 31 30 31 32 35 36 37
12 12 11 10 11 14 16 18 19 21 21 21 23 24 27 27 30 34 34 35 37 41 45 48 50 53 54 46 40 38 38 33 28 30 29 29 30 32 32 34 36 36 38
8 9 12 14 16 19 21 23 24 25 26 27 28 28 30 32 35 35 35 39 41 43 46 47 51 56 48 40 37 31 26 27 29 33 32 31 32 34 35 34 35 37 38
11 13 15 18 22 25 28 32 32 33 32 32 34 33 37 36 33 35 38 40 42 45 48 51 54 46 37 37 28 24 27 28 31 32 33 32 33 36 36 34 36 37 38
14 15 17 20 21 26 28 32 34 34 34 34 35 32 34 34 35 37 40 42 46 49 51 54 49 34 37 30 25 26 30 32 32 32 33 32 35 39 36 35 36 38 36
18 17 17 19 21 23 24 23 24 31 34 31 29 30 32 34 35 37 42 48 51 54 53 52 33 37 34 24 26 29 34 35 32 33 33 33 34 37 34 34 36 34 33
18 17 17 20 23 23 24 25 25 22 23 25 27 29 32 33 34 41 46 50 54 55 50 34 40 44 24 23 28 33 34 33 32 33 33 33 36 33 32 34 32 30 33
15 17 19 22 23 25 26 25 23 21 21 24 29 31 34 38 44 48 50 52 60 48 48 41 45 28 22 27 32 32 31 31 32 32 32 33 33 31 32 31 28 28 30
18 19 21 23 25 24 23 24 25 26 27 28 31 34 37 41 48 57 54 53 48 48 42 43 28 24 26 30 31 31 30 30 30 31 31 33 31 29 31 29 26 27 27
17 18 19 21 23 24 26 27 27 28 28 29 32 36 43 53 41 46 54 46 43 42 43 31 26 28 29 30 30 29 29 30 30 30 31 31 29 30 30 28 25 26 25
20 21 23 25 28 29 29 28 26 25 25 27 32 38 42 41 44 47 39 40 40 43 30 28 28 30 31 30 30 30 31 30 31 30 30 29 29 29 29 27 25 25 23
23 24 25 27 30 31 29 28 27 26 27 27 30 30 34 38 37 43 43 42 37 32 30 32 33 33 33 32 31 30 31 32 32 29 30 30 29 29 28 27 24 24 23
24 26 28 31 30 29 29 30 28 28 28 30 32 31 33 36 37 35 35 36 36 35 36 37 37 37 35 34 32 31 31 32 33 31 31 31 31 29 27 27 24 24 23
26 28 31 29 28 29 29 26 27 27 28 30 28 28 29 32 34 37 39 40 38 39 40 40 40 38 37 36 34 35 35 34 33 32 32 33 33 30 26 27 26 24 24
29 32 30 29 28 26 23 22 22 22 23 26 28 30 32 34 36 38 39 39 40 41 42 42 41 41 40 37 36 37 37 37 35 35 34 35 34 31 27 27 27 25 25
33 30 29 26 23 21 21 21 22 23 24 26 29 31 33 34 36 37 39 38 40 41 43 44 46 45 43 42 41 39 39 39 37 38 38 37 35 33 29 27 27 27 24

GFSMW_700_spd_024.txt.gz
Wind_Speed
14 12 11 14 16 15 14 11 9 7 6 4 4 6 6 6 6 7 7 7 9 11 13 14 16 20 22 24 26 27 27 31 31 33 36 36 36 38 39 41 42 43 44
12 11 9 9 10 8 8 9 8 6 5 5 7 8 11 11 11 11 9 10 12 13 15 16 17 20 23 26 29 32 35 35 34 35 37 34 36 40 42 42 44 46 47
7 8 6 5 6 7 7 7 9 9 10 11 11 14 15 15 13 13 12 12 16 17 18 18 20 24 28 32 35 38 39 41 39 41 35 37 39 42 43 45 47 49 49
13 14 10 7 4 4 11 12 12 13 15 14 14 15 15 15 17 17 18 17 18 21 23 24 26 31 34 38 41 42 42 42 46 42 38 39 42 44 46 46 48 49 47
17 17 13 10 10 10 8 11 13 14 13 13 14 14 18 18 18 22 25 22 23 25 27 29 33 37 41 45 47 50 46 43 49 44 44 43 41 42 44 48 47 46 43
19 21 21 17 17 15 16 15 17 18 18 17 14 16 18 17 18 20 23 25 26 28 32 35 39 42 45 48 52 50 53 46 46 46 44 41 40 42 42 44 43 42 39
21 20 21 22 19 19 19 19 21 20 23 21 18 18 20 20 24 23 24 25 29 34 37 41 47 43 45 49 53 51 43 46 45 40 40 36 38 40 40 38 38 39 40
22 22 20 17 20 19 18 17 17 19 20 22 23 24 25 21 24 28 28 28 30 32 34 35 37 37 42 44 45 49 50 48 45 40 37 37 36 34 37 38 36 38 39
15 17 15 16 18 20 17 16 16 16 15 20 24 26 25 25 24 25 28 29 27 28 38 37 40 42 42 48 48 46 48 45 43 41 40 38 39 37 33 33 34 35 37
5 9 10 11 12 16 16 16 17 16 15 20 23 22 21 23 21 22 22 26 28 28 38 37 37 42 42 45 46 50 43 42 39 40 38 34 30 31 31 32 32 34 35
8 7 7 12 14 15 15 9 7 9 12 17 22 24 24 24 24 24 26 27 27 31 35 35 41 39 44 45 47 47 41 40 38 35 29 29 31 30 29 29 31 33 34
7 9 9 9 8 7 7 7 11 15 18 21 23 25 25 26 26 28 28 26 27 32 35 34 40 41 46 48 49 43 40 40 33 30 30 31 32 31 32 33 34 36 35
7 5 7 6 10 12 14 17 18 20 25 27 30 32 30 33 30 29 27 26 30 34 36 42 43 45 52 49 36 36 42 33 30 30 31 32 33 33 34 33 36 37 35
12 11 11 11 15 16 19 21 22 25 28 31 33 33 33 31 28 28 27 29 33 37 41 46 49 52 53 44 36 42 32 27 29 30 32 32 33 32 33 33 36 35 35
15 15 16 19 19 19 22 24 26 28 30 33 33 34 31 29 27 29 32 35 37 44 39 45 51 58 47 38 42 38 28 27 31 33 32 32 32 32 32 34 35 34 35
20 20 19 19 20 21 22 24 27 28 31 29 29 30 26 28 28 30 34 37 39 41 45 50 55 48 45 39 43 30 27 31 33 34 33 31 32 32 33 33 33 33 35
20 20 20 18 20 23 24 27 31 33 32 28 26 26 27 27 29 33 37 46 51 50 52 62 49 45 41 43 36 25 31 34 35 33 32 31 32 32 33 33 31 32 33
15 15 16 20 24 27 29 29 28 25 25 26 26 26 27 29 31 36 41 45 43 47 45 48 44 44 42 41 28 29 34 35 33 32 31 31 31 31 32 31 30 31 30
15 19 24 27 27 25 24 24 24 26 27 29 29 28 28 29 33 39 41 46 54 45 42 40 40 41 39 30 30 33 35 34 33 32 31 31 32 31 32 31 30 30 28
21 23 23 22 22 22 23 26 28 29 28 27 27 27 25 28 31 41 45 38 36 37 38 38 39 36 32 30 33 34 34 34 33 33 33 32 32 32 31 32 30 29 27
22 21 20 21 23 26 28 30 31 28 27 26 25 27 28 31 32 32 33 34 37 41 40 37 34 33 34 35 36 36 36 35 35 35 35 33 34 33 31 32 30 29 28
20 21 23 25 27 29 32 32 31 31 29 26 25 26 28 29 31 32 34 36 36 36 37 38 38 36 37 40 39 38 37 37 37 36 36 35 35 35 31 32 30 30 28
22 24 25 27 29 33 32 30 31 28 27 28 29 28 28 29 29 30 33 34 36 39 40 41 41 41 40 41 42 40 39 39 39 37 36 36 35 35 33 31 30 30 29
26 26 28 30 32 32 30 30 25 24 24 25 25 26 27 28 31 32 35 37 38 39 40 41 43 43 43 42 41 42 41 42 41 40 39 38 35 34 35 33 31 30 29
29 28 30 32 33 31 28 23 22 23 24 25 26 27 29 31 33 34 36 38 39 41 43 45 47 49 49 48 48 44 44 44 43 42 43 43 39 37 35 32 34 31 30
28 29 31 33 31 26 22 22 23 23 25 26 27 29 31 33 35 37 37 38 41 43 45 48 51 53 54 55 55 55 51 47 45 46 48 45 38 37 33 31 31 30 29

GFSMW_700_spd_027.txt.gz
Wind_Speed
15 16 16 19 18 17 16 15 16 16 15 13 13 13 12 11 10 10 9 8 8 8 9 11 11 13 15 18 20 24 27 30 33 37 39 38 39 36 37 36 38 41 42
16 17 18 19 17 15 14 13 11 10 10 10 12 12 13 12 14 11 10 12 13 13 13 13 14 16 19 22 26 30 33 35 38 44 41 41 40 40 40 38 40 44 43
14 13 13 14 15 15 15 14 13 13 12 12 13 12 14 14 14 14 13 15 16 18 17 16 17 19 23 27 31 34 36 42 45 42 40 42 42 39 38 35 42 44 43
15 14 10 11 9 9 13 12 12 12 12 13 14 14 13 16 14 17 19 18 18 20 21 22 23 25 28 32 35 36 39 45 49 41 39 39 35 36 40 40 39 42 43
19 18 18 15 13 12 9 12 14 14 14 16 17 16 14 15 17 20 21 23 24 25 25 26 28 30 32 37 42 47 37 41 40 43 42 35 37 37 38 39 41 41 40
19 21 20 20 20 19 19 17 14 15 16 17 18 17 13 15 16 20 19 23 22 25 27 27 33 32 32 34 32 38 34 39 41 37 37 37 37 38 38 38 37 38 38
20 21 22 24 25 22 22 20 20 19 17 18 22 20 16 19 18 20 23 28 25 26 26 28 30 28 31 35 37 37 34 39 35 38 39 37 36 36 35 35 36 35 36
21 22 23 23 24 24 24 21 23 20 18 19 24 23 26 28 25 28 27 27 27 27 29 30 28 31 39 38 35 39 39 37 39 39 36 34 35 34 32 30 32 34 36
14 17 20 20 20 21 22 19 20 20 19 20 21 22 24 23 23 24 23 24 25 26 27 26 29 37 35 35 39 34 40 40 41 36 35 35 33 30 30 30 31 31 34
5 7 10 13 13 16 19 21 16 18 20 20 20 22 26 24 26 26 27 22 24 27 28 24 32 31 40 33 37 41 39 50 36 34 37 34 31 29 30 30 30 31 33
4 6 9 12 12 14 19 15 18 17 15 15 17 20 23 24 27 27 28 29 30 28 24 24 31 33 38 36 39 41 47 40 34 37 33 31 30 29 31 30 30 31 32
6 7 7 11 6 6 9 10 10 11 12 16 19 22 24 24 26 29 31 33 29 27 18 28 33 34 43 44 47 47 42 33 39 34 32 30 30 30 32 31 31 31 33
10 4 6 6 6 7 7 9 12 17 20 20 21 24 28 30 31 30 30 28 26 27 27 27 37 35 41 36 43 47 33 40 35 33 31 30 31 32 31 31 31 32 33
15 13 11 9 12 13 14 17 20 23 23 24 25 28 32 34 33 32 32 29 28 27 26 34 38 40 44 47 47 31 38 41 37 32 30 30 32 32 31 31 30 31 33
14 17 15 17 17 18 20 23 23 23 25 28 31 33 35 38 39 36 34 28 26 30 34 38 45 53 52 50 38 39 39 39 35 31 31 32 33 31 31 32 31 32 33
17 19 21 21 21 21 22 24 24 25 27 30 33 35 31 30 31 30 27 26 29 34 37 43 42 42 33 38 38 39 40 42 33 31 31 34 34 33 32 32 31 32 31
21 23 23 21 20 20 21 22 25 29 31 30 27 25 25 25 26 25 26 27 32 38 45 50 45 44 39 37 38 39 45 36 33 32 35 35 34 33 33 32 33 31 30
21 19 18 17 17 19 22 26 29 28 26 25 25 26 28 28 28 27 27 30 36 46 43 46 38 34 34 35 39 42 35 35 33 36 36 36 35 34 34 34 34 32 30
16 16 16 18 20 23 26 26 24 24 26 27 27 27 27 27 28 29 28 30 27 30 26 31 31 33 34 34 35 35 34 35 36 37 37 36 36 35 34 36 33 33 30
16 17 19 22 23 22 21 21 23 25 26 25 24 24 25 27 27 29 32 34 33 31 31 31 31 31 32 32 32 34 37 38 38 38 37 37 36 35 36 38 35 34 30
17 19 20 19 19 20 21 23 25 26 25 26 24 21 21 22 23 24 24 26 26 27 28 30 32 33 34 35 34 36 40 39 39 39 37 37 36 36 38 39 37 34 33
17 16 16 18 20 21 24 26 28 28 28 26 23 22 23 24 25 25 25 26 28 29 31 34 35 35 36 37 38 40 42 41 42 41 39 39 37 38 38 40 37 35 34
14 16 18 20 21 23 26 29 29 29 25 23 22 22 23 24 25 26 27 28 31 33 35 37 39 40 41 42 41 43 45 47 47 45 42 41 40 40 40 37 36 35 35
17 19 21 23 24 27 29 30 29 26 23 22 22 23 24 25 26 28 29 31 33 35 38 40 43 45 47 49 51 52 52 51 50 50 48 46 44 44 42 38 36 36 33
20 22 25 25 27 29 30 29 26 23 22 22 22 23 24 25 27 29 31 33 35 39 42 45 47 50 52 53 55 56 56 56 55 53 49 49 47 43 42 40 39 36 32
23 25 27 28 30 31 29 24 22 22 22 22 23 24 26 28 29 30 31 34 38 40 43 46 49 52 54 55 57 57 57 55 52 50 49 48 47 47 44 43 44 38 33

GFSMW_700_spd_030.txt.gz
Wind_Speed
15 17 18 19 18 19 19 18 18 18 19 19 18 19 18 18 17 15 14 14 14 14 11 10 11 11 11 13 16 19 23 26 30 35 38 41 38 35 33 34 34 34 34
16 18 20 20 20 18 17 18 17 17 17 16 16 15 15 16 16 17 16 16 16 17 16 16 15 15 16 18 21 24 27 30 34 36 37 40 42 39 35 31 32 33 36
16 17 20 19 18 17 17 17 18 18 17 17 17 17 18 18 19 20 19 17 16 19 21 21 21 21 21 22 24 26 30 34 39 42 33 35 33 39 41 34 33 35 36
16 16 15 17 16 16 17 17 17 17 17 18 18 18 18 18 18 19 21 19 23 22 23 25 26 27 27 26 27 28 28 30 36 35 30 31 30 29 31 39 40 36 36
19 20 19 19 17 17 17 17 18 18 18 18 18 18 19 20 23 22 24 25 25 28 28 29 30 29 29 28 28 28 33 30 31 34 35 29 31 30 30 31 33 41 41
22 22 21 21 21 21 20 19 20 21 21 20 19 19 20 24 23 22 23 26 24 26 27 26 28 31 31 31 35 31 37 28 40 37 36 31 33 32 33 34 35 37 37
27 27 27 27 26 26 26 24 22 20 19 19 18 18 21 21 24 23 24 23 25 28 29 30 29 28 29 30 32 36 38 36 36 35 33 38 37 32 33 35 35 34 34
23 27 29 30 30 30 27 27 24 25 24 21 19 21 23 24 27 28 27 29 27 29 32 36 32 27 30 33 35 36 33 36 36 37 37 43 37 34 36 33 31 31 29
20 25 27 30 31 33 31 28 27 26 23 21 22 23 27 26 25 23 25 32 38 30 33 34 31 35 32 34 39 34 34 37 40 37 41 39 33 35 33 30 29 28 30
10 12 19 25 26 29 29 27 27 25 23 25 25 25 25 27 26 30 33 28 29 31 33 35 35 35 33 38 37 33 38 38 44 40 37 34 33 33 31 29 29 30 31
3 4 9 15 20 24 24 24 28 28 29 26 27 28 28 25 29 28 27 29 30 34 38 39 38 31 27 29 34 36 36 41 43 33 33 32 33 32 30 28 29 30 30
8 8 7 9 18 20 21 20 22 24 26 24 22 22 25 26 27 27 29 31 32 34 34 30 28 24 31 35 37 39 43 44 34 35 36 33 34 33 28 29 31 31 29
10 11 10 8 11 9 10 13 15 17 19 20 21 23 26 28 29 30 32 33 35 34 33 32 33 30 34 36 41 48 47 40 33 35 36 36 33 31 28 30 30 27 28
16 13 14 14 12 12 13 15 17 19 20 23 25 27 29 31 34 35 36 38 38 36 34 33 35 36 37 44 40 43 32 34 35 36 36 35 32 30 30 31 29 30 30
18 16 18 18 18 17 19 20 22 21 22 24 26 28 31 33 34 36 36 35 36 37 34 30 36 40 37 41 47 41 37 35 36 36 39 37 32 30 33 35 35 35 33
19 17 17 21 20 22 23 24 23 25 25 25 28 31 34 36 35 32 32 33 34 32 32 33 37 41 46 44 35 32 35 36 37 39 38 34 34 32 35 37 38 37 38
16 19 21 23 23 22 20 20 20 21 24 28 31 33 31 29 30 31 32 32 32 30 31 34 34 35 35 28 30 32 36 38 38 37 34 34 34 38 38 39 38 39 39
20 22 22 21 19 18 18 19 21 25 28 29 28 27 28 30 31 33 33 34 35 32 34 36 34 32 29 29 30 34 37 38 37 37 36 37 38 39 40 38 40 40 40
24 22 20 19 18 18 20 22 25 25 25 24 25 26 27 28 29 30 31 31 32 31 33 34 30 29 30 29 30 33 38 38 37 38 39 40 41 39 40 39 40 40 41
21 20 18 17 18 19 21 22 22 22 22 23 24 24 25 25 25 25 25 25 24 24 25 25 26 28 29 30 31 35 38 40 40 41 42 42 41 40 41 40 40 41 40
20 18 17 18 19 21 21 20 20 21 22 23 23 23 22 22 21 21 22 22 23 24 24 25 26 28 30 32 34 36 40 43 46 47 47 46 45 43 42 41 42 42 36
19 18 18 19 19 19 19 19 21 23 24 23 23 22 22 22 22 23 24 24 24 25 26 28 29 31 33 36 39 41 45 48 51 52 53 52 50 49 46 45 44 41 36
18 19 19 18 18 18 19 21 23 24 24 23 22 22 22 22 22 22 23 24 26 27 29 30 33 36 37 40 43 44 47 49 52 54 56 56 55 53 51 49 46 41 40
19 19 18 18 19 21 22 23 26 25 25 23 23 22 22 22 23 23 24 27 28 30 31 34 36 39 41 44 47 51 54 56 57 57 56 55 52 49 49 48 47 45 43
21 20 20 21 22 24 26 29 28 26 24 23 23 22 22 23 24 26 27 29 30 31 33 36 38 41 45 49 53 57 59 59 58 55 52 50 47 44 42 38 42 40 42
23 23 24 25 26 27 29 31 30 25 23 23 23 22 22 24 26 28 31 29 31 34 36 38 41 44 49 53 56 58 56 53 51 49 46 43 41 38 34 33 34 39 44

GFSMW_700_spd_033.txt.gz
Wind_Speed
10 12 15 14 14 14 14 16 18 18 19 19 20 19 20 20 19 16 18 18 18 17 16 15 14 15 15 17 16 17 19 21 24 28 35 41 42 36 32 31 30 31 30
15 16 17 16 16 16 16 17 18 18 17 17 17 18 19 20 18 19 20 18 18 18 20 19 17 19 21 20 20 22 23 26 25 28 33 34 34 39 38 31 30 29 28
18 17 20 18 17 17 16 16 16 16 16 16 18 19 21 23 22 20 20 20 18 17 20 24 23 25 26 24 25 26 27 29 30 32 34 27 22 29 36 39 30 31 30
19 19 19 20 19 18 18 18 19 18 18 18 19 19 19 19 18 19 19 21 24 23 25 25 25 29 30 31 31 32 32 31 35 39 34 26 33 26 27 35 41 39 36
22 22 17 16 16 17 18 19 20 20 20 21 21 20 20 21 22 23 22 24 25 26 28 29 30 32 32 35 35 36 34 36 36 36 31 38 31 29 28 30 27 36 40
22 24 23 21 20 20 21 22 22 21 22 22 21 21 20 21 24 27 22 25 27 28 30 31 34 34 34 35 37 36 39 42 37 34 38 31 31 33 36 35 30 31 34
25 25 26 27 26 26 25 24 24 23 24 24 22 20 21 23 25 28 30 25 30 29 34 38 37 34 34 37 39 40 35 39 31 36 32 30 31 34 35 31 32 36 36
25 28 29 30 29 30 29 27 25 24 24 25 23 24 23 25 26 25 29 27 35 37 32 36 45 35 32 44 44 37 38 32 32 29 40 34 39 39 35 30 33 35 37
19 26 29 30 31 30 33 34 30 29 29 29 30 32 26 26 28 27 29 27 25 46 48 35 30 32 35 38 39 41 31 33 39 38 39 37 36 32 31 32 33 36 37
10 16 22 27 30 31 32 36 35 33 31 29 34 26 25 26 28 28 26 27 34 32 31 32 32 35 39 41 38 37 27 29 33 39 43 38 33 33 34 33 35 37 36
4 6 10 12 21 27 29 32 32 31 34 33 34 31 27 30 28 28 29 31 32 32 32 34 36 38 37 34 32 33 36 34 38 44 43 33 31 33 33 34 36 35 33
9 10 10 10 13 19 21 22 22 24 30 34 33 31 28 29 27 28 29 30 31 32 33 37 38 37 39 38 31 39 34 36 39 41 33 30 33 34 35 36 34 33 31
12 13 14 15 16 18 18 20 22 20 21 26 29 29 27 25 26 29 31 33 35 37 39 39 40 37 37 35 38 37 42 40 46 33 30 32 35 37 37 35 33 34 32
18 13 15 16 19 19 17 16 16 19 22 21 22 23 24 25 29 31 34 36 36 37 39 40 39 39 37 37 38 38 45 44 29 32 33 35 35 36 36 35 32 35 35
19 21 21 20 22 23 21 21 20 22 22 22 22 25 28 30 31 34 36 38 39 35 34 31 32 33 33 36 38 36 39 35 32 35 35 36 37 38 36 34 34 34 37
15 19 23 22 24 27 28 26 26 24 24 27 29 30 31 31 33 36 37 35 34 34 33 31 31 33 32 33 35 38 36 35 35 36 37 38 38 37 36 35 35 37 40
22 19 21 24 25 28 29 30 28 28 27 27 27 28 31 33 34 33 33 34 35 36 36 35 36 34 37 36 37 36 36 36 38 38 38 39 38 37 37 39 43 43 40
25 24 21 21 24 25 25 24 22 22 22 24 27 30 32 31 31 32 33 34 34 34 34 33 33 34 33 35 33 33 34 38 38 38 40 40 41 41 41 44 45 46 48
29 28 26 23 23 23 22 21 21 22 25 27 28 28 28 29 30 30 31 31 31 31 30 30 29 29 29 31 30 33 36 38 38 38 39 41 42 42 43 45 49 49 49
28 27 27 25 23 22 21 22 23 24 25 26 26 26 27 26 27 27 28 28 28 27 26 26 27 27 27 30 31 32 35 37 39 41 42 44 46 48 49 49 49 51 48
25 26 26 24 22 21 22 22 23 24 24 23 24 24 25 25 26 26 26 26 26 26 26 26 27 28 28 32 32 32 35 39 42 45 47 48 51 54 54 54 54 53 49
24 26 25 23 22 22 23 24 24 23 23 23 23 24 24 23 24 25 26 26 26 26 27 27 27 28 29 34 36 36 36 39 44 48 51 54 56 56 56 56 55 53 49
26 26 25 24 23 24 25 24 23 23 23 24 24 24 23 23 24 24 25 25 25 26 27 28 29 30 31 34 38 38 40 44 48 52 55 55 55 53 51 49 49 48 47
27 27 26 26 26 26 26 25 24 24 26 26 24 24 24 24 24 24 24 25 25 27 29 29 30 32 34 37 39 42 45 50 54 57 56 54 49 46 44 41 38 35 37
30 28 28 27 27 28 27 27 27 28 28 27 25 25 25 25 24 23 25 27 27 28 30 31 33 34 36 39 42 47 50 54 57 57 54 50 47 44 42 39 36 28 25
31 30 28 29 30 30 31 31 31 31 30 28 27 25 25 25 24 26 26 27 29 30 30 32 34 36 39 43 46 49 52 54 53 50 48 45 44 42 40 38 36 31 27

GFSMW_700_spd_036.txt.gz
Wind_Speed
7 5 11 13 13 13 13 12 11 13 15 17 18 22 22 20 20 19 17 20 19 15 15 16 13 15 17 18 19 20 19 22 23 23 26 30 33 32 31 28 32 29 27
11 6 10 11 13 11 13 13 12 13 14 15 17 18 18 18 18 17 16 19 17 13 15 17 17 18 22 24 23 21 24 27 26 28 29 27 32 33 33 34 32 29 29
12 12 12 10 10 12 12 12 12 13 14 16 17 19 19 21 21 18 16 17 16 17 16 18 22 21 24 29 28 27 29 31 33 31 32 31 31 35 35 36 34 31 28
17 11 17 16 13 13 13 13 13 12 13 14 17 16 17 18 16 14 15 18 19 21 23 23 22 23 26 31 32 32 32 35 38 38 36 36 37 40 34 36 35 37 38
21 19 14 16 14 14 14 15 15 15 16 17 17 20 18 17 18 20 18 19 19 22 23 26 27 28 32 32 39 36 36 37 38 40 42 42 41 31 30 29 29 38 39
20 22 19 16 20 19 19 19 18 18 19 18 19 19 18 20 22 22 24 22 22 24 26 30 28 30 32 34 34 38 36 38 40 49 48 48 38 32 32 33 36 32 32
24 25 24 23 22 23 22 22 23 22 22 22 22 22 22 24 25 27 28 24 22 23 22 29 32 38 49 40 36 28 35 43 40 44 43 38 33 32 31 33 37 34 31
17 21 26 29 27 23 24 23 23 23 24 25 26 23 25 27 28 32 33 27 24 22 20 30 33 33 28 29 30 32 33 36 37 41 35 28 31 34 31 35 37 33 31
21 24 25 28 31 31 29 28 27 26 26 27 25 25 31 31 36 32 30 30 24 23 27 31 29 31 28 29 32 34 33 30 31 31 32 30 26 32 38 33 32 33 34
14 16 23 24 31 33 34 36 35 29 31 33 34 33 35 36 40 29 28 29 25 28 28 30 32 31 30 30 32 31 34 42 34 38 40 33 37 33 31 32 31 33 36
9 13 19 26 26 31 35 39 34 25 32 37 38 37 34 34 33 23 22 23 26 28 29 31 32 34 34 34 35 33 36 35 35 44 36 37 35 36 33 32 32 34 34
9 10 10 9 11 22 32 31 34 34 38 32 35 33 33 32 28 22 22 23 27 28 30 34 35 35 36 36 37 34 35 45 40 38 40 39 34 32 36 36 36 34 35
11 13 16 14 14 16 18 28 37 40 33 26 30 29 32 28 25 23 23 25 27 29 33 36 37 37 39 39 36 39 35 36 36 36 41 36 35 36 36 36 35 36 38
15 14 16 17 15 17 20 23 24 23 23 23 27 26 24 22 24 24 26 29 31 33 35 36 38 37 34 31 35 33 34 32 33 36 37 40 38 37 36 36 36 36 38
16 14 17 23 21 18 20 23 23 21 18 20 23 23 20 23 26 29 31 33 33 35 37 35 33 35 30 32 32 36 38 37 39 39 39 38 36 36 35 35 35 35 36
19 18 17 24 25 24 25 26 25 23 24 24 23 24 26 30 31 34 33 35 36 34 32 33 33 34 32 32 36 35 37 36 37 38 36 34 33 33 35 35 35 36 38
24 24 23 23 25 26 26 25 29 30 28 27 28 30 33 32 30 32 35 36 35 34 33 33 33 34 33 32 32 33 33 34 35 33 33 33 33 33 35 37 39 41 42
26 26 30 28 25 23 24 25 29 30 30 32 27 25 26 29 31 32 31 31 32 33 33 32 32 32 31 31 30 31 33 33 33 33 33 35 37 37 39 42 45 46 47
30 26 27 29 27 23 22 24 26 27 25 25 25 26 28 30 30 28 29 29 29 30 30 30 30 30 31 30 30 30 31 32 32 32 34 36 37 40 43 47 51 54 55
25 27 28 30 28 25 25 25 25 25 24 25 26 29 29 28 26 27 28 28 28 29 29 28 28 28 31 31 29 30 32 31 32 34 36 37 41 45 49 53 56 60 59
24 25 26 27 27 26 26 25 24 24 25 27 27 27 27 25 26 27 28 28 29 28 28 28 28 29 31 31 29 29 31 33 36 38 40 43 46 50 53 54 55 56 56
26 25 25 26 27 27 27 26 25 26 26 26 26 26 26 26 27 28 29 30 28 29 28 27 27 30 31 32 31 30 32 35 38 41 43 47 50 53 54 53 51 49 48
25 25 25 26 28 28 28 27 27 27 27 27 27 26 27 29 29 29 29 29 28 28 27 27 27 29 31 33 32 33 35 37 40 44 47 49 52 52 50 47 45 43 42
26 26 27 29 30 30 30 29 28 28 29 29 29 29 29 29 30 29 30 28 28 27 27 26 27 29 31 31 33 35 36 39 43 45 47 50 51 50 47 44 41 40 40
27 28 29 32 32 33 31 29 31 32 32 32 32 31 30 29 30 29 29 27 26 27 27 27 29 29 31 34 36 37 38 42 45 46 49 50 50 49 45 43 42 40 39
29 31 34 35 35 34 34 34 35 36 35 35 34 32 31 31 31 29 29 26 25 25 27 28 30 32 32 36 38 39 41 44 46 47 49 50 49 47 44 43 42 40 38

GFSMW_700_spd_039.txt.gz
Wind_Speed
3 4 8 10 11 12 12 15 18 19 22 24 27 30 33 35 32 27 23 22 20 19 18 17 13 10 12 12 14 16 18 18 22 26 28 30 29 30 33 31 26 23 26
3 6 9 9 9 8 11 12 14 16 17 21 23 27 27 23 22 22 22 20 17 17 18 18 14 12 14 16 18 20 21 23 27 29 31 32 34 35 33 32 30 31 29
5 9 11 8 8 8 8 9 12 15 16 19 21 22 20 21 22 23 19 19 18 16 17 18 17 15 18 19 22 23 26 28 32 34 33 35 38 40 37 34 35 29 30
8 9 13 13 10 11 11 11 11 13 16 17 18 19 18 18 18 19 19 18 19 19 19 20 18 18 20 23 24 27 34 30 37 39 41 38 39 43 44 44 39 31 32
11 8 12 14 13 15 12 10 10 10 12 13 14 14 14 16 18 19 18 21 20 19 19 20 22 23 22 26 30 34 31 26 35 40 39 34 38 45 51 48 35 30 32
16 12 11 15 16 17 17 17 17 17 16 15 15 15 13 16 18 18 17 18 19 19 22 22 24 25 24 25 29 35 30 29 26 26 30 38 41 42 40 40 30 30 33
22 18 16 19 19 19 20 21 20 19 19 20 20 17 14 16 16 20 23 23 22 25 26 20 22 22 27 28 30 28 25 24 28 28 32 30 33 34 31 27 28 35 36
27 24 14 17 19 22 22 22 22 22 21 20 19 21 21 20 20 21 26 27 28 26 22 25 24 22 20 23 27 27 27 28 28 30 30 29 29 29 35 35 34 33 38
25 27 26 21 14 20 21 22 25 25 25 25 25 24 24 25 27 27 29 28 24 29 28 19 23 23 25 26 27 28 29 31 30 34 35 33 33 38 30 33 35 37 38
19 24 31 24 23 21 20 25 26 25 25 27 29 31 27 30 32 34 32 31 29 22 20 20 24 28 27 27 29 30 32 34 31 36 36 34 35 32 34 34 37 35 37
12 14 24 30 29 32 31 33 31 35 26 37 31 33 33 36 38 38 37 34 28 18 18 22 25 25 28 31 32 34 35 36 36 32 35 35 40 37 32 40 37 33 34
23 23 20 25 28 25 25 38 40 41 36 27 22 28 34 33 36 28 30 27 11 16 19 22 25 27 31 33 36 38 37 31 34 40 37 31 32 34 39 36 35 33 33
21 22 19 16 16 19 28 34 31 30 31 30 25 21 23 25 20 17 22 20 16 17 23 25 28 30 33 35 37 34 33 30 35 33 30 31 30 37 37 36 35 34 34
23 22 23 21 20 18 20 23 28 28 24 22 23 23 26 23 20 17 20 20 21 24 28 30 31 34 34 32 31 32 28 33 27 34 34 37 38 38 36 34 33 33 35
23 23 23 22 19 17 20 21 24 28 29 29 26 20 19 18 18 19 20 22 26 30 31 33 36 33 30 30 31 27 30 31 34 32 33 32 34 34 33 35 34 34 35
22 27 24 23 25 25 22 24 23 23 25 23 22 23 21 20 22 23 26 30 31 30 33 34 31 30 30 30 30 31 29 31 30 32 31 30 30 30 33 32 34 35 38
32 30 31 27 28 30 22 24 25 23 25 29 30 26 24 25 27 30 30 27 30 33 32 30 29 29 30 30 30 30 29 30 29 29 29 29 30 32 34 33 34 36 38
27 26 27 28 29 30 29 24 25 28 27 30 30 28 29 30 30 27 29 32 32 29 28 29 30 31 30 30 29 29 28 28 27 28 29 31 32 33 36 37 39 42 44
26 27 28 32 32 30 30 26 24 25 26 28 29 30 29 26 28 30 31 31 29 28 29 30 31 31 30 28 27 27 28 28 29 30 31 32 33 35 37 42 46 50 50
26 28 30 29 28 29 29 28 25 24 25 26 26 25 26 26 28 30 29 28 28 29 30 31 32 31 30 29 27 28 29 30 30 30 30 31 34 36 40 45 49 52 54
28 31 27 26 26 28 28 29 26 26 26 26 26 25 26 28 29 28 28 28 29 30 30 31 32 31 31 30 29 29 29 30 30 30 31 33 37 40 45 48 50 53 55
28 25 24 26 28 27 26 27 27 27 27 25 25 27 28 29 29 29 30 30 31 31 31 33 33 33 32 29 29 29 30 30 31 33 35 38 40 44 47 48 50 52 52
25 25 26 27 27 25 25 28 28 27 26 27 27 29 30 30 30 31 32 32 31 31 32 34 34 34 31 30 29 29 29 31 33 36 38 41 44 46 47 48 49 50 49
25 24 29 28 28 27 27 29 29 30 30 30 31 32 32 33 32 32 31 31 33 34 33 33 34 33 30 29 29 30 31 33 35 38 40 43 45 46 47 47 48 47 47
25 26 28 28 29 29 30 31 33 33 34 34 34 34 35 36 35 34 33 34 35 34 33 31 30 29 28 29 30 31 33 35 38 40 42 44 45 46 46 47 47 47 46
25 27 28 30 31 33 34 36 37 38 38 37 37 38 39 39 37 36 37 37 35 32 30 28 25 26 27 30 33 33 35 38 40 42 43 45 46 47 47 47 47 46 45

GFSMW_700_spd_042.txt.gz
Wind_Speed
4 5 5 5 4 8 11 10 11 16 22 26 30 31 26 28 32 36 40 42 35 35 26 21 18 12 11 13 12 12 12 12 15 21 24 28 30 30 31 33 35 37 34
6 7 8 7 4 4 9 10 14 15 18 24 27 26 26 28 31 32 37 35 35 29 25 23 16 15 15 14 15 14 14 17 21 27 29 31 34 34 35 34 37 39 39
5 10 9 8 7 8 8 11 12 13 17 22 27 29 29 30 29 29 28 31 29 25 24 22 21 18 18 17 16 15 18 22 25 29 31 36 38 38 38 39 37 40 44
7 11 14 12 10 11 12 12 14 16 17 18 20 22 23 21 20 21 24 24 23 21 20 23 23 20 20 18 17 18 21 20 30 32 25 35 36 37 39 35 36 40 41
9 7 11 14 13 15 13 13 14 17 17 18 17 17 19 22 22 23 22 22 23 23 22 24 25 26 24 22 22 21 21 23 27 17 19 25 28 26 30 30 29 38 32
9 7 8 13 16 18 18 18 18 18 18 19 18 17 17 20 24 24 22 22 23 25 27 27 27 29 27 25 22 22 25 23 25 23 23 25 26 32 28 31 26 30 25
16 14 15 19 20 21 20 18 17 16 16 16 16 16 16 19 21 20 20 23 25 24 25 27 29 24 25 24 23 22 24 27 26 25 27 27 32 29 34 32 34 33 30
12 13 17 18 19 21 22 21 21 18 18 18 18 19 20 22 23 23 24 26 25 25 24 29 22 23 24 20 19 21 23 26 27 28 30 32 27 37 37 33 36 36 31
17 16 17 14 17 20 22 23 23 22 23 23 22 23 23 24 26 26 28 28 28 27 28 28 25 30 28 24 22 24 27 29 30 32 32 33 31 34 32 31 39 38 40
20 21 22 22 19 17 15 20 21 21 21 24 29 29 28 29 30 32 32 32 34 31 28 22 24 22 24 18 23 28 31 33 34 35 34 35 33 36 38 39 42 39 45
21 21 23 24 24 25 25 23 24 30 33 32 27 24 30 29 32 36 36 38 39 42 14 19 21 20 25 24 28 32 34 37 35 37 35 39 40 36 33 32 35 39 40
21 20 18 22 26 32 32 31 33 33 33 33 34 31 25 30 36 38 42 21 46 40 6 12 15 17 22 25 29 33 37 35 37 44 40 40 35 42 31 37 38 40 42
21 21 17 20 24 22 28 33 32 30 26 32 35 40 27 28 31 19 17 25 19 39 12 14 15 18 23 29 33 35 36 37 38 35 34 35 36 37 33 38 42 40 40
20 21 20 21 20 19 20 23 25 22 24 28 28 28 28 18 16 17 19 23 17 17 20 21 21 24 29 31 33 33 32 33 33 31 34 36 37 40 36 36 37 40 41
23 28 27 25 25 22 21 21 23 24 22 24 24 23 23 21 17 16 19 18 18 19 22 25 27 29 31 32 31 31 31 32 34 31 34 31 39 32 37 38 38 37 35
29 28 31 29 31 29 26 27 23 24 25 23 23 26 25 23 20 21 20 20 22 24 26 27 28 30 32 32 31 31 32 30 29 30 29 34 32 38 35 33 34 35 35
27 30 33 31 31 32 28 24 25 25 26 25 24 25 27 27 25 23 24 25 25 28 27 30 32 33 31 30 29 28 27 28 28 28 33 32 33 33 32 31 32 33 35
33 29 30 31 31 29 29 32 30 27 27 26 28 27 27 28 28 29 28 28 25 27 29 30 30 29 29 27 27 28 28 29 29 30 32 32 33 33 34 33 34 34 35
25 26 31 30 29 28 28 33 28 27 27 28 29 30 30 30 31 28 24 25 27 28 30 29 28 28 28 27 27 29 29 29 30 32 32 33 33 34 35 36 38 39 41
26 23 30 32 27 29 29 27 26 27 28 28 29 28 27 28 27 25 26 28 30 30 30 29 29 29 28 28 28 29 30 30 31 32 32 33 34 35 36 38 41 43 47
21 24 27 25 25 26 26 26 28 29 31 31 30 28 27 26 26 28 29 31 32 31 31 31 30 30 30 30 29 30 30 31 31 31 31 33 34 35 38 40 43 47 50
18 18 21 23 26 26 25 29 31 30 29 29 29 28 27 28 29 30 31 32 31 32 32 33 33 33 33 32 32 32 32 32 31 30 32 34 36 38 40 43 46 48 50
15 18 21 23 26 26 27 29 29 27 26 28 29 29 30 30 31 32 32 31 32 33 34 34 35 36 35 36 35 35 33 32 31 32 34 36 38 40 42 45 47 49 50
22 22 22 24 26 26 27 29 28 27 28 30 32 33 33 33 33 33 33 34 35 36 35 36 37 37 37 36 34 33 33 30 32 35 38 39 40 42 45 47 48 49 50
20 22 23 25 27 27 27 28 29 29 32 34 35 35 36 36 37 37 37 37 37 37 37 38 38 37 35 32 33 30 33 35 35 37 39 41 43 45 46 47 48 48 48
22 23 24 26 27 28 28 29 30 32 35 37 39 40 41 40 40 40 40 40 39 39 38 35 32 31 30 30 33 38 36 37 37 39 42 43 46 47 48 48 48 47 48

GFSMW_700_spd_045.txt.gz
Wind_Speed
5 5 5 5 7 7 3 5 17 23 23 23 19 23 28 35 45 43 44 38 36 38 32 31 30 22 18 15 14 13 13 14 16 18 21 22 24 26 28 30 30 29 30
6 4 3 3 4 4 5 5 7 11 21 22 24 24 30 30 36 45 45 39 40 39 37 33 32 25 20 16 15 14 14 16 16 20 24 27 27 29 32 34 33 32 34
6 6 6 4 2 1 3 6 7 9 12 21 26 28 29 30 35 35 36 38 33 38 37 35 30 25 20 19 17 17 18 17 18 18 24 28 30 26 23 24 24 24 28
9 7 9 5 4 4 3 4 6 11 15 19 22 23 22 22 26 28 30 35 39 40 37 35 30 27 24 21 20 21 21 19 17 23 23 22 22 24 25 24 25 30 33
9 7 5 8 9 9 7 7 7 9 10 14 18 17 18 18 22 25 26 29 30 33 33 31 32 29 27 24 26 26 23 22 23 22 23 24 23 26 29 28 29 25 28
13 11 9 12 15 14 13 12 10 10 10 10 11 11 13 15 17 18 20 22 22 25 27 30 28 28 27 29 30 29 27 27 26 25 28 27 26 26 29 32 28 34 34
14 15 17 14 17 19 16 15 14 12 11 12 13 13 14 17 17 19 19 20 20 24 27 28 30 32 31 34 36 34 30 26 27 26 30 30 29 30 30 35 36 43 39
19 16 15 16 17 18 20 19 18 17 17 16 16 17 18 18 18 21 24 27 29 29 30 32 33 34 38 43 36 32 29 27 23 29 31 31 30 35 31 39 38 43 40
21 15 10 16 18 20 18 20 21 21 21 20 20 20 21 22 23 26 30 30 30 28 30 33 35 32 45 31 27 28 25 23 28 30 33 36 31 34 31 38 41 45 47
17 15 14 15 14 14 18 19 20 22 22 25 27 28 28 26 25 29 31 32 33 33 34 37 38 38 42 27 19 26 27 28 31 35 37 36 35 38 33 49 44 44 44
17 17 15 15 17 20 22 21 21 20 24 26 27 28 22 26 31 29 38 37 37 35 35 42 40 38 25 19 27 31 32 34 36 37 37 36 42 39 43 45 48 45 43
22 22 16 15 17 21 26 28 27 27 26 27 28 30 30 32 21 31 31 35 36 35 23 29 36 12 17 26 25 29 32 35 38 36 37 42 42 48 48 47 47 45 43
19 21 20 19 17 16 20 24 26 27 28 28 28 31 30 30 29 28 19 24 16 21 19 16 12 17 24 26 27 30 33 37 37 38 40 41 47 49 46 43 46 47 46
22 19 19 17 16 16 18 17 17 16 19 24 27 28 28 26 26 26 20 24 22 22 19 21 19 19 24 27 29 32 34 37 37 38 42 42 46 48 41 45 44 44 44
22 24 25 23 20 22 19 21 16 13 19 23 25 22 23 24 23 22 23 20 20 20 22 22 23 24 27 30 33 35 35 36 38 39 40 41 45 39 44 38 43 42 39
25 28 24 26 24 25 23 23 23 21 18 22 26 25 22 23 22 22 22 22 22 23 24 25 26 28 31 33 33 35 36 36 35 35 39 39 36 42 40 39 39 39 43
31 29 28 32 29 28 25 26 27 27 27 28 25 24 25 25 27 26 27 26 25 27 28 29 31 30 29 32 33 34 33 33 35 35 35 36 39 38 37 41 38 40 41
28 28 34 26 29 30 30 29 29 30 32 31 26 24 24 26 26 28 30 29 30 31 32 33 29 29 31 32 33 32 32 33 33 33 35 37 38 37 38 39 39 38 38
29 32 30 27 29 31 30 32 30 28 33 31 26 26 25 26 29 30 31 33 34 34 32 28 29 31 32 31 31 31 32 33 34 35 36 37 38 38 37 38 37 37 38
23 23 24 28 27 28 29 30 30 35 32 26 25 25 26 26 28 29 32 34 34 30 28 28 30 30 30 30 31 32 33 34 34 35 37 38 38 38 38 37 37 38 39
31 27 26 30 29 28 28 29 33 32 28 27 27 28 30 31 28 27 28 27 27 28 28 28 29 30 30 31 32 32 33 33 35 36 37 37 37 37 36 36 38 41 42
30 26 29 28 25 26 29 30 29 26 26 29 31 31 31 29 27 26 26 27 29 29 29 29 30 31 31 32 33 33 34 35 36 37 37 37 35 35 35 38 41 43 45
24 24 23 21 23 24 24 26 26 26 28 31 32 31 29 28 28 29 31 32 32 32 32 33 33 34 34 34 34 35 35 35 35 36 36 34 34 38 42 43 43 44 46
19 18 18 18 19 19 22 24 26 28 30 31 31 30 29 30 32 33 34 35 35 35 36 36 36 36 37 37 37 36 36 35 35 33 35 42 44 40 41 42 45 46 48
16 17 19 18 19 20 21 24 27 29 31 31 31 31 32 34 35 37 37 38 39 38 39 38 38 38 38 38 37 36 34 34 41 44 42 43 42 42 43 47 49 49 49
23 21 21 20 22 22 23 25 27 30 30 30 30 32 35 37 38 39 40 41 41 42 41 40 41 41 42 39 34 34 41 46 44 43 44 45 46 47 49 50 51 50 50

GFSMW_700_spd_048.txt.gz
Wind_Speed
7 6 5 6 7 7 4 12 26 19 22 24 22 21 30 35 38 42 43 41 38 34 29 28 27 26 23 18 17 17 16 17 14 14 14 16 19 23 24 23 22 22 23
6 5 4 5 6 6 6 4 18 23 21 24 24 23 30 29 39 39 42 43 40 35 35 36 29 28 27 22 19 20 16 16 16 15 17 17 19 19 22 23 20 24 21
9 6 4 2 4 5 4 3 4 16 26 23 27 18 29 31 34 39 42 40 40 41 36 26 31 34 29 25 22 21 18 18 18 17 20 21 22 23 18 19 21 23 21
9 9 7 3 1 1 4 5 5 4 10 20 27 24 26 28 30 30 34 41 38 39 36 35 39 37 32 28 24 23 23 22 21 21 20 20 22 25 26 20 21 23 26
11 10 7 7 7 5 3 1 5 7 7 10 12 14 14 19 26 27 31 37 35 33 36 35 37 37 34 31 29 28 27 27 26 25 24 27 27 27 26 26 27 27 26
12 11 12 13 13 10 7 5 4 5 7 10 12 12 12 14 17 18 20 24 29 32 33 35 35 34 35 31 32 31 33 33 32 30 30 27 29 31 32 29 28 30 32
15 16 14 11 13 14 12 10 8 8 9 9 10 11 12 14 15 17 18 20 22 25 25 30 30 31 32 34 34 34 36 37 40 35 34 31 30 32 31 35 32 35 34
13 17 17 15 10 10 12 13 12 12 11 11 11 12 14 16 17 17 18 20 21 22 25 29 30 32 35 37 39 41 43 39 43 39 40 30 30 33 34 33 38 39 37
18 17 18 17 17 14 10 9 14 15 15 14 14 14 15 16 17 19 22 23 25 26 29 31 33 36 38 41 45 48 50 47 51 35 23 31 32 34 34 38 40 37 43
16 20 19 16 17 16 15 14 13 13 17 20 20 20 20 22 23 25 26 27 29 31 33 35 37 39 44 46 47 50 47 36 22 27 31 36 34 37 39 39 39 47 40
14 17 16 16 15 17 15 14 15 16 15 18 20 22 23 25 29 31 29 34 34 37 37 37 40 47 46 48 43 43 32 19 27 34 36 37 39 41 37 39 40 50 40
16 16 16 17 17 17 18 19 20 22 21 22 23 23 23 30 31 30 34 18 27 26 41 40 49 50 41 36 46 20 24 27 33 35 37 38 40 43 36 41 40 46 47
20 23 25 23 20 21 19 19 22 24 24 25 28 27 27 27 27 26 33 22 25 17 12 22 17 22 27 22 23 29 32 32 32 35 40 42 40 36 41 44 49 52 54
21 24 22 22 21 19 16 14 10 12 18 19 21 24 26 25 25 24 26 33 27 24 25 23 25 25 21 22 26 29 33 33 36 37 38 39 41 41 45 47 52 51 51
22 21 23 24 22 20 13 16 14 11 13 12 11 11 18 22 23 26 28 26 29 25 25 23 25 25 28 28 29 31 33 34 36 39 40 41 43 44 46 48 47 49 43
21 26 24 23 25 25 22 18 18 17 15 18 20 19 22 22 25 24 26 26 25 25 24 23 24 26 27 29 32 35 36 37 39 41 42 43 43 44 41 44 44 40 49
25 29 26 24 27 28 25 24 19 20 21 21 23 26 28 27 25 26 26 27 27 26 25 27 28 29 29 32 35 37 38 40 41 40 42 42 41 42 42 42 42 47 46
27 27 29 32 32 31 30 24 22 22 24 25 27 28 31 30 25 25 27 27 28 29 31 31 32 31 33 35 36 37 37 38 39 40 40 40 42 40 43 46 45 44 45
25 27 25 24 27 27 29 26 27 28 29 29 28 26 30 29 27 26 27 30 31 34 35 35 35 35 36 35 35 36 36 38 38 39 40 41 42 43 46 45 41 46 46
23 20 19 25 28 30 30 30 29 31 30 30 29 29 32 29 28 28 29 31 33 35 36 37 38 37 35 36 37 36 36 38 38 39 40 42 45 47 45 45 47 46 43
33 24 23 24 25 26 30 31 31 28 27 28 31 32 32 30 29 31 33 33 33 34 35 36 36 34 36 36 36 36 37 38 40 41 43 45 45 46 47 46 45 42 42
36 30 25 28 31 34 34 33 30 26 27 30 32 34 33 32 32 32 31 29 30 32 34 34 35 36 36 37 37 37 38 39 41 42 44 45 46 46 46 44 44 47 47
28 28 33 33 35 36 33 24 24 26 28 33 34 34 32 31 30 29 27 30 32 32 34 36 37 37 37 38 39 40 41 42 42 43 44 45 45 44 44 48 49 50 52
21 24 24 18 15 14 16 20 24 28 31 32 33 33 31 31 30 29 31 32 33 34 36 36 37 38 39 40 41 41 41 42 43 43 43 43 46 51 53 53 53 52 51
21 20 17 19 18 21 24 26 28 28 27 29 31 31 31 30 28 28 29 31 33 34 36 37 38 39 39 40 40 41 42 42 42 44 47 49 49 48 50 49 49 51 50
26 26 23 21 22 25 27 26 25 24 27 28 29 29 28 27 27 28 30 31 33 34 36 38 40 41 41 40 42 44 44 43 43 44 44 43 45 47 47 49 50 48 48

GFSMW_700_spd_054.txt.gz
Wind_Speed
10 12 10 7 7 6 4 10 15 17 18 18 20 20 27 32 35 40 37 42 38 38 34 32 29 26 22 18 15 16 14 15 16 20 20 19 20 16 14 14 14 18 22
10 11 11 7 5 5 3 3 13 16 19 14 18 19 21 20 22 34 42 44 44 38 35 33 30 29 24 24 22 19 18 16 16 18 20 21 21 19 17 17 17 19 18
10 10 12 9 5 3 3 3 5 21 16 22 21 19 26 29 36 33 48 50 46 42 37 33 32 30 27 28 25 22 19 17 16 19 21 23 22 18 19 20 21 21 16
8 10 10 11 8 4 2 2 2 13 18 19 29 21 28 24 37 36 43 50 49 46 40 37 35 32 32 32 29 28 22 21 20 21 21 22 23 22 20 26 23 25 25
11 12 9 12 13 8 5 4 2 4 12 23 21 19 32 18 23 37 41 45 48 46 45 44 42 40 38 34 31 30 26 25 23 24 23 25 28 29 30 31 34 33 31
12 13 14 14 15 13 9 7 7 6 7 9 17 22 23 27 20 25 34 36 47 49 49 46 46 42 41 42 35 35 32 30 29 29 29 30 31 33 35 37 37 44 42
8 12 17 13 12 14 12 10 9 9 11 13 12 13 17 22 23 23 27 32 34 41 48 51 48 44 45 42 40 34 37 36 37 36 35 35 36 37 38 39 42 48 52
9 9 15 18 13 14 16 14 12 11 11 12 14 14 14 15 16 19 21 28 32 31 39 40 40 38 40 41 40 41 42 42 42 41 42 42 42 43 42 46 47 52 41
14 11 14 20 19 16 16 16 15 14 13 13 13 14 14 14 12 13 14 15 15 17 20 27 33 36 37 38 38 41 43 44 44 46 46 46 47 48 50 54 56 60 46
14 15 15 21 22 19 18 19 21 19 17 16 15 15 14 14 15 15 13 12 13 14 16 18 22 26 28 31 36 40 42 44 45 46 48 49 51 53 58 62 63 62 44
6 11 14 17 24 25 21 20 21 22 22 21 21 21 19 19 20 19 18 18 17 19 21 23 26 27 30 33 37 39 40 44 44 48 49 51 54 57 65 59 50 34 30
5 7 9 14 21 25 25 23 24 25 22 22 24 24 25 26 25 23 22 23 25 26 26 29 33 35 39 40 43 42 42 47 49 48 51 55 52 51 37 23 17 21 28
8 8 5 10 17 25 25 25 24 23 24 24 25 25 26 27 26 26 27 29 29 28 29 33 35 34 34 36 44 50 58 55 48 48 48 55 52 33 24 28 33 36 37
17 15 14 13 15 16 24 23 24 26 27 28 29 31 31 30 29 27 28 30 31 33 33 35 36 37 40 39 41 38 37 42 43 48 43 41 40 37 36 39 40 37 40
24 21 18 19 20 21 23 29 28 29 30 30 30 32 32 32 33 32 29 30 33 34 35 37 39 37 43 43 43 38 29 33 37 39 41 38 37 36 38 41 39 43 42
27 25 26 24 21 21 24 20 26 30 34 31 27 26 26 29 29 28 25 23 28 32 36 40 41 41 43 46 47 46 40 42 43 40 38 35 42 43 42 43 40 42 42
28 28 28 28 25 23 28 25 24 29 30 28 29 28 29 29 28 28 27 26 26 27 29 37 40 39 40 43 44 47 47 43 47 45 45 47 47 46 44 43 42 43 45
34 32 31 31 31 29 30 29 32 31 35 32 27 31 32 34 32 32 32 30 31 32 29 31 37 37 38 38 39 42 45 44 45 44 46 48 46 43 48 44 43 46 50
36 41 37 37 37 35 36 34 37 35 32 37 33 32 37 37 37 37 39 37 34 33 30 30 35 39 39 39 41 43 44 45 46 45 45 43 42 47 49 38 44 53 51
29 35 42 43 39 38 37 41 40 42 42 40 38 39 37 41 43 43 44 40 37 33 30 30 33 38 42 42 43 45 47 48 47 46 41 42 39 41 43 48 54 50 46
32 26 29 46 45 40 39 31 33 38 42 42 44 43 45 41 41 44 47 45 38 34 32 33 35 36 40 43 44 45 47 45 42 41 41 43 43 42 48 51 48 47 48
36 34 30 29 44 51 47 40 33 30 37 41 43 43 41 45 44 45 48 42 35 36 37 36 39 39 42 44 44 43 40 41 42 42 42 43 44 48 47 46 46 48 50
39 37 31 32 32 42 54 52 42 37 34 34 35 39 45 44 46 43 41 40 43 41 40 39 41 40 38 35 35 39 38 34 36 40 40 41 43 43 44 45 46 49 53
37 30 21 26 28 31 43 53 49 41 43 46 43 40 41 39 37 36 39 39 41 40 36 39 35 31 33 36 38 36 34 33 32 35 40 42 42 44 48 51 51 50 49
25 13 11 15 18 17 27 37 44 44 45 42 41 38 34 33 34 39 39 38 35 32 33 32 30 34 37 36 34 31 30 33 37 39 42 43 43 44 44 45 46 47 48
34 22 12 12 17 12 12 17 21 22 24 26 29 34 38 40 35 34 33 32 33 32 30 30 30 32 31 30 31 33 36 37 36 36 36 37 39 42 44 46 48 48 47

GFSMW_700_spd_057.txt.gz
Wind_Speed
14 15 12 9 8 10 8 5 14 16 15 9 6 14 35 35 31 39 46 45 46 47 47 38 36 28 27 24 19 17 16 14 14 19 18 19 19 18 19 18 17 17 16
13 14 13 10 7 8 7 6 10 14 14 10 11 12 20 25 33 35 40 51 50 47 42 41 37 28 30 27 22 20 17 17 16 15 16 19 21 21 21 20 20 20 19
14 13 12 12 8 7 9 4 6 12 16 15 16 17 20 33 33 32 30 42 52 51 48 44 35 35 32 30 24 23 18 23 19 17 16 12 15 16 20 22 23 23 24
12 12 12 11 9 8 9 5 3 8 17 16 20 24 20 25 24 23 24 32 49 48 44 41 37 39 34 34 29 27 25 22 25 20 19 18 18 14 17 23 23 23 25
17 13 13 12 12 11 8 7 3 4 14 21 20 25 20 20 19 23 25 37 42 48 48 47 42 41 39 38 34 33 31 26 28 26 22 21 21 23 27 28 28 31 29
17 14 15 16 14 11 11 8 6 3 6 14 17 25 21 21 21 24 34 33 38 40 41 48 45 44 42 40 38 35 34 31 34 30 27 24 24 24 25 27 28 30 34
15 16 14 15 14 9 11 10 7 6 5 7 12 17 22 21 27 19 21 33 39 35 46 50 47 48 47 43 41 39 37 34 38 37 33 30 30 29 31 32 33 37 39
14 9 9 12 16 12 11 12 11 9 8 7 9 12 15 18 24 25 20 24 31 32 37 45 47 43 43 43 46 42 38 39 38 39 39 34 35 38 38 38 39 43 47
13 11 12 13 16 17 14 13 14 13 11 12 12 13 14 16 17 20 21 21 23 26 29 30 34 42 40 43 39 40 42 43 42 43 43 42 42 43 45 43 45 48 53
10 14 16 17 18 19 18 16 17 17 15 14 14 15 14 14 16 17 16 16 18 22 24 28 30 34 38 39 42 41 39 42 42 44 43 44 43 43 46 46 48 50 56
5 7 13 17 19 22 23 21 20 20 21 20 19 17 16 17 18 18 18 17 18 19 22 22 25 27 28 31 36 35 35 37 39 40 41 43 43 46 45 45 48 52 58
6 6 7 11 16 20 28 25 23 24 23 23 23 22 22 22 21 19 18 19 20 22 23 25 27 28 29 31 34 35 34 35 39 39 40 44 43 44 44 47 50 55 39
7 8 13 11 9 15 22 28 27 25 26 26 26 26 26 27 26 24 24 25 25 26 28 30 30 30 32 35 37 39 38 36 37 41 43 51 53 46 47 48 51 47 39
12 12 11 13 17 13 13 22 28 28 28 28 29 28 27 25 24 26 29 31 32 33 34 33 33 34 35 37 38 37 40 40 39 38 40 49 54 55 45 47 45 45 44
17 18 11 11 11 21 20 20 23 32 27 30 31 28 29 31 33 33 33 34 32 33 35 36 36 37 39 40 41 40 42 46 46 43 41 37 35 36 39 43 43 39 40
26 26 25 24 21 12 22 24 25 28 36 35 34 32 34 32 34 37 39 40 40 36 37 37 37 39 41 43 44 43 44 46 47 49 47 44 41 42 41 42 39 45 49
26 31 30 29 27 27 19 23 25 29 29 32 38 40 39 34 33 32 36 37 37 35 32 33 34 35 37 39 42 45 47 49 50 53 55 54 47 45 50 51 53 53 53
31 33 39 39 34 31 32 32 29 31 35 32 33 38 39 35 35 35 36 34 35 34 34 35 35 35 34 35 37 39 41 44 47 48 49 50 51 54 55 55 53 48 55
30 36 37 43 46 41 35 34 34 33 33 37 34 36 39 39 41 40 39 39 40 41 41 41 41 40 35 32 34 38 42 43 44 45 47 46 48 49 50 53 50 54 50
26 35 39 41 37 48 47 43 38 36 34 35 38 39 42 44 42 40 43 45 48 50 49 46 44 43 38 34 34 36 41 44 45 46 47 48 50 50 51 55 48 53 56
28 31 34 41 44 39 44 49 49 43 40 37 34 43 45 45 47 47 45 46 50 53 52 51 50 46 39 36 38 40 42 46 48 49 48 50 51 50 50 49 51 47 41
33 29 32 38 44 45 41 41 51 57 52 44 40 39 44 50 52 53 52 50 46 48 54 54 48 39 38 38 40 41 41 48 45 47 48 48 48 49 46 37 37 40 47
35 39 41 35 39 43 43 44 41 48 57 53 51 46 42 43 46 47 52 53 50 55 56 48 43 51 48 49 57 45 43 42 40 45 48 47 38 34 36 41 41 41 43
33 36 35 41 38 41 39 41 43 40 48 57 55 54 48 43 39 43 47 48 49 47 43 47 49 52 53 51 45 44 44 43 38 35 35 35 35 36 35 37 39 41 42
31 31 34 41 41 37 35 31 35 37 42 45 46 54 46 43 36 37 35 36 40 42 46 46 45 51 41 38 37 39 36 36 32 33 32 32 33 33 35 39 42 43 44
32 31 33 36 33 30 29 24 24 26 25 32 34 35 47 38 34 39 39 41 41 42 40 39 36 35 35 33 28 27 24 25 26 27 29 30 32 34 36 39 42 45 46

GFSMW_700_spd_060.txt.gz
Wind_Speed
15 20 12 11 12 8 12 10 8 13 16 17 12 15 7 14 26 37 39 33 44 47 43 38 39 38 33 29 25 24 20 18 17 18 18 19 19 18 17 17 18 19 18
18 23 11 10 11 8 10 10 8 11 12 13 10 5 11 17 35 35 32 31 44 48 51 46 39 35 32 29 25 24 21 20 17 17 18 18 20 20 18 19 19 20 22
20 22 11 8 9 8 8 8 8 7 12 15 14 10 15 26 36 36 30 34 49 53 52 46 33 36 34 35 33 25 22 20 18 16 18 18 19 16 16 16 20 21 23
19 22 14 7 9 8 6 8 8 8 8 16 15 14 14 20 24 26 21 26 37 48 47 44 37 39 43 41 34 26 27 23 20 21 20 18 17 15 20 19 19 21 21
20 22 21 11 9 8 6 5 7 8 7 10 15 16 18 15 19 21 21 23 29 42 44 45 43 43 40 43 32 32 30 28 24 20 24 23 21 22 22 22 22 24 25
18 20 23 17 12 8 5 5 6 6 7 7 13 16 18 20 20 26 26 22 26 35 44 46 48 46 46 43 37 36 34 30 29 28 27 31 28 25 27 28 28 31 30
15 18 22 21 12 8 4 5 5 6 6 6 8 13 21 20 19 21 22 23 26 32 40 49 49 48 46 42 41 39 37 36 35 35 33 33 33 29 27 29 29 31 31
11 14 20 21 12 9 8 8 6 6 7 6 6 9 15 24 19 24 18 22 22 23 29 41 45 47 43 41 41 42 41 41 41 43 36 34 36 36 36 35 33 37 37
10 14 17 19 12 13 11 9 10 9 8 8 8 7 9 15 18 20 23 21 20 26 32 34 32 40 43 40 40 45 46 45 45 44 42 38 39 37 40 42 41 41 43
9 12 12 17 17 16 15 14 13 13 11 11 11 10 9 10 12 14 17 18 20 25 31 36 37 40 43 42 46 45 46 48 47 44 43 44 42 42 43 45 46 45 46
2 4 6 10 16 22 19 16 18 16 17 15 14 14 14 13 13 12 14 16 18 20 24 26 30 33 37 40 38 41 44 48 45 44 42 41 39 42 43 43 45 46 45
5 4 5 8 15 22 22 21 20 22 19 18 18 18 18 18 18 16 15 17 18 19 19 21 24 26 28 31 32 33 34 38 40 40 42 41 39 40 40 40 46 45 42
2 3 4 9 13 11 16 18 16 21 24 22 21 21 23 23 22 21 21 22 22 22 22 24 25 24 26 28 30 32 34 36 37 38 40 38 38 41 41 43 48 52 52
5 9 10 6 6 9 18 18 18 16 23 28 27 25 25 25 24 24 26 27 27 27 27 28 28 29 29 30 32 33 34 36 37 37 38 39 38 37 38 40 40 38 45
9 17 16 16 14 10 12 14 25 24 20 26 34 31 29 27 28 28 28 29 31 33 33 33 33 33 34 34 34 36 38 39 40 40 41 43 42 41 41 46 39 36 37
14 21 19 23 23 25 22 17 16 26 32 27 29 33 37 35 33 34 35 36 35 36 37 37 37 36 38 35 35 38 41 42 43 43 43 45 45 47 48 47 49 50 41
22 25 25 26 25 23 20 27 28 28 21 33 29 30 37 41 39 38 40 39 38 40 42 44 44 44 40 38 37 37 41 44 43 44 46 47 46 47 48 50 53 56 52
24 26 27 28 31 33 33 27 26 29 29 25 34 32 32 34 40 46 46 42 40 39 39 41 44 43 39 38 37 37 41 41 42 42 43 44 44 44 47 50 52 52 51
22 24 24 25 28 35 37 37 34 34 32 34 29 34 37 37 36 41 46 42 43 42 40 41 43 44 44 43 42 43 43 42 42 40 41 42 43 42 40 42 45 48 50
20 19 23 27 29 32 36 39 39 38 37 39 40 36 34 42 40 39 39 43 47 47 46 45 46 47 49 48 47 45 43 43 42 44 43 41 42 43 44 46 48 48 51
20 22 23 24 27 30 34 39 42 41 41 37 37 41 40 42 44 41 43 44 50 49 48 49 52 53 55 55 49 47 46 44 44 44 44 43 42 46 46 52 49 53 56
25 25 26 28 28 29 32 36 41 43 43 42 41 39 42 45 46 45 42 49 50 50 52 52 49 57 52 49 49 48 44 45 44 46 42 44 48 50 49 52 54 57 46
25 26 28 29 31 33 35 36 39 44 43 39 41 44 39 46 47 49 47 44 45 52 50 52 50 49 48 58 57 60 55 45 41 41 44 52 46 48 48 50 43 37 35
26 28 29 32 33 35 38 41 42 41 44 42 39 44 46 43 48 48 49 47 49 49 46 47 48 48 50 53 52 52 52 52 55 55 48 45 45 39 33 30 32 34 35
27 29 32 36 36 34 37 41 43 39 40 43 39 40 40 39 42 45 47 49 47 41 43 51 52 47 47 57 52 51 41 42 40 35 32 30 27 25 26 26 28 31 34
27 29 33 35 36 36 37 40 37 34 32 36 29 33 31 31 32 38 44 47 47 45 42 47 48 50 51 42 43 45 30 24 20 18 17 17 21 25 29 32 35 37 38

GFSMW_700_spd_063.txt.gz
Wind_Speed
23 22 20 14 10 10 7 10 10 9 11 16 18 17 23 26 22 27 31 28 29 33 37 41 40 40 35 33 31 28 25 24 22 21 20 21 20 18 16 18 17 19 18
24 25 18 12 9 9 7 8 9 9 10 14 16 16 16 15 24 28 30 34 29 38 41 42 43 42 36 39 33 32 29 25 22 20 20 20 20 20 19 18 19 18 20
25 25 21 11 9 8 7 6 9 8 9 11 12 14 10 18 24 22 34 28 32 40 40 45 43 38 43 34 31 31 31 27 21 20 17 17 19 18 20 21 21 20 23
23 22 19 14 10 6 8 5 7 8 8 7 8 13 10 2 10 27 37 32 29 33 47 43 48 44 40 34 33 32 35 39 23 23 19 17 18 19 22 24 23 21 22
26 23 21 17 13 6 7 6 5 7 7 5 6 12 11 7 10 21 31 14 20 37 48 49 49 49 37 38 35 36 40 30 23 24 21 20 21 20 21 22 18 21 19
25 24 20 19 16 10 6 7 3 5 6 6 4 7 10 11 12 20 31 23 21 30 40 36 46 49 43 43 42 36 37 34 29 27 27 24 24 24 23 25 25 26 27
26 25 22 16 12 8 7 7 5 3 5 5 4 5 7 13 14 14 19 23 19 25 33 44 47 45 45 43 41 40 42 37 33 32 31 29 29 27 28 29 31 32 31
25 19 17 14 10 5 9 7 6 4 3 4 3 3 6 13 15 15 15 15 20 17 20 29 38 42 39 41 40 42 41 37 33 34 34 34 33 34 35 33 33 35 36
18 12 13 14 12 7 4 9 7 7 5 4 5 4 4 6 12 13 16 19 19 22 22 22 27 35 38 41 44 47 44 41 42 39 39 40 39 40 40 34 37 39 43
10 11 8 8 6 6 7 7 11 9 10 9 7 7 6 5 7 11 12 15 17 19 26 27 25 27 35 43 44 42 44 46 41 41 42 43 44 45 45 39 40 43 44
13 7 13 11 10 10 7 10 9 14 14 14 10 10 9 8 8 8 10 12 16 16 16 22 27 30 32 33 36 37 41 46 43 44 45 44 44 46 44 42 43 44 44
18 16 12 13 10 11 13 13 10 10 17 16 17 14 13 13 13 12 12 14 15 16 16 18 22 25 28 28 31 31 36 40 41 43 46 43 44 45 43 41 41 43 42
18 12 13 8 10 17 9 11 12 10 10 16 18 20 19 18 16 16 17 18 19 20 21 22 21 23 25 28 29 31 33 35 36 37 38 36 39 40 39 39 38 37 41
19 14 12 8 11 12 16 16 17 17 10 11 18 21 23 23 23 22 23 24 24 25 26 25 25 27 27 29 30 31 32 33 32 34 36 36 38 36 36 39 42 42 42
19 18 14 11 10 14 16 17 19 21 20 19 17 20 24 27 28 29 28 29 30 30 31 31 32 33 33 32 32 33 33 35 36 36 37 37 38 38 38 41 41 43 44
10 13 19 20 21 18 15 15 14 22 26 28 25 23 21 26 29 32 35 35 35 35 37 36 36 38 38 38 37 37 37 38 39 39 40 41 41 41 41 43 43 46 48
19 21 19 19 18 21 23 25 24 18 17 24 31 31 26 28 28 32 36 37 39 42 43 43 43 43 43 41 41 41 43 42 42 42 43 43 42 42 44 45 46 47 49
20 17 18 18 17 20 21 24 24 25 28 26 25 30 37 33 30 34 35 37 42 45 46 46 46 47 48 48 47 46 47 47 46 47 48 48 46 45 45 47 48 50 51
17 19 21 20 20 17 17 18 20 24 27 28 33 34 37 39 39 41 41 37 38 42 45 47 48 49 47 47 47 48 50 51 54 53 53 53 50 48 46 48 46 46 46
15 20 25 25 25 23 22 20 21 21 21 24 28 31 35 39 42 45 47 47 41 41 42 45 47 49 50 48 47 48 51 53 56 56 57 53 53 48 47 43 46 44 49
17 19 23 26 27 26 26 26 27 27 26 28 28 30 34 38 41 42 44 46 47 46 47 47 46 48 49 53 52 51 49 52 54 55 55 54 51 51 49 50 46 51 56
21 22 23 24 25 26 28 30 31 33 35 37 36 35 33 37 42 43 42 48 50 50 48 46 44 43 48 51 49 48 50 49 51 54 55 53 55 56 56 53 55 62 66
24 26 27 28 28 29 31 33 35 35 35 36 37 39 42 39 39 43 43 42 52 51 52 51 48 48 44 44 48 54 49 56 56 54 59 58 58 63 61 65 62 52 55
26 27 28 29 29 30 33 34 34 35 36 38 40 40 42 42 44 41 42 46 47 51 49 52 53 49 48 49 48 52 53 60 57 65 66 66 71 70 50 39 40 44 38
26 26 27 28 29 29 30 31 30 31 33 35 37 37 36 40 36 34 38 42 47 49 49 47 52 54 61 42 56 64 65 57 49 59 58 52 22 30 25 20 16 16 19
27 28 30 32 34 34 34 33 32 32 31 31 32 26 27 28 30 30 31 31 33 39 42 46 53 50 47 51 50 41 38 33 23 17 17 16 14 15 14 17 22 25 27

GFSMW_700_spd_066.txt.gz
Wind_Speed
21 22 20 14 15 13 13 14 12 8 3 9 14 18 19 23 22 26 23 22 34 32 29 27 36 41 42 34 34 35 32 30 27 25 23 21 20 20 19 20 18 18 18
23 22 13 12 14 12 12 11 12 8 5 9 13 18 19 21 24 28 24 30 34 28 27 31 37 43 41 36 34 33 34 28 27 26 26 25 24 23 22 24 23 22 22
26 20 12 10 11 10 11 10 11 7 6 6 12 15 19 20 26 32 33 31 37 30 29 34 43 45 40 40 35 33 33 31 33 30 28 28 21 18 23 24 23 24 23
30 22 13 13 10 10 11 10 11 7 5 2 11 12 13 11 17 29 31 29 33 34 31 38 45 46 41 40 40 38 34 32 34 33 29 29 16 21 22 23 23 24 26
33 24 12 12 11 11 12 11 10 8 5 4 3 11 12 10 21 29 36 38 38 31 32 43 46 46 47 45 43 40 38 33 32 36 39 25 20 21 19 20 21 25 26
34 25 14 15 15 12 12 12 9 8 6 5 2 3 7 9 12 23 30 31 29 28 36 44 45 42 43 45 41 46 29 28 33 38 33 22 23 19 21 21 20 23 20
34 27 20 20 12 9 10 11 7 6 5 5 4 2 2 5 8 8 18 30 29 25 32 42 44 43 43 40 48 33 31 33 40 37 35 28 27 24 23 26 26 29 28
34 26 20 19 14 8 9 11 7 5 5 4 5 3 2 1 6 7 10 24 23 18 19 22 34 44 44 46 45 36 35 37 37 36 40 34 31 29 28 30 31 30 33
31 23 20 16 12 8 5 9 9 7 5 4 4 4 1 1 2 7 11 16 22 20 18 20 26 33 36 35 38 42 43 45 43 41 36 37 38 34 35 34 35 37 39
26 24 16 12 8 6 6 3 7 10 10 7 5 5 4 2 3 8 12 13 18 19 24 26 26 27 35 41 42 41 44 46 49 45 39 41 37 39 38 39 40 42 45
28 21 19 15 10 7 2 3 4 5 11 12 10 8 7 7 6 5 8 12 14 18 18 25 30 30 28 32 39 41 40 41 41 40 39 39 40 44 45 44 44 44 45
30 29 27 25 18 13 9 5 1 2 3 10 14 12 12 11 10 9 9 10 11 14 16 18 20 26 29 31 33 35 37 39 40 39 41 38 41 42 45 47 47 48 47
25 25 21 23 25 22 20 16 12 9 5 4 6 13 16 16 15 15 15 15 15 15 17 18 18 20 24 28 30 32 34 37 38 39 40 38 44 44 46 47 47 47 47
22 19 18 18 20 22 21 18 16 14 11 10 10 13 9 11 17 21 21 21 21 22 23 23 23 25 25 27 29 32 32 33 33 36 38 40 43 42 43 44 44 44 47
14 15 14 12 13 15 16 17 18 17 17 18 18 17 15 14 14 17 23 26 28 29 29 30 31 31 32 32 33 33 34 37 38 38 38 38 39 39 41 44 44 45 47
10 7 6 8 8 9 11 14 17 21 23 21 23 24 23 24 25 25 24 22 24 30 35 36 36 37 37 36 37 38 39 41 42 41 42 42 42 43 43 46 47 48 51
8 9 7 6 13 16 14 15 18 19 22 25 26 29 32 32 31 30 32 33 31 30 33 36 41 42 42 42 42 44 47 47 47 47 48 48 47 46 47 48 50 52 54
9 14 14 11 12 10 11 14 18 17 20 23 25 28 31 33 35 38 39 37 35 37 37 37 38 40 44 47 48 50 51 52 53 53 52 53 52 52 51 53 53 55 55
8 11 10 10 12 12 11 11 10 13 16 18 21 27 31 34 37 39 43 43 42 42 41 41 43 41 42 42 46 51 52 53 54 56 57 56 55 55 55 54 54 55 56
11 11 14 14 14 14 15 14 14 14 16 16 19 22 23 27 36 41 45 43 43 44 45 46 45 49 50 46 44 41 48 52 52 52 49 51 55 55 56 57 61 56 59
17 18 17 18 19 18 19 20 19 20 21 22 24 25 25 26 29 30 37 46 51 51 46 47 50 49 48 50 49 41 40 46 45 47 49 50 53 54 54 55 56 58 62
16 20 22 22 22 23 24 25 27 28 30 30 30 29 30 32 32 31 32 35 40 48 54 55 55 56 53 53 49 44 44 40 45 47 52 55 60 55 56 61 65 62 62
17 21 23 25 25 25 26 27 29 30 31 33 34 35 35 36 37 38 38 37 36 40 48 54 56 57 58 58 53 51 47 50 43 53 60 58 65 62 64 70 76 62 68
21 23 24 24 25 25 26 28 30 31 31 31 33 34 35 36 37 38 40 41 40 38 44 49 49 48 53 58 57 57 56 57 51 59 62 66 61 65 71 63 62 56 28
21 22 23 24 25 26 28 29 30 32 33 33 33 34 35 37 38 38 36 36 37 33 32 33 39 42 45 51 58 55 60 59 55 58 59 58 51 47 28 31 21 17 17
21 22 22 23 23 25 25 25 25 26 27 28 29 30 30 31 31 29 25 24 24 26 30 32 32 37 39 42 45 41 28 41 31 28 28 18 16 11 9 10 11 14 16

GFSMW_700_spd_069.txt.gz
Wind_Speed
23 26 26 23 19 13 16 16 13 13 12 15 12 17 17 17 16 16 16 16 27 23 27 31 29 27 30 31 29 33 32 32 29 28 28 25 22 20 20 21 21 19 18
29 24 25 19 12 12 15 14 12 11 11 12 13 15 15 15 19 16 17 21 26 27 32 31 37 33 35 34 33 34 35 33 32 31 28 25 27 25 24 24 24 21 22
24 25 22 16 16 11 12 13 11 9 9 12 12 14 18 21 23 25 31 22 29 29 29 31 31 33 35 37 35 35 36 35 34 33 29 28 29 26 26 25 24 24 22
27 29 25 17 14 10 9 10 11 9 8 9 8 12 13 16 16 19 21 33 25 30 38 33 31 34 38 41 39 34 35 33 33 33 29 26 30 34 26 25 24 24 26
25 26 29 22 13 11 11 10 10 8 7 6 4 11 13 13 12 15 23 28 39 27 35 29 35 39 40 37 41 39 37 37 36 34 33 34 36 27 32 28 22 25 25
31 30 29 26 18 16 13 10 11 8 5 5 2 6 13 13 13 14 17 33 36 31 34 32 31 38 42 42 40 39 39 39 33 32 35 34 35 36 33 19 21 21 21
21 30 29 27 20 17 9 10 9 7 5 4 2 2 8 11 10 9 16 24 31 36 34 33 30 34 47 46 46 44 43 44 42 35 32 34 35 32 20 24 24 24 23
24 30 29 27 20 12 9 9 8 6 4 4 2 1 2 6 9 8 11 22 24 22 23 23 27 39 44 39 42 42 44 44 40 38 34 39 37 34 28 28 26 29 29
29 25 30 25 18 14 8 7 9 7 5 4 4 3 1 1 5 8 11 15 20 27 21 17 23 27 41 39 42 40 48 48 51 44 44 31 36 35 36 36 35 34 36
18 24 27 25 17 13 10 7 5 6 7 5 4 4 3 3 2 5 6 11 14 18 16 17 19 23 31 38 37 39 40 40 46 40 29 35 38 39 42 39 40 40 41
21 27 29 26 21 18 15 11 6 4 5 7 7 6 4 3 3 4 5 7 12 18 19 22 21 23 22 26 30 33 34 36 35 36 38 43 45 46 44 40 44 45 46
28 32 33 30 28 24 19 14 12 9 8 8 8 9 9 7 5 5 7 8 10 13 17 22 25 26 29 31 29 32 35 38 41 42 42 46 48 51 48 47 45 45 48
30 36 33 33 30 27 24 20 18 15 13 12 12 12 11 11 10 9 9 10 13 15 18 20 22 23 26 32 35 38 37 37 40 42 44 45 47 46 48 48 47 48 50
28 33 33 34 32 28 23 19 18 15 10 9 10 12 11 14 15 15 15 15 15 17 19 21 22 25 27 27 28 31 34 36 37 40 41 43 46 45 46 47 46 45 49
14 19 26 26 27 26 23 22 20 17 16 18 17 16 16 17 16 18 19 21 21 22 24 25 25 27 28 30 32 33 33 33 36 38 38 39 42 41 41 45 44 47 50
10 16 12 9 11 10 10 10 13 16 18 18 21 21 22 22 22 23 25 24 24 26 28 30 31 32 33 33 35 37 39 40 41 42 41 42 43 43 43 46 48 49 53
7 8 9 1 3 3 5 9 15 19 22 25 26 28 28 28 28 28 29 29 29 32 33 34 36 39 38 37 39 40 43 46 47 47 47 48 48 48 49 50 51 53 55
4 8 8 7 5 6 12 16 19 16 18 21 23 25 28 29 29 31 33 34 34 34 34 35 39 42 41 40 41 42 44 45 48 51 51 52 53 54 55 56 58 59 61
4 2 0 1 3 7 11 11 12 13 14 16 19 21 22 24 28 32 34 35 36 37 39 39 39 41 41 40 43 44 44 45 47 48 50 53 57 58 60 63 63 63 64
1 2 2 4 4 5 8 11 12 14 16 16 18 20 21 23 24 27 29 31 36 40 43 45 46 46 46 44 45 45 49 51 49 53 57 53 56 59 60 56 57 60 58
8 6 6 8 10 11 11 13 15 16 17 19 20 21 22 24 26 28 29 30 32 36 39 40 44 48 54 56 54 52 49 48 47 47 52 56 59 53 54 52 56 60 59
8 10 12 15 16 17 18 18 17 18 19 20 21 22 24 25 26 27 29 31 33 35 37 39 42 47 50 52 56 58 58 55 54 55 55 58 55 58 62 59 69 61 71
10 13 17 20 20 21 20 20 21 21 23 24 26 27 27 28 29 30 31 32 33 35 37 39 42 44 47 52 55 59 61 61 53 55 63 61 75 64 67 67 62 70 67
19 22 21 20 19 19 21 22 22 23 24 25 27 28 29 30 31 32 32 33 33 34 36 40 42 44 45 45 49 50 48 49 51 53 58 63 63 61 68 63 48 56 50
17 20 19 18 19 19 18 20 21 21 21 22 23 25 26 27 28 28 28 29 31 31 32 34 38 41 39 37 39 42 45 47 46 46 50 49 48 49 46 31 28 25 25
17 18 19 19 18 18 19 18 18 19 19 20 22 23 24 25 26 27 27 27 28 28 27 23 25 27 24 21 21 18 15 11 18 8 12 11 11 7 10 9 10 11 12

GFSMW_700_spd_072.txt.gz
Wind_Speed
23 21 24 26 24 22 17 15 17 18 16 16 14 10 16 15 15 11 9 12 18 35 29 34 33 33 32 30 28 25 23 27 26 27 28 26 23 22 20 23 23 22 21
29 25 23 23 24 21 16 14 15 16 15 14 12 9 14 15 14 12 7 3 17 30 38 36 36 35 35 33 35 32 33 32 27 29 28 28 26 24 21 22 24 24 24
28 23 24 21 19 18 11 12 13 14 13 13 11 9 15 18 18 18 13 13 12 17 22 27 35 37 37 35 30 29 27 24 30 33 32 32 29 25 25 25 26 26 25
25 24 22 20 17 14 12 11 10 12 11 11 10 6 12 17 16 17 16 14 17 19 22 21 30 38 40 38 32 32 32 30 31 32 34 30 28 26 24 26 30 30 28
29 28 22 19 18 14 15 14 9 10 9 9 9 6 11 14 15 18 22 20 21 26 29 26 28 27 32 31 38 38 35 32 32 33 32 31 30 28 27 33 36 31 25
22 24 23 21 24 17 17 15 11 9 6 7 7 7 7 11 13 15 18 17 22 27 25 26 32 32 29 35 36 39 41 36 34 32 32 31 31 31 35 33 37 32 26
23 20 23 26 20 22 20 16 12 9 5 4 4 3 5 9 11 12 14 17 24 31 32 23 27 28 28 35 37 35 37 42 37 34 33 33 33 33 39 28 30 32 25
25 21 18 23 21 22 20 14 12 9 7 5 3 0 1 4 7 8 9 11 11 28 29 26 28 31 27 30 40 42 42 39 42 46 43 38 36 34 38 41 21 23 25
26 25 21 24 22 24 19 15 13 12 9 8 5 4 3 1 3 5 4 3 10 18 18 26 36 24 28 25 34 40 39 38 37 37 43 44 47 36 36 41 24 29 32
24 25 26 26 28 27 23 17 16 15 13 9 7 6 5 5 3 2 2 3 7 18 20 19 19 19 20 24 28 30 33 39 39 40 42 49 42 45 37 52 31 36 39
19 24 32 29 32 28 26 19 15 13 14 13 11 9 8 6 4 4 5 5 5 8 15 15 17 17 18 20 20 34 31 35 38 38 41 43 48 46 40 32 37 39 41
22 24 29 34 32 29 26 22 19 15 15 14 14 12 10 8 6 5 5 6 7 8 10 14 13 15 21 22 23 27 32 31 33 34 36 36 34 36 35 37 37 43 45
18 23 31 33 34 32 31 30 26 20 14 12 11 11 11 11 10 9 8 7 8 9 10 12 13 14 15 18 23 29 32 32 35 38 39 39 37 39 41 42 45 49 51
11 19 27 31 33 32 31 27 21 17 14 12 11 10 11 14 14 14 13 12 12 12 12 13 14 16 19 22 24 24 26 27 29 32 35 39 40 40 42 46 48 50 52
13 14 19 22 33 31 30 25 19 15 15 16 14 12 11 13 12 13 14 15 16 16 18 19 19 20 21 23 24 27 29 30 32 32 33 36 38 39 40 45 46 49 53
20 19 16 14 10 11 11 19 23 15 20 15 15 14 13 14 16 17 17 18 19 20 20 19 20 24 26 27 29 31 33 34 37 38 39 40 41 41 41 44 46 48 52
13 17 19 16 11 8 4 3 3 6 8 11 14 17 19 20 19 20 20 21 22 24 26 28 29 31 32 34 33 34 37 38 41 42 43 43 44 45 46 46 49 50 52
14 13 15 16 9 9 4 3 7 9 11 15 17 19 21 23 24 26 28 29 29 28 29 30 31 32 35 37 40 42 43 43 46 46 45 45 46 45 46 47 53 56 57
10 15 13 9 8 4 1 5 9 10 11 12 14 15 17 18 19 21 22 24 27 30 33 35 37 38 40 41 42 43 43 45 46 48 49 49 50 50 54 55 57 55 58
13 15 13 8 1 3 3 6 9 11 13 15 15 16 17 18 19 21 22 22 24 25 27 30 33 35 38 40 42 46 49 48 48 48 50 52 55 55 51 51 53 52 59
11 9 6 2 2 6 8 10 12 15 16 17 18 19 21 22 23 24 24 25 26 25 26 28 31 34 37 39 42 44 47 49 51 53 54 57 59 57 51 49 53 54 59
11 5 4 4 5 8 11 14 14 15 15 17 18 19 20 21 21 23 25 26 28 29 30 31 32 33 34 35 38 42 46 50 53 56 57 56 57 58 54 52 60 62 67
4 3 5 8 12 13 13 13 14 15 15 16 17 18 18 19 20 21 23 24 25 27 28 29 30 32 34 36 37 38 38 40 46 51 55 52 55 53 56 58 61 56 65
5 10 10 10 13 14 14 15 14 14 14 15 15 16 16 17 18 20 21 21 22 22 24 26 27 29 31 32 34 35 38 38 40 42 43 45 50 52 56 55 49 45 47
10 11 11 12 13 15 16 16 16 16 16 17 17 17 17 17 17 17 18 19 21 21 22 23 23 23 23 25 26 26 24 23 26 31 32 30 31 31 26 24 19 18 15
10 11 11 13 15 16 16 17 17 17 17 18 18 18 18 17 17 18 18 19 20 20 20 21 20 18 18 18 17 17 18 17 16 13 15 18 18 15 13 11 10 9 9

GFSMW_700_spd_075.txt.gz
Wind_Speed
26 26 24 23 21 23 20 19 17 18 18 16 15 13 9 14 17 14 13 16 26 34 30 32 28 33 36 31 30 30 27 26 27 25 26 23 22 22 24 21 22 22 23
30 28 27 26 22 19 19 16 18 18 16 14 13 12 9 14 16 15 14 12 14 32 35 27 33 38 35 35 31 30 28 27 25 25 26 27 27 28 24 23 21 23 25
24 31 31 27 23 18 14 15 17 18 15 13 12 12 10 17 18 18 15 8 3 22 28 25 36 35 32 31 30 28 26 24 23 24 28 29 29 24 24 24 27 24 25
23 31 32 29 22 19 17 17 18 16 14 12 10 9 8 13 15 16 15 12 4 7 30 29 34 36 34 34 34 32 32 31 35 36 31 26 26 26 27 25 24 28 29
21 25 28 25 21 17 20 18 16 13 11 10 7 7 7 12 16 16 17 13 15 13 13 18 18 31 37 36 36 37 34 31 27 25 26 31 32 32 30 27 25 26 23
19 26 27 27 22 20 21 19 18 13 11 9 6 5 5 10 14 16 17 16 16 21 22 22 23 21 32 38 40 39 37 32 29 30 28 30 30 28 28 28 27 24 27
19 20 29 26 22 24 21 20 18 15 13 10 7 5 4 10 13 15 16 16 17 25 21 27 23 25 31 29 31 27 32 30 35 33 33 32 31 30 29 27 31 36 36
23 23 21 24 24 25 26 22 17 13 13 12 9 5 4 6 10 11 12 13 14 23 26 25 26 21 27 28 23 34 34 34 31 34 39 38 37 37 35 35 38 43 45
22 28 27 23 25 28 30 25 18 16 15 13 10 7 5 4 7 7 7 8 8 12 34 30 23 25 23 27 22 26 35 34 35 36 37 34 43 44 40 38 34 40 37
25 23 31 27 27 28 31 25 19 18 19 16 13 11 7 5 5 6 5 5 7 11 18 21 25 25 25 25 22 29 25 34 36 33 34 30 37 46 43 44 46 38 44
23 26 30 30 30 29 33 27 23 22 19 19 16 13 11 8 5 3 3 3 5 10 17 18 19 25 26 25 24 25 30 25 27 25 35 32 32 38 43 44 45 46 47
22 30 29 25 25 35 36 30 26 25 24 21 18 15 12 11 9 8 6 4 4 5 9 10 13 15 22 23 24 23 25 28 34 31 33 35 37 33 35 42 46 52 44
14 19 26 30 27 40 38 37 33 31 24 17 16 15 14 13 12 11 9 9 8 8 8 8 9 10 10 12 16 17 25 28 31 34 35 32 34 36 38 38 39 39 38
6 15 26 21 32 37 38 37 34 28 19 16 16 15 15 14 14 12 11 10 9 8 9 10 11 12 13 14 14 15 17 21 25 28 30 32 36 42 43 41 41 41 43
10 8 13 20 24 29 35 36 32 25 18 17 16 13 12 12 11 11 11 12 11 12 12 14 13 14 15 17 18 20 22 23 24 25 27 29 30 30 32 36 35 39 43
21 21 19 16 18 20 27 28 28 24 22 20 17 14 16 14 12 12 13 13 12 13 14 16 17 17 22 20 21 22 24 26 28 29 30 32 33 33 36 39 40 42 46
22 22 20 21 22 22 20 19 22 24 23 26 22 19 14 12 12 12 14 15 16 17 18 19 22 26 29 29 29 30 31 32 34 34 35 36 38 39 40 41 43 46 47
16 15 22 19 16 15 15 14 11 10 11 13 13 11 11 13 14 16 18 20 22 23 23 24 25 27 29 29 30 32 34 36 37 40 42 45 46 47 48 47 47 48 46
26 25 21 12 18 17 12 8 9 7 6 5 5 7 8 11 12 12 13 16 18 19 21 23 26 28 29 30 31 32 35 38 41 42 45 47 48 48 50 51 53 52 49
21 25 24 21 14 10 9 8 4 6 6 8 9 10 12 13 15 15 16 17 18 19 21 23 25 28 30 30 31 32 32 35 37 40 43 46 49 50 51 51 51 50 54
19 19 17 16 13 11 5 1 3 6 8 10 11 13 14 16 17 18 20 20 21 21 22 23 25 26 28 31 33 35 37 39 41 43 45 46 47 48 49 51 53 51 51
19 16 11 8 7 7 7 4 7 9 10 11 13 15 15 16 18 19 20 21 22 22 22 23 24 25 26 26 27 27 29 31 34 37 41 44 49 49 48 46 45 47 50
18 11 9 7 6 6 7 7 9 11 12 12 13 14 15 15 16 18 19 20 21 22 23 24 25 26 28 30 31 32 31 30 27 27 28 31 36 40 42 39 36 37 42
10 5 5 5 6 7 9 9 10 11 12 13 13 14 15 15 16 17 18 19 19 20 21 22 23 24 25 26 27 28 29 28 28 27 26 26 27 28 30 31 29 27 26
3 5 8 7 8 9 10 10 10 11 11 13 15 16 16 17 18 19 19 19 20 19 19 20 20 21 22 22 23 23 23 23 24 24 24 23 23 24 25 26 27 23 18
4 7 8 9 10 10 11 11 11 12 12 13 15 15 15 15 16 16 17 17 18 18 17 18 18 18 18 19 20 20 21 21 21 21 20 20 21 22 23 24 22 21 23

GFSMW_700_spd_078.txt.gz
Wind_Speed
23 29 31 31 29 29 27 22 21 21 17 16 19 18 17 17 17 18 18 19 19 33 23 36 28 35 23 32 36 34 33 32 29 28 26 24 23 23 22 20 18 17 24
25 35 33 32 31 31 27 24 20 22 18 17 18 18 18 16 16 18 15 13 13 19 33 36 36 32 32 28 36 32 33 34 31 29 26 27 25 24 21 23 21 25 25
24 32 37 34 32 30 26 22 20 20 19 17 18 18 17 14 16 18 17 18 16 18 31 39 33 33 33 34 36 34 35 32 29 29 27 28 29 24 25 22 24 24 23
24 30 36 36 33 30 26 22 20 19 19 17 17 17 15 10 14 18 18 18 18 11 23 34 29 36 30 37 35 34 34 32 30 30 31 26 19 20 26 24 25 28 30
24 26 31 38 37 33 29 23 22 19 17 16 16 15 12 11 16 19 19 19 14 10 14 21 24 33 38 35 37 35 36 33 31 30 29 26 24 25 21 23 24 24 23
28 29 29 35 41 34 29 27 24 20 17 15 15 13 10 10 14 16 17 17 15 14 13 25 21 30 34 35 33 34 34 32 32 29 29 32 32 32 28 25 30 26 25
25 25 25 30 32 31 25 27 25 21 19 15 14 12 9 9 14 16 17 17 18 17 16 16 16 23 28 36 37 36 37 36 34 31 32 28 29 27 30 30 26 30 27
23 22 23 27 31 31 27 28 26 22 21 17 15 12 9 9 12 14 16 16 18 19 21 28 26 19 25 26 34 36 37 35 34 36 35 37 37 36 34 34 32 32 29
24 25 23 25 29 27 28 30 25 23 22 18 15 13 10 8 10 12 13 14 15 19 24 25 23 25 25 21 29 27 29 27 30 29 34 32 35 34 39 39 41 37 40
24 27 29 26 22 23 30 33 30 27 23 20 17 14 11 9 9 10 10 10 10 12 19 28 29 26 25 25 18 28 21 23 29 31 27 33 30 31 30 40 45 43 44
21 24 28 29 39 27 26 35 34 30 27 22 19 16 13 11 9 9 8 7 6 8 9 19 29 32 22 24 22 22 22 24 26 23 24 32 28 26 31 34 42 43 41
21 25 30 33 35 29 27 34 35 32 30 24 20 18 15 13 11 10 9 8 7 6 10 11 17 20 24 27 26 26 23 25 26 30 27 24 28 24 25 33 37 41 43
14 23 29 31 36 32 31 36 38 37 33 25 21 21 19 17 15 13 11 10 10 9 11 11 13 12 12 17 23 29 28 27 26 27 30 28 30 30 29 32 34 33 36
8 15 25 32 31 24 32 41 41 40 31 22 20 20 20 20 19 17 16 13 12 12 13 14 15 17 16 16 17 17 18 19 24 27 26 26 28 31 32 37 39 41 42
12 11 17 22 19 24 35 41 42 38 28 23 20 18 18 18 18 18 17 17 17 17 17 18 19 20 21 20 20 20 21 22 22 24 26 28 29 31 30 31 30 32 34
19 17 14 16 22 25 32 32 36 33 28 25 23 19 18 18 17 16 16 16 16 16 16 18 21 22 21 22 23 25 26 26 27 28 30 32 33 35 37 39 41 41 42
17 25 27 25 23 22 25 26 27 26 24 24 25 23 19 17 19 19 19 19 18 18 18 19 19 21 22 22 23 24 25 27 29 33 34 34 34 35 37 38 38 39 40
8 16 25 25 27 27 29 26 26 27 28 30 27 28 30 27 19 18 17 18 18 18 19 20 22 23 24 23 24 24 27 31 34 35 37 38 39 41 42 43 45 45 47
12 13 22 26 22 19 20 21 21 20 21 20 21 27 28 19 18 17 16 16 17 18 19 19 20 21 22 22 22 24 29 31 34 36 38 39 41 43 44 44 45 45 48
24 16 18 19 22 28 24 20 20 18 17 15 11 13 13 12 13 13 13 14 15 16 18 19 20 21 22 24 24 24 26 28 30 32 34 35 37 39 40 41 43 46 49
18 22 26 23 18 13 9 11 8 6 7 4 7 8 9 14 16 15 16 16 17 19 20 21 22 24 25 26 26 28 29 30 31 32 34 35 35 35 35 35 36 38 41
20 19 19 17 13 11 12 12 10 9 6 6 7 8 11 14 15 16 17 17 18 19 20 22 23 23 23 24 24 24 25 26 28 30 33 35 36 37 36 35 33 32 31
18 14 11 10 9 8 9 10 10 11 11 12 14 13 13 14 14 15 15 16 16 17 18 18 19 20 21 21 22 22 22 23 24 26 27 28 30 31 31 31 30 29 27
17 8 6 4 5 6 6 6 7 8 9 9 10 10 11 11 11 12 15 16 16 17 18 19 19 20 20 21 22 23 23 23 24 24 25 26 27 28 29 29 29 28 26
17 14 10 3 5 5 6 7 7 8 9 11 11 11 12 13 13 14 15 16 17 18 19 20 20 21 22 22 23 23 24 24 24 24 25 26 27 28 28 29 30 30 30
11 5 4 6 6 7 8 8 9 10 10 12 13 13 14 15 15 16 17 18 19 19 19 20 20 21 21 21 22 23 23 23 24 24 25 25 26 27 28 28 29 30 31

GFSMW_700_spd_084.txt.gz
Wind_Speed
22 22 24 25 31 31 35 40 35 30 30 32 26 23 22 23 21 21 21 21 21 24 25 26 24 23 26 29 19 31 38 33 35 35 29 26 25 24 22 19 18 20 19
25 22 24 26 31 36 36 41 32 31 31 29 24 24 23 24 21 24 22 22 21 26 24 23 22 23 27 27 25 33 34 32 30 31 32 28 26 24 20 20 19 19 18
24 24 25 28 34 34 34 38 33 30 30 28 25 24 24 24 22 24 23 17 15 18 19 19 20 23 26 26 31 27 39 29 33 34 30 28 27 22 23 21 20 20 17
26 26 25 30 30 33 38 40 33 32 29 28 27 24 23 21 23 23 20 14 15 17 18 18 17 16 30 30 36 31 37 31 35 30 29 25 21 22 20 21 21 20 21
24 27 27 27 36 37 34 36 34 35 30 29 26 24 22 20 23 21 16 14 18 22 18 20 18 24 25 30 33 35 36 43 34 32 30 27 23 21 21 17 18 21 20
21 23 25 28 28 39 33 33 34 32 26 25 24 23 21 20 21 19 12 14 18 22 22 22 20 22 24 32 35 35 30 37 31 33 31 25 25 19 17 10 15 14 15
17 22 23 26 26 37 34 31 35 31 26 22 23 22 20 18 20 17 11 13 18 20 19 21 22 18 17 31 32 37 33 29 30 32 28 28 26 24 21 18 17 18 19
14 16 18 22 23 40 35 29 33 33 29 23 24 23 21 17 19 16 10 10 14 18 18 15 10 12 21 27 24 35 35 35 31 29 28 29 26 23 25 25 26 20 23
20 19 13 18 13 26 31 34 31 34 31 25 26 25 21 18 18 14 10 9 12 17 14 13 10 10 17 25 23 30 32 31 31 29 30 29 28 28 28 28 32 33 34
20 20 19 20 21 22 30 34 31 34 34 28 29 28 21 19 16 12 11 10 9 10 11 12 14 11 10 15 23 25 28 30 33 28 29 32 35 39 37 35 30 30 32
11 18 23 20 25 28 32 27 30 31 32 31 33 27 22 19 16 13 10 11 8 8 11 12 15 18 17 14 17 26 26 23 31 36 34 39 37 35 31 23 26 29 29
9 17 22 25 24 23 25 28 37 35 31 35 33 28 22 18 16 14 12 11 9 7 7 8 9 18 19 21 21 17 20 24 33 26 20 17 19 24 24 26 20 23 23
9 12 18 23 24 27 23 25 31 31 29 35 35 29 23 19 18 17 15 13 11 8 5 6 4 15 20 17 21 21 19 18 14 18 18 15 16 23 25 26 26 23 25
10 9 12 18 23 26 27 24 26 29 31 35 34 32 27 23 21 21 18 16 15 12 9 9 10 12 21 22 20 18 17 20 21 19 14 19 19 20 18 23 23 29 24
11 10 11 15 18 20 20 25 24 26 29 35 38 36 33 26 22 22 18 17 16 15 12 11 11 13 15 18 21 20 19 23 21 22 21 20 22 21 20 22 23 23 25
14 13 11 15 17 20 24 25 29 28 28 30 36 37 32 27 25 23 20 19 20 19 17 16 15 15 15 15 15 16 17 17 22 24 20 25 24 25 25 30 30 28 30
16 13 11 13 20 23 22 24 31 29 29 28 29 33 31 30 27 25 24 19 20 20 20 20 20 20 19 19 18 19 20 21 21 24 30 31 30 29 28 31 29 31 31
14 16 16 11 19 26 29 29 30 30 31 30 32 31 30 28 25 24 22 18 18 18 19 21 22 22 23 21 22 22 23 22 23 25 26 28 28 28 32 36 37 39 39
16 14 14 10 13 19 26 30 33 34 32 35 36 33 32 33 31 30 28 26 19 25 25 21 20 20 20 20 20 22 24 26 28 30 31 33 34 35 36 38 39 41 42
12 13 12 11 7 6 2 17 25 29 33 35 36 42 36 41 39 35 33 33 33 35 32 21 22 23 23 25 26 27 28 29 29 29 30 29 29 30 30 31 32 34 35
8 7 11 11 9 8 12 4 9 5 9 17 17 23 17 31 16 22 23 30 32 33 31 14 15 17 18 20 21 21 22 23 24 24 25 26 26 26 27 27 28 30 31
9 9 7 7 7 6 7 9 7 9 4 2 1 5 5 4 14 4 7 7 6 9 12 16 18 16 16 16 18 19 19 20 21 22 22 23 23 23 25 26 27 27 28
3 5 8 9 4 2 2 2 3 4 5 4 4 3 0 4 7 6 4 4 4 7 9 10 13 14 15 16 15 15 18 19 21 21 21 22 23 24 25 26 26 27 29
4 5 6 6 5 4 4 5 5 4 4 3 1 2 2 1 1 3 3 5 6 8 12 13 16 18 19 18 18 20 20 21 22 22 23 24 25 26 27 27 28 29 29
1 3 4 5 3 1 2 0 2 3 3 3 3 3 3 3 2 4 6 9 10 12 13 14 15 15 16 17 18 20 21 21 21 22 23 25 25 26 27 27 28 29 29
2 2 3 4 4 1 2 3 3 3 4 4 5 6 6 7 8 8 9 9 10 11 12 13 14 15 16 17 18 19 20 21 22 23 24 25 26 27 27 28 28 29 30

GFSMW_700_spd_090.txt.gz
Wind_Speed
38 37 32 27 34 32 35 42 42 36 39 37 31 31 31 30 28 24 21 21 21 22 23 23 25 25 24 23 25 28 29 30 29 32 24 38 38 34 33 28 24 22 20
32 33 41 38 30 34 35 39 42 36 41 37 34 24 30 27 29 26 24 23 22 24 25 26 26 27 24 23 26 27 29 28 28 31 37 42 37 33 34 27 26 23 21
36 32 33 41 36 33 36 44 41 37 41 37 32 27 26 29 31 31 25 22 23 24 25 27 25 26 25 25 27 26 25 27 29 33 47 51 46 40 34 30 27 24 23
37 30 26 32 43 38 34 38 39 39 41 35 35 28 25 31 30 24 22 23 22 24 26 25 23 26 26 25 25 23 26 28 30 32 48 47 40 34 30 28 26 24 23
31 26 27 31 34 39 31 30 34 39 35 34 35 27 26 29 27 28 24 21 21 23 24 21 21 26 27 25 20 22 25 23 30 40 43 44 39 29 19 21 25 24 21
17 28 26 30 31 35 27 21 34 36 33 34 29 29 29 29 30 29 23 19 20 22 21 20 21 23 25 25 22 17 22 32 38 38 41 36 40 34 28 23 21 20 19
9 24 25 30 30 32 30 25 27 32 31 28 28 26 28 29 30 29 23 19 19 20 17 17 20 23 24 26 28 29 28 30 33 43 44 38 40 33 29 30 18 15 18
11 14 21 28 25 25 27 33 33 34 29 27 28 26 29 31 32 27 22 18 19 17 14 17 21 23 25 25 31 29 29 37 37 40 40 41 39 30 31 23 19 20 19
17 22 21 26 23 21 22 28 30 30 32 30 26 29 30 29 29 26 21 18 19 12 14 18 21 21 22 25 27 27 20 35 37 32 46 31 38 34 28 25 23 19 22
10 18 22 21 21 22 25 29 33 35 32 29 29 29 30 25 26 25 21 17 18 10 13 15 18 20 21 22 19 26 25 34 34 35 31 35 34 34 29 33 28 25 26
10 11 17 21 17 19 24 28 35 35 33 32 30 32 30 25 24 23 20 18 16 10 12 13 13 17 18 19 17 15 23 28 34 40 28 37 29 30 30 33 32 33 26
15 8 11 17 16 16 17 23 28 39 28 33 30 30 28 27 22 23 22 19 13 10 11 12 14 17 18 18 16 22 22 25 25 32 28 39 35 33 32 32 34 31 29
15 16 11 14 15 17 10 13 16 23 7 33 26 24 28 25 21 24 24 18 16 13 12 11 12 14 15 18 11 16 23 23 28 31 30 32 33 29 35 39 38 33 30
12 11 13 14 16 14 10 13 10 16 15 21 23 22 23 26 25 26 26 21 18 14 11 10 10 9 13 20 17 16 14 22 21 25 30 27 31 30 27 25 22 20 20
8 9 8 11 13 12 12 11 12 11 16 21 33 22 25 23 22 27 26 21 17 15 13 12 9 7 10 19 19 18 15 19 16 16 18 24 24 24 29 20 23 20 18
6 8 8 6 11 12 10 9 9 12 16 19 23 17 19 21 24 27 26 24 20 18 16 15 12 10 11 17 20 17 17 17 23 27 29 27 27 26 23 19 21 25 26
10 10 8 9 8 12 14 12 8 11 17 18 21 22 22 22 21 27 30 30 27 22 19 18 17 15 14 17 21 25 22 22 22 25 26 23 27 28 22 27 25 21 18
12 14 10 12 14 5 11 16 12 17 16 24 24 21 23 25 25 26 24 29 32 27 24 22 21 20 19 19 22 26 28 28 29 29 28 27 27 28 25 28 27 22 23
11 12 10 10 12 14 9 6 16 21 21 28 26 25 31 35 29 26 25 26 27 30 28 26 24 21 21 21 22 25 26 25 25 24 23 25 25 24 27 26 29 28 29
10 11 7 6 7 9 11 10 8 11 19 24 24 31 37 32 34 35 32 30 35 33 31 33 28 26 26 25 26 28 28 27 26 29 31 24 27 29 30 28 31 33 33
9 9 6 5 4 7 10 5 7 6 4 8 15 18 23 24 29 32 30 40 44 38 39 34 33 35 34 33 36 34 35 35 30 33 35 35 32 32 33 32 31 32 31
6 7 7 5 5 4 4 2 1 1 3 3 4 4 2 9 9 16 17 16 21 17 28 27 29 33 34 36 37 34 36 32 33 26 18 18 20 21 26 22 24 25 25
5 6 4 2 1 2 2 1 2 5 4 4 4 5 7 7 4 5 6 6 8 12 15 15 16 14 14 13 11 11 9 9 8 10 15 16 16 17 18 17 18 20 22
5 4 3 3 3 3 3 3 5 6 5 4 5 4 5 6 7 7 3 6 4 3 3 3 4 9 12 8 6 5 7 6 7 8 11 15 18 20 21 23 26 29 31
5 4 3 3 4 3 2 1 2 3 3 2 1 1 1 1 2 3 5 4 3 4 5 4 5 6 8 9 11 11 14 16 19 22 23 23 23 25 27 28 27 25 25
7 6 4 3 4 4 3 2 3 3 1 1 2 3 3 2 3 3 3 3 5 7 8 10 11 12 12 12 13 15 17 16 17 19 20 20 19 19 19 20 20 22 23

GFSMW_700_spd_093.txt.gz
Wind_Speed
39 40 40 39 39 36 36 37 44 48 44 41 42 39 41 36 35 34 33 27 23 20 19 20 21 19 20 20 25 27 29 30 29 28 28 28 30 30 38 36 29 27 25
38 42 49 38 39 40 37 35 38 43 43 42 38 40 41 35 37 31 29 28 25 22 21 22 23 21 22 22 27 29 31 31 33 32 30 33 31 35 43 37 32 28 26
36 36 40 44 35 38 43 38 36 37 37 41 41 36 37 35 35 29 27 30 25 23 21 24 25 23 22 23 28 27 29 29 32 33 34 35 38 38 39 39 35 32 27
27 30 36 37 37 35 43 45 34 36 38 39 40 37 36 34 22 29 28 28 25 23 22 25 25 24 20 24 28 28 29 29 30 33 33 34 34 44 43 41 36 29 27
33 26 30 32 30 34 36 42 35 33 34 39 36 37 35 36 32 28 26 28 27 23 23 25 25 22 21 27 28 28 28 29 29 31 33 34 39 43 56 45 37 30 28
33 24 26 28 24 28 28 39 38 32 34 35 36 37 35 35 28 27 28 30 28 24 23 25 23 22 22 27 27 26 26 26 30 30 32 40 44 46 52 41 26 24 29
22 21 20 23 19 22 28 30 37 30 32 33 32 33 34 33 33 27 29 29 27 25 24 25 22 20 21 25 29 28 28 25 25 26 34 35 43 42 36 35 30 25 27
17 23 16 12 16 20 21 26 28 27 31 32 29 33 33 32 29 28 28 29 27 26 25 22 22 21 22 25 28 29 31 31 33 31 33 31 36 46 42 39 34 33 28
19 19 23 11 13 13 14 22 29 28 24 31 33 35 31 32 28 28 28 27 29 24 24 20 20 20 25 27 29 31 32 38 33 33 32 42 39 36 33 40 33 26 36
19 13 17 16 16 14 13 21 26 31 28 33 43 29 31 28 29 28 25 28 27 23 22 20 19 19 23 26 29 30 33 33 29 36 35 44 41 32 33 38 25 22 23
20 16 12 13 17 18 22 23 23 30 32 33 34 31 29 27 30 27 26 27 24 22 20 20 17 18 25 27 27 32 32 28 31 26 32 42 34 42 32 35 26 26 29
22 17 11 10 7 18 17 22 22 27 32 38 37 29 29 30 29 28 27 25 25 20 21 21 17 18 19 21 22 24 20 18 22 25 28 38 41 38 35 33 29 31 35
19 17 14 9 7 9 14 16 20 26 28 32 30 31 28 32 30 25 26 25 24 20 22 20 14 14 16 19 19 21 21 16 25 25 28 27 36 33 35 30 34 35 35
15 16 16 10 4 7 9 17 18 23 27 34 37 46 35 32 31 28 27 24 23 21 21 17 15 14 13 12 17 15 13 22 17 23 25 33 30 38 34 36 33 31 30
11 13 13 11 7 2 8 8 11 13 10 17 27 29 37 27 27 26 25 23 20 20 20 17 17 14 11 12 16 16 14 14 18 19 21 30 33 34 35 33 29 33 34
9 12 13 14 7 3 3 4 8 14 11 17 19 5 28 19 21 22 24 16 13 17 20 19 18 15 12 11 17 21 15 16 15 11 20 29 32 25 28 31 33 26 23
9 11 10 11 14 3 6 8 6 10 12 14 15 16 13 24 19 21 21 20 20 22 22 22 21 17 13 14 12 14 15 14 13 18 18 20 22 31 34 28 26 28 21
11 11 11 10 11 12 3 8 8 11 14 16 24 18 27 27 20 23 24 23 28 26 28 27 24 20 17 16 20 22 22 20 20 19 18 22 24 26 31 28 29 20 26
12 12 11 9 9 12 13 7 9 11 14 15 15 24 20 19 23 23 23 22 28 28 27 27 26 25 22 21 22 25 27 28 25 23 23 27 28 31 28 27 30 29 30
10 11 11 10 9 10 9 9 9 3 12 10 16 21 23 29 30 28 26 28 29 27 25 27 26 26 27 23 23 25 27 29 30 31 32 34 34 33 32 29 27 27 31
8 9 8 7 8 10 9 7 7 7 4 3 4 8 12 17 20 25 33 37 34 34 33 33 31 28 25 26 27 29 29 31 30 32 32 31 28 30 31 31 32 36 38
4 6 7 7 8 9 10 8 5 5 5 4 4 2 2 3 7 11 19 25 26 24 26 28 31 33 34 30 36 36 41 41 40 41 37 40 38 35 37 37 38 33 27
5 5 6 6 7 8 8 7 4 4 3 1 2 1 1 1 1 4 7 8 11 14 16 19 22 21 19 23 23 23 23 23 26 26 26 28 33 33 30 18 14 19 21
6 6 6 6 7 7 8 7 6 2 1 1 1 1 0 2 3 4 3 1 2 4 5 7 9 10 12 16 16 12 11 11 10 14 14 9 10 11 12 14 16 18 20
9 8 7 7 7 7 6 6 6 5 3 3 2 1 2 2 1 1 2 0 0 1 0 3 4 5 5 6 6 7 8 8 10 12 13 15 16 17 16 17 18 20 23
8 8 8 7 8 8 7 6 5 6 6 4 5 4 4 3 3 3 3 3 3 4 5 6 6 7 8 8 8 10 10 11 12 12 13 14 16 17 18 20 22 24 25

GFSMW_700_spd_096.txt.gz
Wind_Speed
33 36 38 44 45 40 37 37 37 34 36 47 47 45 45 36 29 31 33 35 33 28 26 24 21 17 16 16 19 21 26 26 27 27 26 25 22 24 30 19 22 29 29
31 37 32 40 46 47 43 37 40 37 33 35 49 48 44 38 34 34 34 37 36 31 27 26 22 20 19 19 21 24 26 29 28 30 26 28 28 27 27 29 25 28 33
39 37 32 31 37 45 47 44 39 40 35 35 38 47 42 39 40 38 39 39 39 30 28 26 24 22 21 22 23 25 26 29 29 32 30 33 34 30 25 35 32 35 40
39 42 36 32 32 32 37 43 39 40 36 32 35 43 45 43 37 35 43 41 34 32 28 27 25 23 22 24 25 25 28 29 31 31 32 36 33 32 30 29 35 45 41
43 39 38 33 31 29 29 34 34 38 41 35 30 34 37 42 35 36 30 18 19 23 29 27 25 24 24 24 24 24 27 29 28 30 31 33 32 34 32 35 38 44 35
41 38 31 24 24 20 25 25 28 31 36 39 30 32 36 35 35 34 29 27 23 27 30 27 25 24 25 25 23 24 27 28 29 31 33 33 32 34 32 35 37 43 43
36 34 23 19 23 20 19 21 27 30 34 36 28 28 33 36 32 29 34 24 28 28 29 25 24 25 26 25 24 26 31 30 30 31 31 33 32 33 33 36 35 47 43
36 28 23 19 14 15 15 19 25 29 27 32 29 32 34 37 30 36 35 29 30 29 27 26 25 25 26 24 24 27 31 31 31 32 28 25 29 29 34 35 38 46 43
34 29 19 11 9 13 10 15 19 23 28 31 33 33 34 31 36 39 39 31 31 30 30 26 25 25 25 24 24 26 28 31 33 34 32 31 34 31 36 31 35 43 38
30 29 28 15 12 8 10 12 16 21 25 21 22 32 33 33 37 44 25 30 30 32 28 26 24 24 24 22 25 27 28 31 31 34 38 40 34 32 31 31 36 35 33
25 31 28 20 13 11 10 10 13 18 24 22 18 21 30 34 33 33 27 31 31 29 27 25 24 23 22 23 26 25 27 30 35 35 39 35 35 34 37 37 39 30 33
28 24 29 23 11 9 11 13 16 17 19 25 24 24 27 29 37 28 28 30 29 29 27 24 24 22 20 24 26 25 31 32 33 34 37 32 34 37 31 35 33 29 25
26 21 23 22 15 5 7 17 15 18 22 23 27 31 41 35 39 29 31 32 30 29 27 25 21 19 20 24 21 20 22 28 26 17 19 29 27 28 33 31 34 24 27
22 19 19 19 14 8 4 10 18 20 20 24 23 25 29 33 31 31 31 29 32 30 29 23 18 18 20 22 17 17 14 15 14 11 17 20 25 30 26 37 30 31 28
17 17 16 14 11 10 12 11 6 13 17 12 13 25 34 42 30 39 31 30 33 30 26 19 16 18 19 20 16 12 13 14 20 18 17 22 19 28 23 34 29 28 30
16 15 16 14 13 8 6 8 8 9 11 14 14 13 24 24 33 44 34 33 28 23 19 16 14 15 19 19 16 13 15 12 15 13 15 15 23 23 23 24 35 31 31
13 11 12 11 12 10 6 6 9 7 11 14 12 18 17 9 28 37 32 28 23 21 20 17 16 16 18 19 15 13 15 16 9 6 5 20 17 26 33 27 30 30 25
9 10 9 9 9 13 12 7 6 10 11 15 10 11 8 8 26 36 23 20 21 21 19 17 17 20 18 20 17 12 12 14 15 14 9 12 15 27 27 21 25 30 27
8 9 7 7 7 10 12 12 8 8 7 8 14 14 20 22 25 26 25 20 16 15 16 16 17 22 22 20 20 18 18 21 16 20 21 20 16 23 21 28 27 32 38
5 9 8 9 10 10 9 10 11 11 7 6 9 9 12 13 16 18 23 23 21 18 18 19 23 23 20 18 19 23 25 22 25 25 22 24 20 23 26 27 25 27 29
5 6 8 9 10 11 12 11 11 12 12 11 8 7 7 12 17 15 18 19 23 27 24 25 27 30 24 23 25 25 26 29 31 28 31 31 34 31 28 30 32 33 33
6 6 7 8 10 11 12 11 11 10 11 10 9 8 7 4 7 14 13 18 26 19 22 25 30 30 30 31 30 29 30 30 32 32 35 37 32 31 38 37 35 35 37
7 8 8 9 10 10 10 11 10 8 7 8 9 9 8 6 4 4 8 9 11 11 11 13 15 18 21 20 22 26 31 35 37 38 36 33 35 42 40 40 40 43 42
8 7 8 10 10 11 10 10 9 9 7 7 7 7 7 7 6 5 3 1 1 3 4 5 6 7 10 12 13 15 16 18 20 18 19 25 27 27 26 31 28 23 15
11 11 10 9 8 9 10 10 9 8 8 7 6 5 5 5 4 4 3 2 2 2 1 1 2 3 5 7 8 9 11 11 13 14 15 16 15 12 10 11 12 15 18
9 10 11 12 12 11 10 10 9 9 9 8 7 6 6 6 6 6 6 4 3 3 3 2 2 3 4 5 6 7 7 8 9 10 11 12 13 13 13 14 14 13 13

GFSMW_700_spd_099.txt.gz
Wind_Speed
21 24 26 31 37 37 39 42 40 39 39 39 38 54 53 50 48 46 36 32 32 37 39 34 30 27 24 21 18 20 21 24 24 25 23 23 20 18 28 28 31 29 30
21 24 26 29 32 36 37 43 45 44 44 44 43 41 51 53 51 47 39 33 33 39 41 36 32 29 26 24 21 20 22 25 27 27 26 26 28 26 20 26 33 28 26
24 29 33 35 35 37 35 37 42 45 46 44 44 40 43 51 54 49 42 39 38 36 38 38 35 32 29 26 24 21 23 25 26 25 31 29 32 28 28 27 22 24 25
28 35 39 36 32 31 33 34 36 42 44 45 41 42 39 43 52 51 47 46 44 41 43 46 37 34 31 28 25 23 24 25 29 27 31 30 29 29 28 27 29 27 30
34 38 42 45 32 30 37 35 32 32 37 47 43 40 40 41 44 49 46 42 42 41 45 55 37 32 33 28 25 24 25 27 30 30 29 28 33 30 33 31 28 26 34
35 38 43 40 32 28 21 22 28 33 35 41 42 40 38 36 38 43 44 39 40 36 40 48 40 37 32 29 25 25 25 26 29 30 30 31 29 30 31 29 29 27 33
30 40 39 32 29 25 22 25 25 29 34 35 38 38 41 35 33 37 40 41 40 27 17 22 34 31 31 27 26 25 26 27 30 30 29 28 30 29 30 30 30 30 28
31 33 35 31 29 22 21 22 20 22 28 30 32 37 35 31 36 37 37 38 36 39 34 27 26 30 28 28 25 26 24 28 32 31 31 30 31 31 32 32 29 30 34
32 29 30 32 34 17 15 14 15 19 23 26 29 32 33 31 32 37 37 37 39 37 27 32 28 32 30 26 25 25 23 25 33 32 32 32 32 30 27 27 29 27 38
33 30 31 30 32 20 12 12 10 15 19 27 27 29 28 31 34 39 38 36 39 42 32 28 31 31 29 26 25 24 23 25 27 31 34 34 35 35 32 33 30 32 36
33 32 33 28 29 21 16 14 9 13 18 20 22 23 27 30 33 37 39 38 40 39 25 30 32 30 28 25 26 23 21 23 27 31 33 34 34 34 37 36 32 33 27
28 29 33 29 25 20 14 13 16 12 14 18 21 18 21 17 25 28 30 34 34 35 32 31 32 29 27 26 24 21 21 25 31 32 32 33 37 35 41 40 33 33 29
22 34 32 27 23 18 15 11 10 8 13 18 16 21 19 23 20 25 24 25 26 34 26 29 31 30 27 22 22 22 22 27 30 32 31 34 39 40 37 37 34 29 34
26 30 27 24 22 16 15 17 6 10 15 18 23 17 17 19 19 26 27 29 32 42 32 32 31 29 23 22 22 20 22 24 20 14 22 24 20 30 28 25 31 32 37
19 17 20 21 20 18 13 14 15 13 14 15 25 28 25 23 34 38 37 39 37 38 35 32 30 28 23 21 19 19 18 17 15 17 19 21 19 21 24 24 27 38 30
16 18 18 16 16 16 12 12 13 14 16 12 12 18 22 23 22 32 31 31 35 33 32 31 28 25 21 18 18 17 17 18 18 16 17 16 21 14 23 17 26 22 37
17 15 16 12 11 12 14 11 12 8 11 10 9 14 19 17 18 21 31 33 31 31 28 29 27 26 21 17 16 16 17 19 18 13 8 8 18 16 18 18 20 26 27
12 11 11 8 9 11 14 13 12 11 9 11 17 12 8 10 12 14 28 43 37 30 27 26 26 24 18 16 15 16 15 18 16 15 9 8 6 13 15 15 31 29 26
8 9 8 7 8 11 11 12 14 14 12 6 4 7 10 13 14 10 25 30 34 27 27 25 22 19 17 16 15 16 15 18 18 16 16 13 14 8 13 24 22 24 34
4 7 5 8 11 11 12 14 14 16 14 9 9 7 5 5 6 10 18 28 25 25 25 18 18 17 15 14 14 19 20 20 18 21 17 19 21 17 18 23 27 25 26
2 3 7 9 10 12 13 14 16 13 15 15 16 14 10 8 3 5 9 16 18 22 27 23 23 19 20 20 20 18 19 20 25 25 22 27 20 21 20 23 27 27 25
5 5 7 8 10 11 12 13 13 15 16 16 17 17 14 11 9 5 1 3 6 13 16 16 22 24 26 26 27 23 26 25 23 27 31 31 31 28 27 30 29 31 29
8 8 8 9 10 11 12 13 13 14 14 15 15 15 15 14 13 12 9 6 4 4 5 8 13 14 16 19 19 26 29 31 30 30 32 28 31 35 35 33 39 44 42
13 12 12 12 12 11 12 12 13 13 13 13 13 13 13 13 12 10 10 9 7 5 3 2 5 7 8 10 12 14 16 18 21 21 25 29 31 36 35 38 43 44 38
13 13 13 12 12 12 13 13 13 13 13 13 13 12 11 10 10 9 8 6 5 5 4 3 1 2 4 6 8 9 10 11 13 15 17 18 19 19 21 22 23 24 24
11 11 11 12 13 13 12 12 11 11 11 12 12 12 13 12 11 10 9 8 7 5 4 4 4 4 4 4 4 5 6 7 7 8 10 11 12 13 14 14 15 15 16

GFSMW_700_spd_102.txt.gz
Wind_Speed
16 17 20 23 27 31 34 36 37 38 44 47 49 50 54 58 57 56 52 54 51 41 39 38 37 37 34 31 27 24 23 23 24 28 28 28 25 26 25 19 20 26 31
11 13 16 19 23 32 37 38 38 42 42 52 53 51 48 47 55 58 56 56 52 45 40 39 37 38 35 34 30 27 25 23 25 29 27 32 26 29 24 17 18 30 31
10 14 18 23 27 29 35 40 39 46 49 46 56 55 50 49 48 52 60 56 56 47 41 40 38 39 37 35 33 30 27 25 26 28 31 34 31 28 27 23 21 26 33
14 21 25 27 31 32 34 35 39 40 42 43 50 57 54 52 48 40 44 57 58 52 43 40 42 42 40 37 35 32 30 28 28 30 32 33 33 27 28 24 23 22 20
16 21 24 29 33 35 35 33 36 38 42 38 43 53 53 48 41 41 40 51 58 51 48 50 56 39 32 40 39 35 31 30 31 32 34 33 33 35 31 26 25 29 25
16 23 26 30 32 31 38 39 30 27 29 35 38 43 49 44 40 40 41 41 51 53 50 47 49 41 40 54 41 37 33 33 34 33 33 35 32 33 30 33 27 28 29
16 23 28 25 32 30 34 36 28 24 25 31 37 39 44 43 43 42 44 43 46 48 47 45 44 46 43 48 60 38 35 34 35 32 32 30 33 34 31 32 31 29 27
18 26 32 30 33 33 33 30 23 21 26 28 31 33 40 43 43 44 44 38 39 41 44 42 37 29 47 60 39 41 34 36 33 30 29 34 32 32 33 32 30 31 30
21 28 30 31 32 32 32 28 22 19 19 20 26 31 36 43 41 44 37 43 40 45 48 46 39 29 33 39 39 36 34 34 32 29 31 30 32 32 31 33 32 32 34
22 27 29 31 28 30 29 29 21 18 11 15 18 23 25 30 36 35 35 36 42 42 46 42 46 50 35 29 37 36 34 33 31 30 31 29 33 35 32 34 34 35 32
22 26 30 33 29 29 27 23 16 16 12 16 20 24 25 30 35 34 37 36 32 40 39 39 48 46 29 31 33 35 33 32 29 28 29 32 34 35 34 34 35 36 35
28 29 33 32 31 30 26 26 17 23 14 15 20 25 28 33 32 33 33 36 35 36 37 44 43 42 33 35 36 34 31 29 29 29 25 28 31 33 35 35 39 46 43
33 36 32 29 28 28 28 26 25 14 16 19 21 23 21 22 27 25 26 31 32 36 39 34 35 40 34 37 36 32 30 25 23 26 28 28 32 37 36 37 40 42 39
24 25 24 24 23 27 28 26 22 20 16 9 24 24 25 21 22 23 19 23 25 34 39 34 37 34 34 34 30 30 27 25 24 22 26 26 29 32 38 43 43 39 35
21 20 21 20 21 24 25 26 20 15 19 17 16 19 26 28 13 20 20 22 26 26 26 26 34 35 33 31 30 28 26 25 24 23 19 23 25 22 29 26 32 36 37
19 20 21 21 18 20 18 19 17 15 10 7 10 14 26 27 24 19 19 31 28 27 31 35 41 43 39 31 30 29 26 23 22 21 21 22 27 29 25 30 25 22 29
18 17 16 15 13 14 13 14 14 11 11 9 14 9 6 11 23 27 27 30 32 38 45 47 42 47 37 33 30 29 26 24 21 23 20 21 16 19 26 24 24 19 26
12 10 12 10 10 10 10 11 14 16 13 9 8 8 7 5 10 10 15 21 27 28 33 43 41 37 34 33 31 30 26 22 20 23 21 20 17 11 21 22 19 21 23
6 7 5 6 7 8 9 11 14 17 15 11 8 7 6 6 9 11 14 15 25 31 40 39 38 33 34 32 30 29 25 22 21 22 20 19 16 12 10 15 17 20 16
1 2 7 9 9 9 11 14 15 15 13 16 16 15 12 10 7 7 6 9 24 32 35 36 32 30 27 25 26 27 23 20 21 23 23 22 20 14 15 13 14 16 18
4 7 9 8 9 11 12 12 13 12 16 19 20 19 18 15 12 11 7 4 8 15 16 26 27 28 26 23 20 19 23 24 24 25 23 24 23 20 20 18 17 24 24
7 8 9 9 11 12 12 13 12 15 17 19 18 18 18 18 17 15 13 9 6 2 9 8 12 19 26 26 25 24 24 24 23 25 27 29 27 30 24 23 25 25 28
8 8 9 11 12 12 13 14 15 16 17 18 17 17 18 17 17 17 16 15 12 8 4 2 4 7 10 13 17 25 28 30 30 31 30 28 26 29 31 31 31 30 32
10 10 12 12 12 12 13 13 15 16 16 16 16 16 16 16 15 15 14 13 13 12 9 7 6 5 6 7 10 12 12 15 17 21 24 23 25 28 29 31 37 33 33
9 10 10 10 10 11 12 13 14 14 15 15 15 15 15 14 14 14 13 13 12 11 9 8 5 4 6 6 6 7 7 8 10 10 12 13 15 18 21 23 25 28 29
9 10 11 11 11 11 12 12 13 13 13 14 14 15 15 15 14 13 12 11 11 10 10 9 8 6 6 6 6 6 6 6 7 8 9 10 12 14 16 17 19 21 22

GFSMW_700_spd_105.txt.gz
Wind_Speed
15 9 19 22 23 26 28 29 31 34 37 39 44 50 55 57 59 59 57 57 53 53 48 47 46 43 41 39 38 33 33 29 26 24 26 30 29 30 33 31 27 31 34
10 11 17 19 20 24 27 29 30 31 35 41 45 49 54 55 57 58 62 59 58 57 54 49 48 42 42 40 39 36 34 33 30 25 24 28 29 31 32 33 30 27 28
10 15 16 19 22 25 28 29 32 35 35 37 45 51 55 55 59 59 58 56 59 59 62 57 54 44 44 41 40 38 37 34 33 27 26 27 30 30 31 30 31 25 17
14 15 15 16 19 23 26 28 30 31 34 35 43 51 54 57 58 58 47 52 49 51 54 54 51 50 47 43 41 41 38 37 35 32 28 27 31 31 31 27 28 26 23
12 12 12 14 19 22 24 27 32 33 32 38 39 44 48 46 48 55 47 51 50 44 39 52 56 55 50 44 42 44 39 38 38 34 30 29 30 31 34 30 29 28 28
12 13 15 18 22 24 28 32 34 35 37 35 34 36 39 43 43 45 52 50 50 46 44 46 56 55 50 47 46 54 41 37 37 35 34 32 32 32 34 33 31 29 29
13 15 17 21 23 26 28 33 36 34 35 30 30 30 34 37 43 40 48 46 46 46 47 43 50 52 50 49 51 49 37 37 39 36 35 34 33 32 32 33 33 30 32
14 16 19 21 25 28 28 30 32 33 34 26 26 29 31 35 36 35 43 44 44 46 43 38 42 46 52 49 47 45 37 40 41 37 37 36 34 34 35 34 34 33 32
15 16 19 22 27 30 30 31 30 30 28 22 25 25 28 29 31 34 41 43 43 42 40 41 43 49 51 49 49 46 42 43 51 39 38 41 35 31 31 34 33 31 36
17 21 25 29 34 33 31 30 29 30 26 22 22 19 20 22 23 27 37 41 41 39 37 36 42 47 45 44 40 48 49 40 41 47 44 40 34 30 30 32 35 35 33
20 25 29 35 41 34 32 31 29 28 27 23 20 19 21 18 21 26 31 37 36 39 35 36 36 40 45 47 44 38 42 44 43 43 40 36 32 33 30 32 31 37 37
28 32 36 38 35 30 31 30 28 28 28 29 24 20 22 23 23 28 31 33 35 37 36 35 38 38 38 46 47 47 38 43 40 37 36 34 30 28 33 36 36 33 34
29 30 30 30 28 26 28 27 27 27 27 23 27 23 24 24 25 30 29 31 33 35 32 32 35 36 39 45 49 52 30 28 34 35 36 32 32 33 30 34 33 32 37
27 25 24 24 25 26 27 26 25 26 26 26 22 31 25 30 27 28 30 32 34 38 35 35 34 32 35 37 33 35 40 34 33 35 33 29 29 30 34 34 36 32 37
22 22 21 22 24 25 23 23 23 23 22 21 16 21 14 22 26 27 23 33 33 39 49 39 37 38 41 36 38 40 35 34 35 32 27 26 26 29 32 30 31 34 39
20 19 19 22 23 20 18 18 18 19 17 15 13 13 14 18 18 31 20 24 24 18 36 38 36 36 36 37 34 28 31 34 33 31 29 28 33 29 30 29 33 35 38
17 16 17 18 17 13 11 11 13 16 16 13 12 11 12 10 6 18 23 27 18 22 29 32 37 37 40 36 42 40 33 35 33 31 33 31 28 26 27 29 35 34 34
13 12 12 14 9 6 8 9 13 14 15 14 12 8 7 9 9 7 9 20 22 26 34 42 34 37 38 40 40 38 34 35 34 32 33 29 26 25 24 28 31 26 24
8 7 7 2 4 8 8 12 13 13 13 13 14 15 16 12 9 9 6 10 17 17 17 35 42 45 46 44 40 40 38 39 36 34 33 29 29 25 22 15 18 24 25
4 1 1 4 7 8 9 12 11 11 13 16 18 21 20 18 17 15 14 10 8 8 17 23 25 25 41 42 39 39 41 37 34 34 33 31 28 25 23 21 19 19 20
2 3 5 8 10 10 11 11 11 11 15 19 20 20 20 21 20 21 20 19 14 6 3 9 23 30 43 40 36 33 31 29 31 29 23 23 25 29 26 24 21 17 18
5 6 8 10 10 10 11 11 11 14 16 17 18 19 20 22 22 22 21 19 19 17 14 8 0 6 17 22 26 26 29 30 29 29 32 30 26 30 28 26 24 23 21
7 9 10 10 9 10 11 11 13 14 15 16 16 17 19 20 20 20 20 19 19 17 15 15 13 10 4 4 9 17 23 28 32 31 29 32 33 36 29 35 27 25 27
9 9 9 9 9 9 11 12 14 14 15 15 16 16 16 16 16 17 17 17 17 17 16 15 14 13 12 10 8 7 6 10 15 14 21 25 26 28 34 36 34 35 36
7 7 8 8 9 10 11 11 12 12 13 14 15 15 15 16 16 15 14 14 13 13 13 13 12 12 11 12 11 10 9 9 9 11 9 10 12 16 20 19 23 24 25
5 6 6 7 7 9 10 11 13 13 14 15 14 15 16 16 15 15 15 15 14 14 12 12 12 11 12 12 11 11 11 11 10 10 11 11 11 12 14 15 16 18 18

GFSMW_700_spd_108.txt.gz
Wind_Speed
22 21 22 25 24 21 23 24 26 28 29 31 34 38 43 46 49 50 49 49 51 52 51 50 50 53 52 47 46 38 37 35 33 33 32 27 26 26 27 30 30 31 29
22 18 15 26 17 19 21 23 24 26 27 30 32 34 38 43 49 51 56 59 57 57 53 56 55 56 52 55 48 43 41 37 35 36 34 30 27 25 27 28 29 27 28
22 14 17 18 14 21 21 23 25 27 29 31 33 35 38 41 44 49 53 55 58 59 63 58 60 61 56 44 47 38 40 35 34 38 36 32 31 26 25 27 28 26 25
21 17 19 12 15 17 19 20 21 22 26 29 31 35 37 39 42 48 51 54 55 61 60 57 53 60 56 51 49 34 39 35 34 38 37 32 33 29 28 26 26 26 26
20 21 12 13 14 14 16 18 20 23 25 28 29 33 36 37 39 43 48 52 57 59 65 59 54 49 56 54 52 48 49 37 38 39 34 32 33 32 32 30 26 26 24
21 14 11 13 14 14 17 21 22 24 27 30 32 33 35 35 35 36 39 45 46 57 52 53 54 45 43 47 49 52 51 41 41 39 47 34 33 33 32 32 31 26 24
20 13 14 14 16 19 21 23 24 26 28 31 32 34 33 33 31 28 32 36 43 52 42 53 48 44 42 40 44 45 50 35 40 37 40 44 32 31 33 32 33 29 27
13 15 16 17 20 22 26 27 29 28 28 30 30 28 28 30 29 30 30 31 38 44 52 27 39 40 42 40 40 43 44 43 40 39 45 58 39 30 32 32 34 33 30
12 13 17 20 23 27 32 33 33 28 28 29 30 26 27 28 27 27 29 32 34 35 43 38 37 38 41 43 43 40 45 38 44 44 49 35 34 30 32 33 34 33 34
8 15 21 25 29 33 36 38 33 29 28 29 29 27 25 26 22 22 25 25 27 33 35 35 36 34 35 39 36 43 46 43 48 41 38 33 37 35 34 34 33 33 34
12 18 25 31 36 37 39 34 32 28 27 27 27 28 25 25 22 20 23 23 23 27 36 37 37 39 32 35 38 39 41 46 39 41 42 42 42 41 38 35 35 34 32
21 26 30 34 37 36 35 29 28 27 26 25 24 27 26 27 25 23 23 26 30 31 33 36 38 36 33 26 31 37 39 41 40 45 44 44 42 38 37 36 34 32 27
26 27 29 30 32 30 30 28 29 28 26 25 23 24 26 26 26 27 26 28 27 28 35 34 33 36 34 33 32 32 37 42 33 37 40 30 31 33 37 33 33 30 29
27 26 26 27 28 27 27 25 26 25 24 24 23 24 23 23 28 30 35 32 27 29 32 34 28 37 28 29 33 36 43 42 38 37 26 31 32 33 32 33 35 33 31
27 26 24 23 23 24 23 22 22 22 21 21 21 20 20 22 20 22 27 30 33 29 32 35 37 35 24 27 28 32 37 38 35 45 46 36 32 30 32 32 31 31 36
24 23 19 19 20 20 19 18 17 17 17 18 20 20 20 18 18 20 24 25 32 35 23 39 50 30 31 31 30 31 32 36 35 29 35 28 30 30 30 30 30 31 34
21 18 14 14 16 14 12 11 11 13 16 18 19 19 17 15 13 13 13 18 25 27 25 38 49 28 39 33 32 32 35 29 31 29 28 31 31 34 36 31 31 32 31
16 14 11 12 11 6 5 6 9 12 14 17 17 16 16 14 11 9 10 9 14 17 25 18 18 28 30 38 32 35 34 33 39 35 31 36 34 33 33 31 30 32 32
11 10 8 6 3 2 4 8 10 12 16 14 16 17 20 20 21 19 17 15 15 9 15 16 25 28 32 33 29 34 36 38 37 36 37 36 36 33 31 31 32 25 23
8 5 3 2 2 3 7 10 10 13 12 15 18 19 22 23 24 26 26 25 20 16 12 8 10 25 32 35 43 41 40 43 36 35 36 35 37 32 31 31 29 28 24
2 2 3 3 5 7 11 10 11 11 15 16 17 19 21 23 23 25 25 25 25 24 21 18 12 8 12 14 25 42 39 40 45 50 45 42 36 33 30 32 29 29 26
1 2 3 4 7 10 10 10 10 13 14 15 17 18 20 21 21 22 22 23 23 22 21 21 19 17 13 4 11 18 18 21 28 29 30 33 32 29 26 29 30 29 31
3 4 7 10 11 11 10 11 12 13 14 15 16 17 19 20 20 20 20 20 20 20 20 19 18 18 18 17 14 8 4 10 13 15 24 26 29 27 30 32 35 34 29
8 8 9 10 10 9 9 10 12 13 14 15 16 17 18 19 19 19 19 19 19 19 20 20 18 17 16 16 15 14 13 11 10 7 8 11 16 25 30 33 31 34 39
9 9 9 9 9 10 12 13 13 15 15 16 17 18 18 18 19 20 20 20 21 20 18 17 18 18 16 14 14 13 13 13 12 12 11 10 10 10 13 16 18 19 22
7 7 7 8 9 10 11 12 13 14 14 15 16 17 18 19 20 20 21 22 22 22 22 21 19 18 19 19 16 15 15 13 12 12 12 12 12 11 11 12 13 13 13

GFSMW_700_spd_111.txt.gz
Wind_Speed
34 38 42 42 40 33 29 28 25 24 25 28 30 31 33 36 39 41 42 44 45 45 45 46 45 44 48 49 52 51 45 42 38 35 34 33 32 30 26 23 24 22 22
35 38 36 35 29 24 28 28 22 22 24 25 27 29 31 32 36 38 42 44 45 46 48 51 54 53 52 51 53 54 50 48 43 38 34 37 35 32 28 26 24 22 21
39 35 33 32 24 24 27 21 20 22 24 25 26 28 30 32 34 37 40 43 47 50 52 53 53 55 57 56 55 54 49 66 39 38 35 38 38 32 30 27 24 23 22
34 39 45 23 16 24 19 14 18 21 23 24 25 26 29 31 33 35 37 40 44 49 54 57 53 52 54 54 56 52 63 52 51 38 38 35 36 36 33 30 26 24 22
35 40 31 18 24 19 13 12 15 19 22 24 26 26 26 30 33 33 34 37 41 47 52 57 59 55 54 53 54 55 58 55 48 58 36 35 37 38 36 33 30 26 23
33 35 22 22 23 19 16 15 16 18 21 24 26 28 29 29 30 30 31 34 39 43 48 54 60 57 55 52 53 49 49 50 43 43 38 43 39 35 38 35 31 27 25
33 25 21 22 27 18 19 22 26 26 27 26 26 28 30 31 30 27 28 27 30 32 37 43 52 52 52 51 51 45 45 44 49 44 44 42 42 35 33 36 36 31 26
24 20 15 15 18 20 22 24 28 31 31 31 28 29 30 31 31 29 27 26 29 31 34 33 38 43 44 51 55 44 44 41 42 45 47 43 39 38 43 41 33 35 28
14 11 14 15 18 19 25 30 33 33 32 30 29 28 29 29 30 30 29 29 29 30 30 32 33 36 39 49 33 40 38 37 39 47 62 49 39 30 39 40 41 36 30
5 6 10 14 17 23 29 34 36 35 32 29 28 27 27 28 30 30 28 27 27 25 26 29 34 31 37 33 33 31 35 38 39 40 39 42 34 35 37 36 32 35 28
4 10 18 21 25 30 34 35 35 34 31 28 26 27 27 29 29 29 30 28 26 24 23 25 28 30 33 37 30 31 34 35 39 38 39 37 33 36 35 34 31 27 29
19 25 26 26 27 30 32 33 33 32 30 28 25 26 27 27 31 29 30 30 27 27 26 28 27 31 34 38 33 33 31 33 36 39 40 41 35 39 33 36 39 27 30
25 28 28 28 28 28 30 30 30 29 27 26 25 26 26 26 28 28 29 31 29 29 30 32 28 34 41 37 34 30 25 28 30 31 37 40 39 31 35 36 37 42 33
27 28 28 27 26 28 28 27 27 27 25 25 24 25 25 25 23 25 25 27 31 31 32 32 34 25 45 32 38 31 29 28 28 29 29 29 29 38 43 48 46 32 32
27 26 26 25 24 25 24 24 24 23 22 21 20 21 22 23 23 24 23 24 29 32 27 32 29 31 37 26 21 31 33 36 33 34 33 33 30 20 19 18 24 29 32
23 21 21 22 21 20 20 20 19 17 16 17 18 19 20 20 21 23 22 22 23 20 24 29 28 22 34 23 19 26 25 26 32 37 35 30 34 30 26 25 27 23 28
22 21 21 18 15 16 15 13 11 11 12 14 16 16 17 18 17 16 16 16 18 18 20 22 24 25 31 33 33 32 28 27 28 31 34 31 24 25 32 30 29 31 28
17 17 16 14 13 11 7 5 6 8 9 11 14 17 18 19 21 20 18 14 15 14 14 17 22 20 26 35 43 29 31 33 28 25 26 22 22 27 28 28 28 33 30
13 12 12 12 9 6 4 4 4 7 8 11 15 18 19 20 22 24 27 28 27 24 20 10 7 11 18 15 26 29 31 33 26 28 32 31 40 31 28 33 35 35 33
8 7 6 4 2 2 2 3 4 7 11 14 17 20 20 21 22 25 26 28 28 29 29 29 24 16 12 11 17 21 27 30 28 35 35 39 36 32 32 30 32 32 33
3 3 2 2 3 3 5 6 8 12 13 15 17 16 19 21 22 24 24 26 26 25 24 25 25 26 25 20 12 9 18 24 32 29 34 30 36 31 33 32 33 34 31
2 3 4 5 5 6 9 11 10 12 15 16 18 19 20 20 22 23 23 24 24 24 24 25 24 22 21 22 22 18 11 7 10 13 19 33 41 37 38 36 39 36 34
6 6 6 8 7 7 10 13 13 14 15 17 17 18 19 20 21 22 22 22 23 23 24 24 23 23 23 21 18 16 17 15 13 10 10 8 9 22 37 35 39 34 31
8 8 8 8 10 12 13 13 14 14 16 16 17 18 19 20 20 21 21 22 22 23 23 24 23 23 22 21 19 17 16 13 12 13 14 13 12 11 9 17 28 33 36
9 9 10 11 11 12 12 13 13 14 15 17 17 17 18 18 18 20 20 21 22 22 23 22 22 22 20 19 19 18 16 15 14 13 12 12 12 12 11 10 10 9 12
11 11 11 11 10 9 10 12 14 15 16 16 16 18 19 21 22 23 23 23 23 24 24 24 23 22 22 22 21 20 19 18 17 16 14 13 12 12 11 12 12 11 10

GFSMW_700_spd_117.txt.gz
Wind_Speed
35 37 40 40 41 48 49 46 41 36 36 37 38 37 39 38 41 42 40 40 41 42 41 42 44 44 43 43 40 40 38 42 41 43 52 45 39 39 39 41 38 34 30
30 33 32 35 43 47 46 43 40 39 39 38 38 37 38 34 37 39 41 40 40 42 45 46 46 46 46 46 45 43 43 44 41 41 42 44 46 52 52 42 44 38 32
24 29 31 35 43 40 39 38 38 38 38 37 35 34 38 34 31 35 37 38 40 41 42 44 46 47 49 50 49 49 47 47 48 46 44 46 47 45 33 41 50 40 34
29 32 33 38 42 32 30 34 33 31 31 28 28 37 36 31 30 29 31 33 37 40 42 43 45 46 47 49 49 50 52 51 53 52 49 50 48 50 48 37 39 38 31
31 36 33 37 40 44 29 27 25 25 25 25 23 29 32 31 29 29 30 31 34 36 39 42 44 45 46 48 49 49 51 53 53 54 52 54 53 50 47 51 44 50 35
35 34 36 38 37 32 29 33 25 23 23 24 28 35 36 34 33 33 32 31 33 33 35 39 41 43 44 45 47 49 50 51 51 51 53 55 53 53 51 48 45 41 44
34 32 31 30 26 25 19 20 23 19 25 27 28 32 33 31 30 34 33 32 32 33 34 36 37 40 41 43 45 46 47 49 50 49 49 52 53 51 49 49 51 45 41
3 5 10 13 11 11 14 16 16 17 22 27 29 29 30 31 31 33 33 31 32 33 33 35 37 37 38 39 40 40 40 41 42 44 45 49 51 51 52 50 54 47 45
12 5 3 4 4 5 10 11 15 19 24 26 28 28 30 32 33 35 34 33 32 33 33 33 34 35 36 37 38 40 40 43 43 41 40 44 50 51 49 47 46 50 48
10 27 21 27 23 12 12 11 15 17 21 24 27 28 30 33 35 37 36 33 33 33 33 32 33 33 34 35 36 37 38 40 40 35 35 39 41 46 49 52 52 54 52
16 23 24 21 24 21 18 21 22 23 23 25 27 28 30 30 31 31 34 34 33 32 33 32 32 33 34 34 35 36 35 37 38 39 39 41 42 47 40 38 43 47 46
10 13 19 23 23 23 24 22 22 23 23 23 24 26 27 26 27 26 27 30 31 33 34 32 31 32 33 34 35 35 35 36 35 39 42 38 37 31 38 41 41 45 49
12 17 22 25 26 25 25 24 24 22 22 21 20 20 21 23 24 24 24 26 28 30 33 33 31 32 32 33 35 36 37 38 34 33 39 38 37 36 37 41 40 41 43
17 21 22 26 28 23 21 21 20 17 16 16 16 16 17 18 19 20 20 23 26 27 28 30 30 30 26 28 31 36 40 39 37 38 38 40 42 41 40 44 43 43 39
20 22 25 24 21 19 18 17 16 14 13 13 12 12 13 14 15 16 16 17 19 21 22 24 25 26 27 25 25 26 33 37 39 41 41 41 47 45 42 42 41 43 40
21 23 22 19 16 15 13 12 11 10 9 9 9 10 11 12 15 17 17 17 18 19 20 19 19 20 21 22 21 25 27 28 34 37 46 47 50 48 35 38 45 46 46
18 16 15 14 13 11 9 8 8 8 8 7 6 7 9 11 13 16 19 21 23 26 28 28 21 18 18 21 22 24 26 27 31 32 30 37 49 48 36 44 37 49 39
13 11 9 8 8 6 7 8 9 9 8 7 7 8 10 12 14 16 18 21 24 25 27 28 28 33 30 22 15 16 21 25 24 27 30 21 24 32 27 27 29 32 36
11 9 7 5 4 6 6 7 8 7 5 5 9 13 12 11 13 15 16 18 20 21 21 23 23 24 29 33 33 25 16 13 18 19 25 24 27 34 34 30 34 35 34
6 3 2 3 5 6 6 7 6 6 9 9 8 11 12 14 15 16 18 19 21 22 22 22 23 23 19 18 23 29 30 25 22 17 15 27 25 30 35 38 37 31 32
3 1 3 5 6 6 7 9 9 8 7 9 11 12 13 14 16 18 19 19 21 21 21 21 21 21 20 22 21 17 14 20 27 28 25 15 7 25 31 30 35 36 32
5 5 7 8 7 7 7 8 7 6 8 10 11 13 15 17 18 19 19 20 20 19 20 21 21 21 21 20 20 21 22 19 15 14 21 24 25 21 10 27 36 40 37
8 8 9 8 7 7 7 8 6 7 8 10 12 13 15 16 17 18 19 19 19 20 20 20 20 20 20 21 22 21 20 19 20 20 17 12 11 16 22 19 14 16 31
11 10 9 8 8 7 6 6 6 8 9 11 13 14 15 16 16 17 18 19 20 21 22 23 23 24 24 22 21 20 20 20 20 19 19 18 16 12 9 8 13 17 13
12 11 10 9 7 5 5 5 6 9 12 13 15 16 17 18 20 21 23 24 25 25 27 28 29 29 28 28 30 30 27 25 23 22 21 19 19 18 17 14 12 11 9
13 12 11 8 5 4 4 6 8 11 13 15 17 18 20 22 24 25 27 28 29 30 30 29 28 28 29 30 30 30 31 30 28 26 26 25 24 22 21 19 18 17 15

GFSMW_700_spd_120.txt.gz
Wind_Speed
26 30 30 28 29 33 35 35 34 34 35 36 35 34 33 34 34 37 40 40 38 37 38 42 43 44 47 46 45 44 40 44 37 44 47 53 42 60 48 44 37 36 37
24 26 28 26 24 26 31 33 36 37 37 36 35 34 33 34 35 36 40 40 39 39 39 40 43 46 46 47 45 45 45 45 40 38 38 44 38 42 56 53 49 48 52
23 26 26 24 24 26 33 36 37 38 36 34 32 33 34 35 32 37 41 37 38 39 40 41 41 43 47 48 48 48 47 46 43 40 41 40 41 38 44 45 39 42 43
18 21 21 25 28 29 34 36 36 40 32 32 30 33 34 33 37 36 34 33 33 35 36 39 41 41 43 45 46 47 49 49 48 48 46 47 46 47 51 49 43 39 36
19 23 26 30 28 33 36 36 34 37 16 22 27 32 28 36 34 34 32 34 32 33 34 36 38 39 39 41 43 44 45 47 48 48 49 48 49 50 51 52 48 47 43
23 28 29 35 34 31 36 34 33 30 33 25 23 25 26 30 34 39 36 35 32 34 36 35 37 38 39 40 40 41 42 44 45 46 48 50 50 52 52 52 51 49 47
20 23 24 26 26 27 32 44 45 42 25 18 22 22 24 31 32 32 33 31 30 29 31 34 36 37 38 38 39 39 40 40 41 44 45 46 46 48 49 50 52 50 46
10 14 19 20 18 13 8 11 9 13 19 20 23 23 28 29 31 32 34 33 31 31 32 31 34 36 37 37 39 39 39 38 37 38 39 39 38 42 45 47 47 50 48
7 6 10 17 14 16 19 12 10 11 13 19 22 24 27 30 33 35 36 34 34 32 31 32 35 35 36 35 37 38 38 38 38 37 39 40 38 37 39 45 47 47 50
9 10 11 14 16 16 15 18 17 18 19 21 23 24 25 30 32 33 32 31 33 34 32 31 33 35 35 34 36 36 37 37 37 36 36 37 35 35 37 41 46 50 51
6 8 12 15 19 18 14 17 16 20 24 27 29 30 28 28 29 30 30 30 30 29 29 30 31 33 33 35 35 35 37 38 37 35 34 34 33 35 33 37 42 44 47
9 11 14 19 23 24 24 19 21 22 22 22 23 25 24 25 26 26 25 25 25 27 29 29 30 32 32 33 33 33 35 37 37 35 34 33 31 33 37 39 42 46 47
14 16 19 22 24 26 24 20 21 22 23 21 21 20 19 20 21 22 22 22 23 23 25 26 27 30 30 30 30 32 34 36 39 38 37 35 32 34 35 36 39 40 38
15 18 22 25 25 21 18 18 18 17 17 16 15 14 14 15 14 13 14 16 17 19 19 21 23 25 27 27 28 29 31 35 37 39 39 35 35 38 35 40 37 38 33
17 21 23 26 23 17 15 15 15 14 11 10 8 8 8 7 8 11 14 16 18 21 21 21 20 20 21 23 24 27 30 29 28 28 33 38 39 35 39 36 38 43 40
21 22 23 23 19 15 12 10 9 8 9 9 9 7 5 4 6 10 12 15 18 20 21 23 28 29 24 20 18 21 25 26 28 27 29 37 40 41 40 44 41 49 46
21 21 20 17 15 13 11 8 6 6 7 8 6 5 4 6 10 10 13 13 14 17 17 19 22 26 29 32 29 24 19 19 25 25 28 29 32 34 36 38 48 47 49
19 17 15 14 12 8 4 3 4 6 6 5 4 7 12 10 9 12 13 13 15 17 18 19 20 20 20 23 27 31 33 30 23 15 21 25 26 32 33 27 33 37 47
15 13 10 8 6 3 1 1 3 4 3 6 11 10 7 9 10 11 12 14 16 17 19 20 20 20 20 19 19 19 23 32 34 32 26 18 17 24 28 25 29 43 52
12 9 7 6 5 3 2 3 4 6 7 5 6 8 10 11 12 14 15 17 18 20 21 21 21 21 21 21 20 20 20 19 21 28 35 30 29 24 17 24 29 29 36
10 9 7 6 5 5 7 7 7 6 5 7 9 11 12 12 13 15 17 19 21 22 23 25 25 25 23 23 23 22 22 21 21 20 17 24 31 33 27 25 13 29 31
11 10 8 8 8 7 6 6 6 4 7 8 10 12 13 13 16 18 19 20 21 22 23 23 24 25 26 27 26 26 26 25 23 21 20 19 17 16 21 25 26 21 12
12 12 12 11 9 8 7 6 5 6 7 9 10 11 13 15 16 17 18 20 21 22 23 23 24 23 23 25 26 26 26 25 26 25 24 22 20 19 17 15 15 16 23
15 15 13 11 10 8 6 5 5 6 8 9 11 13 15 17 19 21 22 23 23 23 23 24 24 25 24 23 22 23 24 24 25 25 25 25 25 24 22 21 18 15 13
16 14 13 12 9 7 5 5 5 6 9 11 13 16 19 22 24 24 26 27 27 27 27 27 27 27 27 29 29 28 27 25 25 25 26 26 24 22 22 23 22 20 18
14 14 13 10 8 6 5 4 5 8 10 13 16 20 22 24 25 27 27 29 30 30 30 30 30 31 32 31 30 30 28 28 29 29 29 29 29 29 29 25 23 22 22

GFSMW_700_spd_123.txt.gz
Wind_Speed
22 22 23 26 27 29 30 29 29 24 22 24 29 32 35 35 33 31 30 29 30 32 36 37 34 35 36 40 41 43 43 46 47 50 49 56 67 60 38 66 43 45 46
23 23 22 23 24 24 25 25 25 26 27 29 33 36 38 36 33 32 30 30 32 36 38 35 34 34 35 36 39 43 43 43 44 44 47 30 36 31 31 31 35 54 53
24 25 25 24 22 20 21 22 24 27 30 34 34 36 36 36 31 30 28 30 33 37 39 35 33 34 35 36 38 41 44 46 47 46 45 46 47 38 35 33 30 35 43
22 24 24 24 22 24 26 26 25 28 32 36 36 35 29 34 30 28 30 29 31 38 38 35 33 32 33 35 37 39 42 45 46 46 47 44 46 43 44 42 39 38 37
16 18 20 25 25 25 24 32 30 28 31 35 40 38 38 30 25 27 29 29 35 38 40 38 38 37 35 34 35 37 39 41 44 44 45 46 46 45 46 48 46 45 43
15 17 19 22 26 31 30 36 34 32 32 41 40 42 32 27 22 27 27 31 37 37 38 41 40 37 36 35 36 36 37 38 40 41 42 44 45 46 46 49 49 48 49
14 14 15 17 18 20 26 30 30 34 36 32 35 30 26 25 27 30 28 36 34 36 36 38 37 37 35 35 36 37 36 37 37 36 38 40 42 43 44 45 45 48 48
10 13 13 15 16 16 18 19 19 16 23 25 23 27 25 30 29 26 33 35 31 35 37 38 40 38 36 35 35 36 37 37 36 35 35 36 37 38 39 40 41 41 44
7 9 11 9 11 13 13 16 16 16 11 11 13 18 20 20 22 29 31 29 32 35 36 39 38 37 37 35 35 35 35 37 36 35 34 35 35 36 37 36 37 38 43
5 5 8 12 14 17 18 17 17 15 16 14 17 21 25 24 23 25 27 32 34 33 35 35 36 32 33 35 35 33 33 35 35 36 35 34 34 34 34 36 38 38 42
8 9 11 14 17 20 22 23 20 20 18 18 19 20 24 27 24 24 25 29 30 30 30 30 30 30 31 32 34 33 32 32 33 34 35 35 33 34 32 33 36 38 40
11 13 15 16 18 22 26 23 19 18 18 20 19 17 19 20 21 21 21 23 23 23 24 25 26 28 29 29 30 29 30 33 32 31 33 32 31 34 32 33 35 38 38
16 16 18 20 22 24 24 21 17 16 18 17 16 15 12 15 15 15 15 15 16 17 18 19 20 23 24 23 24 25 26 27 30 29 30 33 34 35 36 37 35 35 36
19 19 19 21 24 26 22 18 17 16 13 13 12 10 9 8 8 6 6 7 10 15 17 18 18 17 16 16 16 17 20 22 25 27 28 31 34 37 37 36 35 36 35
20 20 21 23 26 25 20 18 16 15 12 10 9 10 10 7 4 3 5 8 10 10 11 14 16 20 20 20 18 15 15 19 23 24 24 27 25 29 33 33 34 37 41
21 22 22 24 25 23 19 15 12 10 9 9 10 9 7 5 2 7 6 8 10 11 12 12 13 15 19 22 23 24 22 18 15 20 26 28 30 30 33 35 36 38 37
22 22 22 24 23 20 16 11 8 6 6 7 6 5 2 4 8 7 8 10 11 13 15 16 17 18 19 19 18 18 20 21 23 20 15 19 26 30 31 35 39 38 44
21 20 21 21 20 16 12 8 4 4 6 6 2 6 11 8 7 9 9 11 11 12 14 16 17 19 19 19 20 20 20 18 19 22 23 21 21 16 26 30 34 39 40
18 18 19 18 15 12 7 5 1 2 3 6 10 7 5 6 8 9 10 11 13 14 15 17 18 19 19 19 19 19 19 19 20 18 17 21 27 24 22 13 20 26 28
17 17 17 14 12 8 5 3 6 4 3 2 2 3 5 7 9 10 12 13 15 18 21 22 23 23 23 22 21 20 20 20 19 19 20 20 19 18 25 25 24 16 15
16 16 14 12 10 8 7 7 7 3 2 1 4 7 9 10 12 14 16 18 20 22 22 23 23 24 24 24 23 22 21 21 21 20 19 19 18 18 18 18 22 22 26
16 15 12 12 11 11 9 7 5 2 1 4 6 9 11 13 14 15 15 16 17 18 19 20 21 22 23 24 25 27 26 26 25 24 23 21 20 20 19 19 18 18 17
15 14 15 14 15 13 11 8 5 3 3 5 8 9 11 12 13 14 15 16 17 17 19 20 20 20 21 22 24 25 26 27 28 29 29 28 26 24 24 22 20 19 19
16 17 17 17 15 13 11 8 6 4 5 7 8 10 12 13 14 15 16 18 18 20 21 22 22 23 24 23 22 22 22 22 23 24 25 26 29 31 31 28 26 25 23
18 20 19 17 15 12 10 8 5 3 5 7 8 11 13 15 17 19 21 22 22 23 24 24 26 27 28 29 30 28 26 26 26 25 24 24 24 25 26 27 26 26 24
20 19 18 17 14 12 10 7 4 3 4 7 10 12 14 17 20 21 22 21 22 23 26 29 30 31 31 32 34 34 33 32 32 32 32 32 32 31 28 27 27 27 26

GFSMW_700_spd_126.txt.gz
Wind_Speed
23 26 26 26 27 27 28 27 26 25 23 21 23 27 31 35 38 39 38 36 33 29 26 25 27 29 31 30 31 37 40 40 40 44 50 53 47 49 51 41 33 55 50
23 22 24 25 27 27 28 28 28 28 24 23 24 27 31 35 37 38 38 38 35 31 29 29 28 30 34 32 31 34 37 40 40 44 43 47 48 47 38 39 37 29 29
21 23 26 27 27 26 26 23 25 25 25 23 25 28 31 34 37 35 35 35 34 34 32 31 30 31 33 31 31 33 36 38 39 41 44 47 49 47 47 42 39 36 35
23 25 25 24 23 21 21 18 18 25 26 24 26 29 31 28 35 37 34 33 34 34 32 29 31 34 35 35 34 35 35 38 37 38 43 44 44 44 47 47 43 41 40
17 15 12 11 12 14 17 21 26 29 26 28 29 33 35 31 33 36 38 35 31 35 33 31 37 39 41 35 36 39 38 38 38 37 38 42 41 42 43 43 42 39 44
6 6 10 13 14 15 16 18 20 23 26 28 35 34 34 38 38 40 40 42 35 37 32 36 39 41 40 38 37 39 40 39 39 37 37 38 40 42 42 41 43 43 42
2 6 7 9 11 12 14 16 18 20 19 21 28 31 35 38 37 42 45 51 40 29 36 37 43 41 41 39 37 37 39 38 39 37 36 37 38 39 41 44 41 40 39
4 5 8 8 9 12 14 16 18 19 20 18 17 15 19 26 29 33 29 33 40 35 36 42 39 40 39 41 41 39 39 39 38 37 36 36 36 37 39 40 40 38 41
5 5 6 8 10 13 16 17 20 21 20 20 20 17 17 18 16 19 21 22 25 28 35 34 33 35 36 38 39 39 39 39 38 37 36 36 35 35 38 39 38 36 37
10 7 8 10 13 16 19 22 24 21 21 20 21 22 21 22 20 21 20 20 22 26 27 28 30 31 32 34 34 35 37 36 36 36 36 35 35 36 36 37 38 38 38
13 12 12 13 15 17 21 24 26 23 21 21 22 21 20 22 19 19 22 23 20 22 24 27 26 25 27 29 30 30 32 33 34 34 35 35 34 35 35 36 37 39 38
16 17 15 16 17 20 23 25 26 23 20 20 19 18 16 16 13 14 12 13 12 14 18 18 18 20 21 23 24 26 27 30 30 31 32 34 33 34 34 35 36 39 36
19 21 20 19 20 22 24 26 23 21 20 20 18 15 11 10 10 7 6 4 4 5 7 9 10 13 15 14 14 16 17 20 23 25 26 29 30 31 32 34 35 36 37
21 25 23 22 23 23 25 26 22 21 19 17 14 11 11 11 10 6 2 2 4 4 6 8 12 14 18 17 14 13 12 13 16 19 22 26 28 30 31 33 35 37 38
24 25 24 23 23 24 25 24 21 18 16 13 10 11 11 11 9 4 5 5 6 7 8 10 11 13 12 13 15 16 15 17 15 13 16 23 27 26 28 28 33 35 38
24 22 24 23 23 23 25 23 19 16 12 10 8 9 9 8 4 4 5 6 7 9 10 12 14 15 15 17 16 16 15 15 15 16 16 18 18 21 28 32 35 34 37
26 19 21 23 22 23 23 20 15 12 9 8 7 7 3 4 7 5 5 8 9 9 11 12 14 16 18 19 19 18 17 17 16 17 15 13 15 18 16 24 28 33 37
21 21 22 21 21 21 20 14 11 9 6 4 2 4 5 4 3 4 5 6 8 9 11 12 14 15 17 19 20 21 21 21 20 19 19 21 18 15 14 14 16 23 31
22 23 22 21 20 19 14 9 8 5 2 3 3 2 2 2 4 6 6 7 9 11 12 13 15 15 16 17 18 20 21 21 21 21 21 20 21 19 20 17 13 14 16
23 25 20 19 18 14 10 9 6 7 5 3 2 3 3 4 6 6 8 10 12 13 14 16 17 19 19 19 19 19 20 21 21 21 21 21 22 22 21 20 19 19 15
22 20 18 17 16 12 10 9 10 7 4 2 2 2 2 5 7 9 11 12 13 14 15 16 18 19 20 21 22 22 22 23 23 22 22 22 22 22 23 23 24 24 23
19 18 17 16 14 12 11 11 11 8 4 3 2 1 3 6 8 10 11 12 13 14 15 16 18 20 21 22 23 24 24 24 24 25 25 26 26 27 26 25 25 25 24
19 19 18 17 16 14 15 13 10 6 4 3 1 3 5 7 9 11 11 12 12 12 13 13 14 16 18 20 21 22 24 25 25 27 28 29 30 30 31 31 32 32 30
19 19 19 18 18 17 15 13 10 7 6 4 1 2 5 7 9 9 10 11 11 12 14 15 17 19 20 20 21 22 23 24 25 27 28 29 32 33 34 33 33 33 33
20 21 20 20 19 17 15 12 11 9 6 3 1 4 6 7 8 10 11 12 14 16 19 20 21 21 22 23 24 25 26 28 28 28 28 29 30 31 32 34 34 34 32
21 21 21 21 19 17 15 14 11 7 4 1 2 5 7 9 10 11 13 15 16 18 19 21 22 22 23 25 26 28 29 29 30 30 31 32 33 33 32 30 31 33 34

GFSMW_700_spd_129.txt.gz
Wind_Speed
26 26 25 27 27 26 27 28 27 26 25 24 26 29 32 34 34 35 41 44 41 40 39 36 35 31 30 29 28 29 31 34 36 38 42 43 44 49 52 52 21 37 44
22 24 27 25 26 28 29 30 29 28 27 26 26 27 31 33 36 32 34 42 41 40 39 39 38 36 33 33 30 31 32 33 34 39 39 42 45 49 50 44 41 38 35
21 21 23 27 29 29 30 31 30 28 26 24 24 24 27 29 33 37 39 36 37 40 38 37 39 37 36 35 31 31 34 34 32 35 38 41 40 30 36 45 45 42 39
18 21 25 25 26 25 25 25 26 26 25 24 25 24 25 25 28 30 34 37 36 37 41 37 38 38 38 34 33 34 36 38 36 35 36 40 40 39 38 31 36 37 39
21 20 19 19 16 13 11 12 14 17 18 23 24 24 24 27 30 32 34 33 37 33 35 36 37 37 37 35 34 37 39 39 40 39 39 39 39 39 41 43 40 39 40
15 16 13 10 9 9 10 11 13 15 17 19 20 21 25 29 33 35 36 37 37 40 38 37 39 41 40 37 36 39 39 38 39 39 39 41 39 38 39 42 41 42 42
15 14 11 10 10 11 14 16 18 19 21 22 23 22 22 21 24 29 34 37 42 42 41 49 51 50 41 41 46 41 40 39 39 39 39 40 39 38 39 41 43 44 42
15 14 12 11 12 13 16 18 21 23 25 24 23 23 22 23 22 22 21 23 25 27 27 38 44 54 49 41 39 40 41 42 41 41 42 40 40 38 39 40 42 44 43
17 16 14 13 13 15 16 18 21 24 25 25 25 24 25 25 24 25 24 25 25 27 27 25 28 33 29 34 36 38 41 40 39 40 41 41 40 40 38 39 40 42 43
19 19 17 15 15 16 18 20 22 25 25 24 24 24 23 25 24 24 24 24 27 28 24 23 22 23 25 27 29 32 33 33 34 37 37 39 40 39 37 36 37 39 42
21 22 21 19 18 18 20 22 24 25 25 24 22 22 23 22 21 19 19 18 18 19 16 15 15 12 14 17 20 23 25 27 29 31 34 35 37 38 37 36 36 37 38
26 25 24 23 21 20 22 23 24 25 24 23 22 22 21 20 17 15 14 12 11 11 6 6 8 9 9 10 12 15 18 20 23 25 28 31 32 33 34 34 33 36 36
27 27 26 25 25 23 23 25 26 26 24 22 21 20 19 16 14 15 13 10 6 4 4 8 10 12 15 16 14 12 12 12 14 16 18 21 24 26 28 30 31 33 34
27 27 29 27 27 26 25 25 24 27 22 20 18 18 16 14 14 14 12 7 3 3 4 5 8 10 10 11 12 14 15 16 16 14 13 17 22 25 27 28 29 31 33
27 27 31 31 27 26 25 24 24 24 20 17 16 15 14 13 13 12 7 2 3 4 5 7 8 8 9 10 12 13 14 15 16 18 18 17 17 16 17 24 29 29 31
25 30 31 29 25 25 23 22 23 21 16 14 13 13 12 11 9 5 3 4 4 5 6 8 10 10 11 11 13 13 13 14 15 16 17 18 19 18 19 19 18 24 29
26 28 29 28 23 22 22 21 19 16 13 11 11 10 9 5 3 3 6 6 6 6 7 8 10 12 13 13 14 15 15 15 16 16 17 18 18 17 17 20 20 18 17
27 27 25 23 19 20 21 19 16 12 9 9 8 5 3 1 3 5 6 5 6 7 7 8 10 12 14 15 17 17 18 18 18 18 19 20 20 20 20 20 20 21 21
24 24 23 22 19 20 19 16 13 9 8 5 4 3 4 4 7 6 5 5 5 5 7 9 10 12 13 15 17 18 19 20 20 20 20 20 21 21 21 20 20 21 23
21 27 18 21 22 19 16 13 10 9 8 7 6 4 5 5 5 4 4 4 6 7 9 11 12 13 15 16 17 18 18 20 20 20 20 20 21 20 20 20 20 20 22
22 20 21 23 19 16 13 11 10 10 9 7 4 5 5 4 4 4 4 6 7 9 11 12 13 14 16 17 18 18 18 19 20 21 21 21 21 22 23 24 24 25 24
20 23 23 21 17 14 12 11 12 12 9 6 5 6 5 4 4 5 6 7 9 10 11 13 15 16 17 17 18 18 19 20 20 21 23 24 25 26 27 29 31 31 31
23 24 21 19 17 14 13 14 13 11 9 7 6 5 5 5 5 6 7 9 10 11 12 13 14 15 16 18 18 18 20 20 21 22 24 25 25 27 30 32 34 35 34
21 22 22 19 17 15 15 15 13 11 9 8 6 5 5 5 6 7 9 10 10 11 12 14 16 18 20 21 21 21 20 21 22 23 23 26 28 30 32 32 33 35 36
21 23 21 19 17 18 17 15 13 11 9 8 6 5 6 6 8 9 10 11 11 12 13 15 17 20 21 22 23 23 23 24 24 25 26 26 27 29 30 32 34 34 34
22 22 20 19 20 19 17 16 14 12 10 8 6 6 6 8 10 10 11 12 12 13 15 17 19 20 21 23 23 24 25 26 26 27 28 28 29 31 31 32 32 33 35